<?xml version="1.0" encoding="UTF-8" standalone="no" ?>
<gpx xmlns="http://www.topografix.com/GPX/1/1" xmlns:xsi="http://www.w3.org/2001/XMLSchema-instance" xsi:schemaLocation="http://www.topografix.com/GPX/1/1 http://www.topografix.com/GPX/1/1/gpx.xsd" version="1.1" creator="VisuGPX - https://www.visugpx.com">
  <metadata>
    <name>Dinard-Paimpol-GR34</name>
    <desc><![CDATA[Dinard-Paimpol-GR34
Prévision voyage 2013
HW
SdV]]></desc>
  </metadata>
  <trk>
    <name><![CDATA[Dinard - Paimpol - GR34]]></name>
    <trkseg>
      <trkpt lat="48.63738" lon="-2.04718">
        <ele>14.2</ele>
        <time>2012-06-26T18:08:42Z</time>
      </trkpt>
      <trkpt lat="48.63901" lon="-2.04769">
        <ele>12.4</ele>
        <time>2012-06-26T18:09:42Z</time>
      </trkpt>
      <trkpt lat="48.63846" lon="-2.05014">
        <ele>4.6</ele>
        <time>2012-06-26T18:11:42Z</time>
      </trkpt>
      <trkpt lat="48.63687" lon="-2.04943">
        <ele>12</ele>
        <time>2012-06-26T18:13:22Z</time>
      </trkpt>
      <trkpt lat="48.63572" lon="-2.05204">
        <ele>7.3</ele>
        <time>2012-06-26T18:15:02Z</time>
      </trkpt>
      <trkpt lat="48.63561" lon="-2.05517">
        <ele>10.2</ele>
        <time>2012-06-26T18:15:42Z</time>
      </trkpt>
      <trkpt lat="48.6364" lon="-2.0569">
        <ele>12.7</ele>
        <time>2012-06-26T18:16:02Z</time>
      </trkpt>
      <trkpt lat="48.63769" lon="-2.05603">
        <ele>7.8</ele>
        <time>2012-06-26T18:17:42Z</time>
      </trkpt>
      <trkpt lat="48.64012" lon="-2.05674">
        <ele>6.2</ele>
        <time>2012-06-26T18:21:22Z</time>
      </trkpt>
      <trkpt lat="48.63968" lon="-2.05945">
        <ele>13.8</ele>
        <time>2012-06-26T18:22:42Z</time>
      </trkpt>
      <trkpt lat="48.64039" lon="-2.05996">
        <ele>6.2</ele>
        <time>2012-06-26T18:23:22Z</time>
      </trkpt>
      <trkpt lat="48.64058" lon="-2.06248">
        <ele>5.8</ele>
        <time>2012-06-26T18:25:22Z</time>
      </trkpt>
      <trkpt lat="48.6387" lon="-2.06493">
        <ele>12.8</ele>
        <time>2012-06-26T18:27:42Z</time>
      </trkpt>
      <trkpt lat="48.63907" lon="-2.06611">
        <ele>8.2</ele>
        <time>2012-06-26T18:28:42Z</time>
      </trkpt>
      <trkpt lat="48.63827" lon="-2.06908">
        <ele>9.7</ele>
        <time>2012-06-26T18:29:42Z</time>
      </trkpt>
      <trkpt lat="48.63864" lon="-2.07196">
        <ele>11.5</ele>
        <time>2012-06-26T18:30:02Z</time>
      </trkpt>
      <trkpt lat="48.64001" lon="-2.07394">
        <ele>12.7</ele>
        <time>2012-06-26T18:30:22Z</time>
      </trkpt>
      <trkpt lat="48.6398" lon="-2.07506">
        <ele>15.7</ele>
        <time>2012-06-26T18:31:02Z</time>
      </trkpt>
      <trkpt lat="48.64048" lon="-2.07529">
        <ele>12.2</ele>
        <time>2012-06-26T18:32:02Z</time>
      </trkpt>
      <trkpt lat="48.64084" lon="-2.07781">
        <ele>15.9</ele>
        <time>2012-06-26T18:34:22Z</time>
      </trkpt>
      <trkpt lat="48.63932" lon="-2.07728">
        <ele>14.1</ele>
        <time>2012-06-26T18:36:22Z</time>
      </trkpt>
      <trkpt lat="48.63838" lon="-2.08054">
        <ele>13.3</ele>
        <time>2012-06-26T18:38:42Z</time>
      </trkpt>
      <trkpt lat="48.63643" lon="-2.08051">
        <ele>11.6</ele>
        <time>2012-06-26T18:40:22Z</time>
      </trkpt>
      <trkpt lat="48.63562" lon="-2.08207">
        <ele>13.5</ele>
        <time>2012-06-26T18:41:02Z</time>
      </trkpt>
      <trkpt lat="48.63637" lon="-2.08387">
        <ele>12.7</ele>
        <time>2012-06-26T18:42:02Z</time>
      </trkpt>
      <trkpt lat="48.63534" lon="-2.08454">
        <ele>7.7</ele>
        <time>2012-06-26T18:43:42Z</time>
      </trkpt>
      <trkpt lat="48.63258" lon="-2.08289">
        <ele>25</ele>
        <time>2012-06-26T18:44:02Z</time>
      </trkpt>
      <trkpt lat="48.63209" lon="-2.08594">
        <ele>27.2</ele>
        <time>2012-06-26T18:44:22Z</time>
      </trkpt>
      <trkpt lat="48.63455" lon="-2.08647">
        <ele>10.2</ele>
        <time>2012-06-26T18:45:42Z</time>
      </trkpt>
      <trkpt lat="48.63379" lon="-2.09122">
        <ele>20.3</ele>
        <time>2012-06-26T18:48:02Z</time>
      </trkpt>
      <trkpt lat="48.63429" lon="-2.09181">
        <ele>12</ele>
        <time>2012-06-26T18:48:22Z</time>
      </trkpt>
      <trkpt lat="48.63331" lon="-2.09461">
        <ele>16.1</ele>
        <time>2012-06-26T18:50:02Z</time>
      </trkpt>
      <trkpt lat="48.63515" lon="-2.0976">
        <ele>26.6</ele>
        <time>2012-06-26T18:53:22Z</time>
      </trkpt>
      <trkpt lat="48.63646" lon="-2.09792">
        <ele>26.7</ele>
        <time>2012-06-26T18:54:22Z</time>
      </trkpt>
      <trkpt lat="48.63608" lon="-2.09936">
        <ele>36</ele>
        <time>2012-06-26T18:54:42Z</time>
      </trkpt>
      <trkpt lat="48.63844" lon="-2.10058">
        <ele>27.1</ele>
        <time>2012-06-26T18:55:22Z</time>
      </trkpt>
      <trkpt lat="48.63867" lon="-2.10417">
        <ele>26.1</ele>
        <time>2012-06-26T18:57:22Z</time>
      </trkpt>
      <trkpt lat="48.63791" lon="-2.10548">
        <ele>25.3</ele>
        <time>2012-06-26T18:58:02Z</time>
      </trkpt>
      <trkpt lat="48.63491" lon="-2.1031">
        <ele>9.8</ele>
        <time>2012-06-26T19:00:42Z</time>
      </trkpt>
      <trkpt lat="48.63265" lon="-2.10309">
        <ele>7.5</ele>
        <time>2012-06-26T19:01:42Z</time>
      </trkpt>
      <trkpt lat="48.63334" lon="-2.1053">
        <ele>10.1</ele>
        <time>2012-06-26T19:02:22Z</time>
      </trkpt>
      <trkpt lat="48.63688" lon="-2.1068">
        <ele>7.5</ele>
        <time>2012-06-26T19:02:42Z</time>
      </trkpt>
      <trkpt lat="48.63754" lon="-2.11082">
        <ele>12.2</ele>
        <time>2012-06-26T19:03:42Z</time>
      </trkpt>
      <trkpt lat="48.63701" lon="-2.111">
        <ele>19.2</ele>
        <time>2012-06-26T19:04:02Z</time>
      </trkpt>
      <trkpt lat="48.63834" lon="-2.11289">
        <ele>23.4</ele>
        <time>2012-06-26T19:04:42Z</time>
      </trkpt>
      <trkpt lat="48.64219" lon="-2.11426">
        <ele>27.7</ele>
        <time>2012-06-26T19:05:02Z</time>
      </trkpt>
      <trkpt lat="48.64065" lon="-2.11608">
        <ele>27.9</ele>
        <time>2012-06-26T19:05:22Z</time>
      </trkpt>
      <trkpt lat="48.63905" lon="-2.11536">
        <ele>19.7</ele>
        <time>2012-06-26T19:05:42Z</time>
      </trkpt>
      <trkpt lat="48.63519" lon="-2.12431">
        <ele>8.1</ele>
        <time>2012-06-26T19:08:22Z</time>
      </trkpt>
      <trkpt lat="48.63504" lon="-2.12723">
        <ele>17.2</ele>
        <time>2012-06-26T19:09:22Z</time>
      </trkpt>
      <trkpt lat="48.63576" lon="-2.12778">
        <ele>10.3</ele>
        <time>2012-06-26T19:10:22Z</time>
      </trkpt>
      <trkpt lat="48.63543" lon="-2.1283">
        <ele>17.4</ele>
        <time>2012-06-26T19:10:42Z</time>
      </trkpt>
      <trkpt lat="48.63744" lon="-2.13018">
        <ele>13.2</ele>
        <time>2012-06-26T19:13:02Z</time>
      </trkpt>
      <trkpt lat="48.63679" lon="-2.13116">
        <ele>22.1</ele>
        <time>2012-06-26T19:13:22Z</time>
      </trkpt>
      <trkpt lat="48.6381" lon="-2.13307">
        <ele>34.2</ele>
        <time>2012-06-26T19:14:22Z</time>
      </trkpt>
      <trkpt lat="48.63548" lon="-2.13323">
        <ele>20.2</ele>
        <time>2012-06-26T19:16:02Z</time>
      </trkpt>
      <trkpt lat="48.63434" lon="-2.13571">
        <ele>13.3</ele>
        <time>2012-06-26T19:17:22Z</time>
      </trkpt>
      <trkpt lat="48.63467" lon="-2.13705">
        <ele>12.9</ele>
        <time>2012-06-26T19:18:02Z</time>
      </trkpt>
      <trkpt lat="48.63364" lon="-2.13731">
        <ele>13.6</ele>
        <time>2012-06-26T19:18:42Z</time>
      </trkpt>
      <trkpt lat="48.63108" lon="-2.14188">
        <ele>12.4</ele>
        <time>2012-06-26T19:20:02Z</time>
      </trkpt>
      <trkpt lat="48.63186" lon="-2.14603">
        <ele>9.8</ele>
        <time>2012-06-26T19:22:02Z</time>
      </trkpt>
      <trkpt lat="48.63306" lon="-2.14848">
        <ele>17.4</ele>
        <time>2012-06-26T19:22:42Z</time>
      </trkpt>
      <trkpt lat="48.63053" lon="-2.15085">
        <ele>12.8</ele>
        <time>2012-06-26T19:24:02Z</time>
      </trkpt>
      <trkpt lat="48.62831" lon="-2.15067">
        <ele>12.7</ele>
        <time>2012-06-26T19:25:42Z</time>
      </trkpt>
      <trkpt lat="48.62954" lon="-2.14725">
        <ele>15.2</ele>
        <time>2012-06-26T19:27:42Z</time>
      </trkpt>
      <trkpt lat="48.62858" lon="-2.14658">
        <ele>18.3</ele>
        <time>2012-06-26T19:28:02Z</time>
      </trkpt>
      <trkpt lat="48.62887" lon="-2.14442">
        <ele>22.1</ele>
        <time>2012-06-26T19:28:42Z</time>
      </trkpt>
      <trkpt lat="48.62795" lon="-2.14227">
        <ele>13.2</ele>
        <time>2012-06-26T19:29:42Z</time>
      </trkpt>
      <trkpt lat="48.62645" lon="-2.14322">
        <ele>14.8</ele>
        <time>2012-06-26T19:30:42Z</time>
      </trkpt>
      <trkpt lat="48.62639" lon="-2.14206">
        <ele>12</ele>
        <time>2012-06-26T19:31:22Z</time>
      </trkpt>
      <trkpt lat="48.62553" lon="-2.14219">
        <ele>9.5</ele>
        <time>2012-06-26T19:32:02Z</time>
      </trkpt>
      <trkpt lat="48.62569" lon="-2.1406">
        <ele>7.9</ele>
        <time>2012-06-26T19:32:42Z</time>
      </trkpt>
      <trkpt lat="48.62458" lon="-2.13695">
        <ele>19.5</ele>
        <time>2012-06-26T19:34:02Z</time>
      </trkpt>
      <trkpt lat="48.62288" lon="-2.13869">
        <ele>7.9</ele>
        <time>2012-06-26T19:34:42Z</time>
      </trkpt>
      <trkpt lat="48.61821" lon="-2.13696">
        <ele>7.3</ele>
        <time>2012-06-26T19:36:42Z</time>
      </trkpt>
      <trkpt lat="48.61738" lon="-2.13546">
        <ele>11.6</ele>
        <time>2012-06-26T19:37:42Z</time>
      </trkpt>
      <trkpt lat="48.6157" lon="-2.13701">
        <ele>13.8</ele>
        <time>2012-06-26T19:38:42Z</time>
      </trkpt>
      <trkpt lat="48.61688" lon="-2.14197">
        <ele>16.1</ele>
        <time>2012-06-26T19:39:02Z</time>
      </trkpt>
      <trkpt lat="48.61611" lon="-2.14526">
        <ele>31.1</ele>
        <time>2012-06-26T19:40:22Z</time>
      </trkpt>
      <trkpt lat="48.61774" lon="-2.14622">
        <ele>25.5</ele>
        <time>2012-06-26T19:41:02Z</time>
      </trkpt>
      <trkpt lat="48.61624" lon="-2.15008">
        <ele>23.7</ele>
        <time>2012-06-26T19:41:42Z</time>
      </trkpt>
      <trkpt lat="48.61039" lon="-2.15082">
        <ele>30</ele>
        <time>2012-06-26T19:45:02Z</time>
      </trkpt>
      <trkpt lat="48.60945" lon="-2.15182">
        <ele>23.9</ele>
        <time>2012-06-26T19:45:42Z</time>
      </trkpt>
      <trkpt lat="48.60751" lon="-2.15885">
        <ele>9.2</ele>
        <time>2012-06-26T19:47:22Z</time>
      </trkpt>
      <trkpt lat="48.607" lon="-2.15854">
        <ele>11</ele>
        <time>2012-06-26T19:48:02Z</time>
      </trkpt>
      <trkpt lat="48.60636" lon="-2.16387">
        <ele>17</ele>
        <time>2012-06-26T19:49:22Z</time>
      </trkpt>
      <trkpt lat="48.60475" lon="-2.16382">
        <ele>16.7</ele>
        <time>2012-06-26T19:50:22Z</time>
      </trkpt>
      <trkpt lat="48.60408" lon="-2.16645">
        <ele>10.7</ele>
        <time>2012-06-26T19:52:22Z</time>
      </trkpt>
      <trkpt lat="48.59986" lon="-2.1671">
        <ele>11.1</ele>
        <time>2012-06-26T19:58:22Z</time>
      </trkpt>
      <trkpt lat="48.59963" lon="-2.16815">
        <ele>7.8</ele>
        <time>2012-06-26T19:59:22Z</time>
      </trkpt>
      <trkpt lat="48.59727" lon="-2.1675">
        <ele>9.4</ele>
        <time>2012-06-26T20:01:02Z</time>
      </trkpt>
      <trkpt lat="48.5962" lon="-2.16887">
        <ele>10.8</ele>
        <time>2012-06-26T20:02:02Z</time>
      </trkpt>
      <trkpt lat="48.59646" lon="-2.17052">
        <ele>8.3</ele>
        <time>2012-06-26T20:03:42Z</time>
      </trkpt>
      <trkpt lat="48.59317" lon="-2.16873">
        <ele>6.5</ele>
        <time>2012-06-26T20:07:22Z</time>
      </trkpt>
      <trkpt lat="48.59371" lon="-2.16526">
        <ele>8</ele>
        <time>2012-06-26T20:09:22Z</time>
      </trkpt>
      <trkpt lat="48.58945" lon="-2.15998">
        <ele>5.9</ele>
        <time>2012-06-26T20:10:42Z</time>
      </trkpt>
      <trkpt lat="48.58836" lon="-2.15744">
        <ele>6.4</ele>
        <time>2012-06-26T20:11:02Z</time>
      </trkpt>
      <trkpt lat="48.58755" lon="-2.15731">
        <ele>6</ele>
        <time>2012-06-26T20:11:22Z</time>
      </trkpt>
      <trkpt lat="48.58657" lon="-2.16079">
        <ele>5.3</ele>
        <time>2012-06-26T20:12:22Z</time>
      </trkpt>
      <trkpt lat="48.58302" lon="-2.16383">
        <ele>5.7</ele>
        <time>2012-06-26T20:13:22Z</time>
      </trkpt>
      <trkpt lat="48.58198" lon="-2.16627">
        <ele>5.4</ele>
        <time>2012-06-26T20:14:02Z</time>
      </trkpt>
      <trkpt lat="48.57902" lon="-2.16432">
        <ele>6.1</ele>
        <time>2012-06-26T20:15:02Z</time>
      </trkpt>
      <trkpt lat="48.57689" lon="-2.16591">
        <ele>7.7</ele>
        <time>2012-06-26T20:16:02Z</time>
      </trkpt>
      <trkpt lat="48.57692" lon="-2.16767">
        <ele>8.8</ele>
        <time>2012-06-26T20:16:22Z</time>
      </trkpt>
      <trkpt lat="48.57616" lon="-2.16826">
        <ele>6.4</ele>
        <time>2012-06-26T20:17:02Z</time>
      </trkpt>
      <trkpt lat="48.57622" lon="-2.16949">
        <ele>6.9</ele>
        <time>2012-06-26T20:17:22Z</time>
      </trkpt>
      <trkpt lat="48.5742" lon="-2.17172">
        <ele>7.3</ele>
        <time>2012-06-26T20:17:42Z</time>
      </trkpt>
      <trkpt lat="48.57402" lon="-2.17504">
        <ele>19.6</ele>
        <time>2012-06-26T20:19:22Z</time>
      </trkpt>
      <trkpt lat="48.57242" lon="-2.17749">
        <ele>27.5</ele>
        <time>2012-06-26T20:20:22Z</time>
      </trkpt>
      <trkpt lat="48.57134" lon="-2.18238">
        <ele>33.5</ele>
        <time>2012-06-26T20:22:02Z</time>
      </trkpt>
      <trkpt lat="48.57175" lon="-2.18301">
        <ele>34.1</ele>
        <time>2012-06-26T20:23:02Z</time>
      </trkpt>
      <trkpt lat="48.57127" lon="-2.18808">
        <ele>39</ele>
        <time>2012-06-26T20:23:42Z</time>
      </trkpt>
      <trkpt lat="48.5735" lon="-2.1902">
        <ele>38.6</ele>
        <time>2012-06-26T20:24:42Z</time>
      </trkpt>
      <trkpt lat="48.57772" lon="-2.1911">
        <ele>38</ele>
        <time>2012-06-26T20:26:02Z</time>
      </trkpt>
      <trkpt lat="48.5795" lon="-2.19048">
        <ele>36.5</ele>
        <time>2012-06-26T20:26:42Z</time>
      </trkpt>
      <trkpt lat="48.58079" lon="-2.18707">
        <ele>19.5</ele>
        <time>2012-06-26T20:28:22Z</time>
      </trkpt>
      <trkpt lat="48.58236" lon="-2.18894">
        <ele>19.3</ele>
        <time>2012-06-26T20:29:02Z</time>
      </trkpt>
      <trkpt lat="48.58303" lon="-2.18765">
        <ele>8</ele>
        <time>2012-06-26T20:29:22Z</time>
      </trkpt>
      <trkpt lat="48.58393" lon="-2.18799">
        <ele>6.8</ele>
        <time>2012-06-26T20:30:22Z</time>
      </trkpt>
      <trkpt lat="48.58466" lon="-2.18696">
        <ele>6.5</ele>
        <time>2012-06-26T20:30:42Z</time>
      </trkpt>
      <trkpt lat="48.58709" lon="-2.1879">
        <ele>5.3</ele>
        <time>2012-06-26T20:31:22Z</time>
      </trkpt>
      <trkpt lat="48.58976" lon="-2.18733">
        <ele>6.3</ele>
        <time>2012-06-26T20:32:22Z</time>
      </trkpt>
      <trkpt lat="48.59161" lon="-2.1837">
        <ele>8.5</ele>
        <time>2012-06-26T20:33:42Z</time>
      </trkpt>
      <trkpt lat="48.59366" lon="-2.18572">
        <ele>8.2</ele>
        <time>2012-06-26T20:36:02Z</time>
      </trkpt>
      <trkpt lat="48.59493" lon="-2.18505">
        <ele>11.1</ele>
        <time>2012-06-26T20:37:02Z</time>
      </trkpt>
      <trkpt lat="48.5957" lon="-2.18651">
        <ele>14.4</ele>
        <time>2012-06-26T20:38:22Z</time>
      </trkpt>
      <trkpt lat="48.59878" lon="-2.18691">
        <ele>23.1</ele>
        <time>2012-06-26T20:40:02Z</time>
      </trkpt>
      <trkpt lat="48.59916" lon="-2.18384">
        <ele>18.8</ele>
        <time>2012-06-26T20:41:22Z</time>
      </trkpt>
      <trkpt lat="48.60038" lon="-2.1833">
        <ele>20.8</ele>
        <time>2012-06-26T20:41:42Z</time>
      </trkpt>
      <trkpt lat="48.60027" lon="-2.18419">
        <ele>26.2</ele>
        <time>2012-06-26T20:42:02Z</time>
      </trkpt>
      <trkpt lat="48.60338" lon="-2.18644">
        <ele>28.8</ele>
        <time>2012-06-26T20:44:22Z</time>
      </trkpt>
      <trkpt lat="48.60553" lon="-2.1846">
        <ele>10</ele>
        <time>2012-06-26T20:45:22Z</time>
      </trkpt>
      <trkpt lat="48.60619" lon="-2.18611">
        <ele>14.6</ele>
        <time>2012-06-26T20:46:02Z</time>
      </trkpt>
      <trkpt lat="48.60552" lon="-2.19042">
        <ele>24.4</ele>
        <time>2012-06-26T20:48:22Z</time>
      </trkpt>
      <trkpt lat="48.60907" lon="-2.19466">
        <ele>19.2</ele>
        <time>2012-06-26T20:49:22Z</time>
      </trkpt>
      <trkpt lat="48.60693" lon="-2.19533">
        <ele>2.5</ele>
        <time>2012-06-26T20:50:22Z</time>
      </trkpt>
      <trkpt lat="48.60563" lon="-2.19252">
        <ele>11.1</ele>
        <time>2012-06-26T20:51:42Z</time>
      </trkpt>
      <trkpt lat="48.60575" lon="-2.19097">
        <ele>27.1</ele>
        <time>2012-06-26T20:52:42Z</time>
      </trkpt>
      <trkpt lat="48.60157" lon="-2.19272">
        <ele>8.7</ele>
        <time>2012-06-26T20:54:22Z</time>
      </trkpt>
      <trkpt lat="48.60041" lon="-2.19439">
        <ele>8.9</ele>
        <time>2012-06-26T20:54:42Z</time>
      </trkpt>
      <trkpt lat="48.59856" lon="-2.1951">
        <ele>6.7</ele>
        <time>2012-06-26T20:57:02Z</time>
      </trkpt>
      <trkpt lat="48.5984" lon="-2.19406">
        <ele>17.9</ele>
        <time>2012-06-26T20:58:22Z</time>
      </trkpt>
      <trkpt lat="48.59696" lon="-2.19353">
        <ele>9</ele>
        <time>2012-06-26T21:00:02Z</time>
      </trkpt>
      <trkpt lat="48.59629" lon="-2.19191">
        <ele>14.2</ele>
        <time>2012-06-26T21:01:42Z</time>
      </trkpt>
      <trkpt lat="48.59387" lon="-2.1911">
        <ele>10</ele>
        <time>2012-06-26T21:02:42Z</time>
      </trkpt>
      <trkpt lat="48.59201" lon="-2.19171">
        <ele>8.4</ele>
        <time>2012-06-26T21:03:42Z</time>
      </trkpt>
      <trkpt lat="48.58889" lon="-2.19529">
        <ele>13</ele>
        <time>2012-06-26T21:04:42Z</time>
      </trkpt>
      <trkpt lat="48.58532" lon="-2.19613">
        <ele>16.8</ele>
        <time>2012-06-26T21:05:22Z</time>
      </trkpt>
      <trkpt lat="48.58396" lon="-2.20168">
        <ele>15</ele>
        <time>2012-06-26T21:07:42Z</time>
      </trkpt>
      <trkpt lat="48.58139" lon="-2.20095">
        <ele>8.8</ele>
        <time>2012-06-26T21:10:02Z</time>
      </trkpt>
      <trkpt lat="48.57972" lon="-2.20507">
        <ele>11.7</ele>
        <time>2012-06-26T21:11:22Z</time>
      </trkpt>
      <trkpt lat="48.57802" lon="-2.20592">
        <ele>12.2</ele>
        <time>2012-06-26T21:13:02Z</time>
      </trkpt>
      <trkpt lat="48.57673" lon="-2.20475">
        <ele>12.7</ele>
        <time>2012-06-26T21:15:02Z</time>
      </trkpt>
      <trkpt lat="48.57614" lon="-2.20582">
        <ele>13.1</ele>
        <time>2012-06-26T21:16:02Z</time>
      </trkpt>
      <trkpt lat="48.57541" lon="-2.20546">
        <ele>7.2</ele>
        <time>2012-06-26T21:16:42Z</time>
      </trkpt>
      <trkpt lat="48.57497" lon="-2.20691">
        <ele>5.2</ele>
        <time>2012-06-26T21:17:22Z</time>
      </trkpt>
      <trkpt lat="48.57407" lon="-2.20645">
        <ele>22.7</ele>
        <time>2012-06-26T21:18:02Z</time>
      </trkpt>
      <trkpt lat="48.57287" lon="-2.20876">
        <ele>31.2</ele>
        <time>2012-06-26T21:19:42Z</time>
      </trkpt>
      <trkpt lat="48.57292" lon="-2.21119">
        <ele>14.5</ele>
        <time>2012-06-26T21:20:42Z</time>
      </trkpt>
      <trkpt lat="48.57167" lon="-2.21247">
        <ele>10.7</ele>
        <time>2012-06-26T21:22:02Z</time>
      </trkpt>
      <trkpt lat="48.57463" lon="-2.21445">
        <ele>12.7</ele>
        <time>2012-06-26T21:23:02Z</time>
      </trkpt>
      <trkpt lat="48.57545" lon="-2.21241">
        <ele>8.4</ele>
        <time>2012-06-26T21:24:02Z</time>
      </trkpt>
      <trkpt lat="48.5759" lon="-2.21392">
        <ele>19.2</ele>
        <time>2012-06-26T21:24:22Z</time>
      </trkpt>
      <trkpt lat="48.57795" lon="-2.21404">
        <ele>28.3</ele>
        <time>2012-06-26T21:25:22Z</time>
      </trkpt>
      <trkpt lat="48.57835" lon="-2.21516">
        <ele>34.5</ele>
        <time>2012-06-26T21:26:02Z</time>
      </trkpt>
      <trkpt lat="48.58635" lon="-2.21565">
        <ele>42.3</ele>
        <time>2012-06-26T21:29:02Z</time>
      </trkpt>
      <trkpt lat="48.58813" lon="-2.21663">
        <ele>40.7</ele>
        <time>2012-06-26T21:29:22Z</time>
      </trkpt>
      <trkpt lat="48.59443" lon="-2.22452">
        <ele>9</ele>
        <time>2012-06-26T21:34:02Z</time>
      </trkpt>
      <trkpt lat="48.59426" lon="-2.22523">
        <ele>10.1</ele>
        <time>2012-06-26T21:34:42Z</time>
      </trkpt>
      <trkpt lat="48.59498" lon="-2.22567">
        <ele>10.8</ele>
        <time>2012-06-26T21:35:22Z</time>
      </trkpt>
      <trkpt lat="48.59562" lon="-2.22395">
        <ele>18.1</ele>
        <time>2012-06-26T21:36:02Z</time>
      </trkpt>
      <trkpt lat="48.59727" lon="-2.22391">
        <ele>28.6</ele>
        <time>2012-06-26T21:36:42Z</time>
      </trkpt>
      <trkpt lat="48.59794" lon="-2.22293">
        <ele>16.6</ele>
        <time>2012-06-26T21:37:22Z</time>
      </trkpt>
      <trkpt lat="48.60108" lon="-2.22443">
        <ele>31.8</ele>
        <time>2012-06-26T21:39:42Z</time>
      </trkpt>
      <trkpt lat="48.60205" lon="-2.22288">
        <ele>17.8</ele>
        <time>2012-06-26T21:41:02Z</time>
      </trkpt>
      <trkpt lat="48.60387" lon="-2.22478">
        <ele>26.1</ele>
        <time>2012-06-26T21:43:02Z</time>
      </trkpt>
      <trkpt lat="48.60365" lon="-2.22587">
        <ele>27.5</ele>
        <time>2012-06-26T21:43:42Z</time>
      </trkpt>
      <trkpt lat="48.60819" lon="-2.22952">
        <ele>54.9</ele>
        <time>2012-06-26T21:48:42Z</time>
      </trkpt>
      <trkpt lat="48.61032" lon="-2.22944">
        <ele>55.5</ele>
        <time>2012-06-26T21:50:22Z</time>
      </trkpt>
      <trkpt lat="48.60916" lon="-2.23222">
        <ele>55.1</ele>
        <time>2012-06-26T21:51:42Z</time>
      </trkpt>
      <trkpt lat="48.6092" lon="-2.2338">
        <ele>34.6</ele>
        <time>2012-06-26T21:52:42Z</time>
      </trkpt>
      <trkpt lat="48.60994" lon="-2.23252">
        <ele>13.2</ele>
        <time>2012-06-26T21:53:42Z</time>
      </trkpt>
      <trkpt lat="48.61425" lon="-2.24537">
        <ele>13.7</ele>
        <time>2012-06-26T21:55:22Z</time>
      </trkpt>
      <trkpt lat="48.61921" lon="-2.25051">
        <ele>48.7</ele>
        <time>2012-06-26T21:56:42Z</time>
      </trkpt>
      <trkpt lat="48.6205" lon="-2.24715">
        <ele>45.8</ele>
        <time>2012-06-26T21:57:22Z</time>
      </trkpt>
      <trkpt lat="48.61956" lon="-2.24638">
        <ele>39.8</ele>
        <time>2012-06-26T21:57:42Z</time>
      </trkpt>
      <trkpt lat="48.62516" lon="-2.23893">
        <ele>20</ele>
        <time>2012-06-26T22:01:02Z</time>
      </trkpt>
      <trkpt lat="48.6237" lon="-2.24079">
        <ele>31</ele>
        <time>2012-06-26T22:02:22Z</time>
      </trkpt>
      <trkpt lat="48.62314" lon="-2.24365">
        <ele>29</ele>
        <time>2012-06-26T22:03:42Z</time>
      </trkpt>
      <trkpt lat="48.62709" lon="-2.25034">
        <ele>11.7</ele>
        <time>2012-06-26T22:05:42Z</time>
      </trkpt>
      <trkpt lat="48.63162" lon="-2.25454">
        <ele>9.9</ele>
        <time>2012-06-26T22:06:42Z</time>
      </trkpt>
      <trkpt lat="48.63636" lon="-2.25632">
        <ele>10.9</ele>
        <time>2012-06-26T22:07:42Z</time>
      </trkpt>
      <trkpt lat="48.63844" lon="-2.25452">
        <ele>32.5</ele>
        <time>2012-06-26T22:08:42Z</time>
      </trkpt>
      <trkpt lat="48.63931" lon="-2.25093">
        <ele>16.9</ele>
        <time>2012-06-26T22:09:42Z</time>
      </trkpt>
      <trkpt lat="48.64012" lon="-2.25041">
        <ele>17</ele>
        <time>2012-06-26T22:10:22Z</time>
      </trkpt>
      <trkpt lat="48.64189" lon="-2.24474">
        <ele>8</ele>
        <time>2012-06-26T22:11:42Z</time>
      </trkpt>
      <trkpt lat="48.64388" lon="-2.24419">
        <ele>15.2</ele>
        <time>2012-06-26T22:12:22Z</time>
      </trkpt>
      <trkpt lat="48.64375" lon="-2.24493">
        <ele>26.9</ele>
        <time>2012-06-26T22:13:02Z</time>
      </trkpt>
      <trkpt lat="48.64581" lon="-2.24746">
        <ele>23.8</ele>
        <time>2012-06-26T22:15:42Z</time>
      </trkpt>
      <trkpt lat="48.64491" lon="-2.24902">
        <ele>16.2</ele>
        <time>2012-06-26T22:16:22Z</time>
      </trkpt>
      <trkpt lat="48.64519" lon="-2.25021">
        <ele>13.4</ele>
        <time>2012-06-26T22:17:02Z</time>
      </trkpt>
      <trkpt lat="48.64449" lon="-2.25117">
        <ele>23</ele>
        <time>2012-06-26T22:17:22Z</time>
      </trkpt>
      <trkpt lat="48.64491" lon="-2.25377">
        <ele>18.1</ele>
        <time>2012-06-26T22:19:02Z</time>
      </trkpt>
      <trkpt lat="48.64373" lon="-2.25534">
        <ele>24.9</ele>
        <time>2012-06-26T22:20:02Z</time>
      </trkpt>
      <trkpt lat="48.64347" lon="-2.25705">
        <ele>11.1</ele>
        <time>2012-06-26T22:20:22Z</time>
      </trkpt>
      <trkpt lat="48.64121" lon="-2.26049">
        <ele>29.3</ele>
        <time>2012-06-26T22:21:22Z</time>
      </trkpt>
      <trkpt lat="48.64375" lon="-2.26237">
        <ele>32.3</ele>
        <time>2012-06-26T22:22:42Z</time>
      </trkpt>
      <trkpt lat="48.6415" lon="-2.26455">
        <ele>38</ele>
        <time>2012-06-26T22:24:22Z</time>
      </trkpt>
      <trkpt lat="48.64019" lon="-2.26918">
        <ele>32</ele>
        <time>2012-06-26T22:25:22Z</time>
      </trkpt>
      <trkpt lat="48.64072" lon="-2.26895">
        <ele>16.2</ele>
        <time>2012-06-26T22:26:02Z</time>
      </trkpt>
      <trkpt lat="48.64034" lon="-2.27014">
        <ele>30.6</ele>
        <time>2012-06-26T22:26:22Z</time>
      </trkpt>
      <trkpt lat="48.64103" lon="-2.27116">
        <ele>29</ele>
        <time>2012-06-26T22:26:42Z</time>
      </trkpt>
      <trkpt lat="48.64008" lon="-2.27295">
        <ele>41.9</ele>
        <time>2012-06-26T22:27:22Z</time>
      </trkpt>
      <trkpt lat="48.63918" lon="-2.27143">
        <ele>22.1</ele>
        <time>2012-06-26T22:28:02Z</time>
      </trkpt>
      <trkpt lat="48.63765" lon="-2.27225">
        <ele>33.2</ele>
        <time>2012-06-26T22:29:22Z</time>
      </trkpt>
      <trkpt lat="48.63645" lon="-2.27422">
        <ele>20.2</ele>
        <time>2012-06-26T22:30:22Z</time>
      </trkpt>
      <trkpt lat="48.63646" lon="-2.27682">
        <ele>29.3</ele>
        <time>2012-06-26T22:31:42Z</time>
      </trkpt>
      <trkpt lat="48.63591" lon="-2.27625">
        <ele>39.6</ele>
        <time>2012-06-26T22:32:22Z</time>
      </trkpt>
      <trkpt lat="48.632" lon="-2.28459">
        <ele>33.8</ele>
        <time>2012-06-26T22:35:22Z</time>
      </trkpt>
      <trkpt lat="48.63199" lon="-2.28689">
        <ele>20.8</ele>
        <time>2012-06-26T22:36:22Z</time>
      </trkpt>
      <trkpt lat="48.62988" lon="-2.28608">
        <ele>20.2</ele>
        <time>2012-06-26T22:39:02Z</time>
      </trkpt>
      <trkpt lat="48.62861" lon="-2.28924">
        <ele>22</ele>
        <time>2012-06-26T22:40:02Z</time>
      </trkpt>
      <trkpt lat="48.62755" lon="-2.28929">
        <ele>15.1</ele>
        <time>2012-06-26T22:40:42Z</time>
      </trkpt>
      <trkpt lat="48.62771" lon="-2.28782">
        <ele>16.7</ele>
        <time>2012-06-26T22:41:42Z</time>
      </trkpt>
      <trkpt lat="48.6252" lon="-2.2908">
        <ele>23.2</ele>
        <time>2012-06-26T22:44:22Z</time>
      </trkpt>
      <trkpt lat="48.62525" lon="-2.29251">
        <ele>18.3</ele>
        <time>2012-06-26T22:45:02Z</time>
      </trkpt>
      <trkpt lat="48.62375" lon="-2.29175">
        <ele>20</ele>
        <time>2012-06-26T22:46:02Z</time>
      </trkpt>
      <trkpt lat="48.62051" lon="-2.29261">
        <ele>8.6</ele>
        <time>2012-06-26T22:48:02Z</time>
      </trkpt>
      <trkpt lat="48.61903" lon="-2.29469">
        <ele>12.2</ele>
        <time>2012-06-26T22:48:42Z</time>
      </trkpt>
      <trkpt lat="48.61846" lon="-2.30222">
        <ele>44</ele>
        <time>2012-06-26T22:50:42Z</time>
      </trkpt>
      <trkpt lat="48.61119" lon="-2.30762">
        <ele>43</ele>
        <time>2012-06-26T22:53:22Z</time>
      </trkpt>
      <trkpt lat="48.60905" lon="-2.31135">
        <ele>32.3</ele>
        <time>2012-06-26T22:54:22Z</time>
      </trkpt>
      <trkpt lat="48.61145" lon="-2.32519">
        <ele>7.3</ele>
        <time>2012-06-26T22:56:22Z</time>
      </trkpt>
      <trkpt lat="48.61226" lon="-2.32647">
        <ele>7.6</ele>
        <time>2012-06-26T22:57:02Z</time>
      </trkpt>
      <trkpt lat="48.61341" lon="-2.32229">
        <ele>11.2</ele>
        <time>2012-06-26T22:58:22Z</time>
      </trkpt>
      <trkpt lat="48.61596" lon="-2.32195">
        <ele>29</ele>
        <time>2012-06-26T22:59:42Z</time>
      </trkpt>
      <trkpt lat="48.61665" lon="-2.32341">
        <ele>37.1</ele>
        <time>2012-06-26T23:00:22Z</time>
      </trkpt>
      <trkpt lat="48.61556" lon="-2.32857">
        <ele>40</ele>
        <time>2012-06-26T23:01:22Z</time>
      </trkpt>
      <trkpt lat="48.61914" lon="-2.32742">
        <ele>31.5</ele>
        <time>2012-06-26T23:02:02Z</time>
      </trkpt>
      <trkpt lat="48.61975" lon="-2.33322">
        <ele>5.9</ele>
        <time>2012-06-26T23:03:22Z</time>
      </trkpt>
      <trkpt lat="48.61831" lon="-2.33586">
        <ele>7</ele>
        <time>2012-06-26T23:05:02Z</time>
      </trkpt>
      <trkpt lat="48.62018" lon="-2.33821">
        <ele>8.5</ele>
        <time>2012-06-26T23:05:22Z</time>
      </trkpt>
      <trkpt lat="48.61994" lon="-2.33576">
        <ele>5.6</ele>
        <time>2012-06-26T23:05:42Z</time>
      </trkpt>
      <trkpt lat="48.62266" lon="-2.3344">
        <ele>12.1</ele>
        <time>2012-06-26T23:06:42Z</time>
      </trkpt>
      <trkpt lat="48.62784" lon="-2.32513">
        <ele>7.6</ele>
        <time>2012-06-26T23:08:22Z</time>
      </trkpt>
      <trkpt lat="48.62888" lon="-2.32049">
        <ele>14.8</ele>
        <time>2012-06-26T23:09:22Z</time>
      </trkpt>
      <trkpt lat="48.63072" lon="-2.32241">
        <ele>27</ele>
        <time>2012-06-26T23:10:22Z</time>
      </trkpt>
      <trkpt lat="48.63245" lon="-2.32094">
        <ele>37</ele>
        <time>2012-06-26T23:11:02Z</time>
      </trkpt>
      <trkpt lat="48.63414" lon="-2.32116">
        <ele>52.5</ele>
        <time>2012-06-26T23:11:42Z</time>
      </trkpt>
      <trkpt lat="48.63604" lon="-2.3191">
        <ele>59.7</ele>
        <time>2012-06-26T23:12:22Z</time>
      </trkpt>
      <trkpt lat="48.63966" lon="-2.31768">
        <ele>61.4</ele>
        <time>2012-06-26T23:13:02Z</time>
      </trkpt>
      <trkpt lat="48.64127" lon="-2.31504">
        <ele>54.7</ele>
        <time>2012-06-26T23:13:42Z</time>
      </trkpt>
      <trkpt lat="48.63969" lon="-2.31344">
        <ele>38.5</ele>
        <time>2012-06-26T23:14:42Z</time>
      </trkpt>
      <trkpt lat="48.64092" lon="-2.30969">
        <ele>8.4</ele>
        <time>2012-06-26T23:16:02Z</time>
      </trkpt>
      <trkpt lat="48.64187" lon="-2.31067">
        <ele>26</ele>
        <time>2012-06-26T23:16:42Z</time>
      </trkpt>
      <trkpt lat="48.64546" lon="-2.30835">
        <ele>22.3</ele>
        <time>2012-06-26T23:18:02Z</time>
      </trkpt>
      <trkpt lat="48.64684" lon="-2.30562">
        <ele>14.2</ele>
        <time>2012-06-26T23:18:22Z</time>
      </trkpt>
      <trkpt lat="48.64791" lon="-2.30507">
        <ele>25.9</ele>
        <time>2012-06-26T23:18:42Z</time>
      </trkpt>
      <trkpt lat="48.64792" lon="-2.30408">
        <ele>17.9</ele>
        <time>2012-06-26T23:19:02Z</time>
      </trkpt>
      <trkpt lat="48.64927" lon="-2.3029">
        <ele>16.1</ele>
        <time>2012-06-26T23:19:22Z</time>
      </trkpt>
      <trkpt lat="48.6494" lon="-2.30149">
        <ele>17.4</ele>
        <time>2012-06-26T23:19:42Z</time>
      </trkpt>
      <trkpt lat="48.65152" lon="-2.30034">
        <ele>28.2</ele>
        <time>2012-06-26T23:21:02Z</time>
      </trkpt>
      <trkpt lat="48.65184" lon="-2.29852">
        <ele>49.4</ele>
        <time>2012-06-26T23:21:42Z</time>
      </trkpt>
      <trkpt lat="48.6555" lon="-2.29858">
        <ele>35.2</ele>
        <time>2012-06-26T23:22:42Z</time>
      </trkpt>
      <trkpt lat="48.65826" lon="-2.29541">
        <ele>27</ele>
        <time>2012-06-26T23:24:42Z</time>
      </trkpt>
      <trkpt lat="48.65838" lon="-2.29432">
        <ele>29.6</ele>
        <time>2012-06-26T23:25:22Z</time>
      </trkpt>
      <trkpt lat="48.66008" lon="-2.29518">
        <ele>50.7</ele>
        <time>2012-06-26T23:26:02Z</time>
      </trkpt>
      <trkpt lat="48.66315" lon="-2.28958">
        <ele>23.8</ele>
        <time>2012-06-26T23:28:02Z</time>
      </trkpt>
      <trkpt lat="48.66313" lon="-2.28726">
        <ele>13.9</ele>
        <time>2012-06-26T23:28:42Z</time>
      </trkpt>
      <trkpt lat="48.66517" lon="-2.28584">
        <ele>18.7</ele>
        <time>2012-06-26T23:29:42Z</time>
      </trkpt>
      <trkpt lat="48.66744" lon="-2.28746">
        <ele>29.7</ele>
        <time>2012-06-26T23:31:42Z</time>
      </trkpt>
      <trkpt lat="48.66754" lon="-2.28985">
        <ele>29.2</ele>
        <time>2012-06-26T23:33:02Z</time>
      </trkpt>
      <trkpt lat="48.66698" lon="-2.29805">
        <ele>57.9</ele>
        <time>2012-06-26T23:36:22Z</time>
      </trkpt>
      <trkpt lat="48.66797" lon="-2.30512">
        <ele>74.5</ele>
        <time>2012-06-26T23:38:22Z</time>
      </trkpt>
      <trkpt lat="48.66977" lon="-2.3114">
        <ele>56</ele>
        <time>2012-06-26T23:41:22Z</time>
      </trkpt>
      <trkpt lat="48.67278" lon="-2.31517">
        <ele>62.2</ele>
        <time>2012-06-26T23:45:02Z</time>
      </trkpt>
      <trkpt lat="48.67477" lon="-2.31576">
        <ele>57.4</ele>
        <time>2012-06-26T23:46:22Z</time>
      </trkpt>
      <trkpt lat="48.67971" lon="-2.31334">
        <ele>63.6</ele>
        <time>2012-06-26T23:49:42Z</time>
      </trkpt>
      <trkpt lat="48.68779" lon="-2.31756">
        <ele>54.8</ele>
        <time>2012-06-26T23:52:42Z</time>
      </trkpt>
      <trkpt lat="48.68579" lon="-2.31746">
        <ele>61.4</ele>
        <time>2012-06-26T23:53:42Z</time>
      </trkpt>
      <trkpt lat="48.68276" lon="-2.32054">
        <ele>59.4</ele>
        <time>2012-06-26T23:55:42Z</time>
      </trkpt>
      <trkpt lat="48.68271" lon="-2.32182">
        <ele>63.5</ele>
        <time>2012-06-26T23:56:22Z</time>
      </trkpt>
      <trkpt lat="48.68168" lon="-2.3225">
        <ele>56</ele>
        <time>2012-06-26T23:56:42Z</time>
      </trkpt>
      <trkpt lat="48.68075" lon="-2.32554">
        <ele>65</ele>
        <time>2012-06-26T23:57:42Z</time>
      </trkpt>
      <trkpt lat="48.67862" lon="-2.32471">
        <ele>59.1</ele>
        <time>2012-06-26T23:59:22Z</time>
      </trkpt>
      <trkpt lat="48.67683" lon="-2.32543">
        <ele>54.5</ele>
        <time>2012-06-27T00:00:42Z</time>
      </trkpt>
      <trkpt lat="48.67609" lon="-2.32722">
        <ele>51.5</ele>
        <time>2012-06-27T00:01:42Z</time>
      </trkpt>
      <trkpt lat="48.67338" lon="-2.3268">
        <ele>55.8</ele>
        <time>2012-06-27T00:03:02Z</time>
      </trkpt>
      <trkpt lat="48.66991" lon="-2.33176">
        <ele>50.9</ele>
        <time>2012-06-27T00:05:22Z</time>
      </trkpt>
      <trkpt lat="48.66989" lon="-2.33456">
        <ele>29.8</ele>
        <time>2012-06-27T00:06:02Z</time>
      </trkpt>
      <trkpt lat="48.66836" lon="-2.33704">
        <ele>35.1</ele>
        <time>2012-06-27T00:07:02Z</time>
      </trkpt>
      <trkpt lat="48.66805" lon="-2.34029">
        <ele>40.8</ele>
        <time>2012-06-27T00:09:22Z</time>
      </trkpt>
      <trkpt lat="48.66709" lon="-2.34191">
        <ele>40.4</ele>
        <time>2012-06-27T00:10:22Z</time>
      </trkpt>
      <trkpt lat="48.66497" lon="-2.34312">
        <ele>37.1</ele>
        <time>2012-06-27T00:12:02Z</time>
      </trkpt>
      <trkpt lat="48.66416" lon="-2.34628">
        <ele>11.3</ele>
        <time>2012-06-27T00:13:02Z</time>
      </trkpt>
      <trkpt lat="48.66478" lon="-2.34732">
        <ele>5</ele>
        <time>2012-06-27T00:14:02Z</time>
      </trkpt>
      <trkpt lat="48.66401" lon="-2.34871">
        <ele>11.7</ele>
        <time>2012-06-27T00:14:42Z</time>
      </trkpt>
      <trkpt lat="48.66354" lon="-2.34802">
        <ele>17.2</ele>
        <time>2012-06-27T00:15:02Z</time>
      </trkpt>
      <trkpt lat="48.66158" lon="-2.35001">
        <ele>9.2</ele>
        <time>2012-06-27T00:16:22Z</time>
      </trkpt>
      <trkpt lat="48.66128" lon="-2.34938">
        <ele>10.7</ele>
        <time>2012-06-27T00:16:42Z</time>
      </trkpt>
      <trkpt lat="48.66147" lon="-2.35228">
        <ele>3</ele>
        <time>2012-06-27T00:17:42Z</time>
      </trkpt>
      <trkpt lat="48.66093" lon="-2.35212">
        <ele>6.6</ele>
        <time>2012-06-27T00:18:02Z</time>
      </trkpt>
      <trkpt lat="48.65873" lon="-2.35646">
        <ele>10.4</ele>
        <time>2012-06-27T00:20:22Z</time>
      </trkpt>
      <trkpt lat="48.65664" lon="-2.35771">
        <ele>15.6</ele>
        <time>2012-06-27T00:22:02Z</time>
      </trkpt>
      <trkpt lat="48.65621" lon="-2.357">
        <ele>11.8</ele>
        <time>2012-06-27T00:22:42Z</time>
      </trkpt>
      <trkpt lat="48.65479" lon="-2.3592">
        <ele>19.6</ele>
        <time>2012-06-27T00:24:02Z</time>
      </trkpt>
      <trkpt lat="48.65412" lon="-2.35902">
        <ele>22.8</ele>
        <time>2012-06-27T00:24:22Z</time>
      </trkpt>
      <trkpt lat="48.65356" lon="-2.36328">
        <ele>20.8</ele>
        <time>2012-06-27T00:26:22Z</time>
      </trkpt>
      <trkpt lat="48.65599" lon="-2.36839">
        <ele>39.3</ele>
        <time>2012-06-27T00:30:42Z</time>
      </trkpt>
      <trkpt lat="48.65749" lon="-2.36971">
        <ele>26.3</ele>
        <time>2012-06-27T00:32:22Z</time>
      </trkpt>
      <trkpt lat="48.65634" lon="-2.3699">
        <ele>10.4</ele>
        <time>2012-06-27T00:33:22Z</time>
      </trkpt>
      <trkpt lat="48.6563" lon="-2.37311">
        <ele>13</ele>
        <time>2012-06-27T00:35:22Z</time>
      </trkpt>
      <trkpt lat="48.65362" lon="-2.37385">
        <ele>10.2</ele>
        <time>2012-06-27T00:37:02Z</time>
      </trkpt>
      <trkpt lat="48.65289" lon="-2.37285">
        <ele>17.6</ele>
        <time>2012-06-27T00:37:42Z</time>
      </trkpt>
      <trkpt lat="48.65058" lon="-2.37344">
        <ele>35.3</ele>
        <time>2012-06-27T00:39:02Z</time>
      </trkpt>
      <trkpt lat="48.64664" lon="-2.38287">
        <ele>54.1</ele>
        <time>2012-06-27T00:40:42Z</time>
      </trkpt>
      <trkpt lat="48.64442" lon="-2.39155">
        <ele>58.9</ele>
        <time>2012-06-27T00:42:22Z</time>
      </trkpt>
      <trkpt lat="48.64524" lon="-2.39293">
        <ele>10.7</ele>
        <time>2012-06-27T00:43:02Z</time>
      </trkpt>
      <trkpt lat="48.64343" lon="-2.39393">
        <ele>12.7</ele>
        <time>2012-06-27T00:44:02Z</time>
      </trkpt>
      <trkpt lat="48.64135" lon="-2.39984">
        <ele>18.1</ele>
        <time>2012-06-27T00:45:02Z</time>
      </trkpt>
      <trkpt lat="48.64089" lon="-2.41436">
        <ele>14.2</ele>
        <time>2012-06-27T00:46:02Z</time>
      </trkpt>
      <trkpt lat="48.64002" lon="-2.41437">
        <ele>6.5</ele>
        <time>2012-06-27T00:46:42Z</time>
      </trkpt>
      <trkpt lat="48.63894" lon="-2.41116">
        <ele>7.9</ele>
        <time>2012-06-27T00:47:42Z</time>
      </trkpt>
      <trkpt lat="48.6359" lon="-2.40862">
        <ele>7.9</ele>
        <time>2012-06-27T00:48:42Z</time>
      </trkpt>
      <trkpt lat="48.63219" lon="-2.4123">
        <ele>9.1</ele>
        <time>2012-06-27T00:49:42Z</time>
      </trkpt>
      <trkpt lat="48.63205" lon="-2.41536">
        <ele>8.2</ele>
        <time>2012-06-27T00:50:22Z</time>
      </trkpt>
      <trkpt lat="48.6337" lon="-2.42109">
        <ele>14.6</ele>
        <time>2012-06-27T00:51:02Z</time>
      </trkpt>
      <trkpt lat="48.63642" lon="-2.41685">
        <ele>9.3</ele>
        <time>2012-06-27T00:52:22Z</time>
      </trkpt>
      <trkpt lat="48.63813" lon="-2.42078">
        <ele>35.4</ele>
        <time>2012-06-27T00:53:22Z</time>
      </trkpt>
      <trkpt lat="48.64082" lon="-2.42269">
        <ele>43.5</ele>
        <time>2012-06-27T00:55:02Z</time>
      </trkpt>
      <trkpt lat="48.64098" lon="-2.42478">
        <ele>48.1</ele>
        <time>2012-06-27T00:56:02Z</time>
      </trkpt>
      <trkpt lat="48.64702" lon="-2.42147">
        <ele>9.7</ele>
        <time>2012-06-27T00:58:02Z</time>
      </trkpt>
      <trkpt lat="48.64895" lon="-2.43136">
        <ele>11</ele>
        <time>2012-06-27T01:00:02Z</time>
      </trkpt>
      <trkpt lat="48.65266" lon="-2.43797">
        <ele>5.6</ele>
        <time>2012-06-27T01:01:02Z</time>
      </trkpt>
      <trkpt lat="48.64747" lon="-2.45393">
        <ele>18.4</ele>
        <time>2012-06-27T01:03:42Z</time>
      </trkpt>
      <trkpt lat="48.64818" lon="-2.45944">
        <ele>22.7</ele>
        <time>2012-06-27T01:06:02Z</time>
      </trkpt>
      <trkpt lat="48.64732" lon="-2.46107">
        <ele>12.6</ele>
        <time>2012-06-27T01:06:42Z</time>
      </trkpt>
      <trkpt lat="48.64746" lon="-2.46297">
        <ele>17.9</ele>
        <time>2012-06-27T01:07:22Z</time>
      </trkpt>
      <trkpt lat="48.64686" lon="-2.46355">
        <ele>40.2</ele>
        <time>2012-06-27T01:07:42Z</time>
      </trkpt>
      <trkpt lat="48.64774" lon="-2.46442">
        <ele>42</ele>
        <time>2012-06-27T01:08:42Z</time>
      </trkpt>
      <trkpt lat="48.64816" lon="-2.46652">
        <ele>43.6</ele>
        <time>2012-06-27T01:09:42Z</time>
      </trkpt>
      <trkpt lat="48.64719" lon="-2.46991">
        <ele>39.8</ele>
        <time>2012-06-27T01:11:02Z</time>
      </trkpt>
      <trkpt lat="48.64237" lon="-2.47501">
        <ele>46.8</ele>
        <time>2012-06-27T01:14:22Z</time>
      </trkpt>
      <trkpt lat="48.64298" lon="-2.47551">
        <ele>33.6</ele>
        <time>2012-06-27T01:14:42Z</time>
      </trkpt>
      <trkpt lat="48.64262" lon="-2.47598">
        <ele>37.4</ele>
        <time>2012-06-27T01:15:02Z</time>
      </trkpt>
      <trkpt lat="48.64321" lon="-2.47589">
        <ele>44.3</ele>
        <time>2012-06-27T01:16:02Z</time>
      </trkpt>
      <trkpt lat="48.64387" lon="-2.47794">
        <ele>48.9</ele>
        <time>2012-06-27T01:17:02Z</time>
      </trkpt>
      <trkpt lat="48.6434" lon="-2.48183">
        <ele>37.3</ele>
        <time>2012-06-27T01:18:42Z</time>
      </trkpt>
      <trkpt lat="48.64492" lon="-2.48505">
        <ele>43.6</ele>
        <time>2012-06-27T01:20:22Z</time>
      </trkpt>
      <trkpt lat="48.64482" lon="-2.48626">
        <ele>44.5</ele>
        <time>2012-06-27T01:20:42Z</time>
      </trkpt>
      <trkpt lat="48.64276" lon="-2.48598">
        <ele>42.2</ele>
        <time>2012-06-27T01:22:42Z</time>
      </trkpt>
      <trkpt lat="48.64216" lon="-2.4836">
        <ele>47.8</ele>
        <time>2012-06-27T01:23:42Z</time>
      </trkpt>
      <trkpt lat="48.64011" lon="-2.48179">
        <ele>55.4</ele>
        <time>2012-06-27T01:24:22Z</time>
      </trkpt>
      <trkpt lat="48.63841" lon="-2.48184">
        <ele>43.9</ele>
        <time>2012-06-27T01:25:42Z</time>
      </trkpt>
      <trkpt lat="48.63837" lon="-2.48286">
        <ele>31.9</ele>
        <time>2012-06-27T01:26:22Z</time>
      </trkpt>
      <trkpt lat="48.63736" lon="-2.47877">
        <ele>36.4</ele>
        <time>2012-06-27T01:27:42Z</time>
      </trkpt>
      <trkpt lat="48.63699" lon="-2.47298">
        <ele>49</ele>
        <time>2012-06-27T01:29:22Z</time>
      </trkpt>
      <trkpt lat="48.63761" lon="-2.47347">
        <ele>58.8</ele>
        <time>2012-06-27T01:30:02Z</time>
      </trkpt>
      <trkpt lat="48.63968" lon="-2.4689">
        <ele>57.1</ele>
        <time>2012-06-27T01:30:22Z</time>
      </trkpt>
      <trkpt lat="48.63927" lon="-2.46594">
        <ele>51.3</ele>
        <time>2012-06-27T01:31:02Z</time>
      </trkpt>
      <trkpt lat="48.63908" lon="-2.46761">
        <ele>41.1</ele>
        <time>2012-06-27T01:31:42Z</time>
      </trkpt>
      <trkpt lat="48.63728" lon="-2.46732">
        <ele>21.8</ele>
        <time>2012-06-27T01:32:22Z</time>
      </trkpt>
      <trkpt lat="48.63659" lon="-2.4686">
        <ele>7.7</ele>
        <time>2012-06-27T01:33:22Z</time>
      </trkpt>
      <trkpt lat="48.63561" lon="-2.46703">
        <ele>9.1</ele>
        <time>2012-06-27T01:34:02Z</time>
      </trkpt>
      <trkpt lat="48.63197" lon="-2.46657">
        <ele>9</ele>
        <time>2012-06-27T01:35:02Z</time>
      </trkpt>
      <trkpt lat="48.62926" lon="-2.46848">
        <ele>9.4</ele>
        <time>2012-06-27T01:35:42Z</time>
      </trkpt>
      <trkpt lat="48.62863" lon="-2.47145">
        <ele>14.7</ele>
        <time>2012-06-27T01:37:02Z</time>
      </trkpt>
      <trkpt lat="48.62821" lon="-2.47047">
        <ele>19.6</ele>
        <time>2012-06-27T01:37:22Z</time>
      </trkpt>
      <trkpt lat="48.62773" lon="-2.47219">
        <ele>24.8</ele>
        <time>2012-06-27T01:38:02Z</time>
      </trkpt>
      <trkpt lat="48.62634" lon="-2.47276">
        <ele>34.2</ele>
        <time>2012-06-27T01:38:42Z</time>
      </trkpt>
      <trkpt lat="48.62512" lon="-2.47092">
        <ele>34.6</ele>
        <time>2012-06-27T01:39:22Z</time>
      </trkpt>
      <trkpt lat="48.622" lon="-2.47292">
        <ele>8.9</ele>
        <time>2012-06-27T01:41:02Z</time>
      </trkpt>
      <trkpt lat="48.61587" lon="-2.48347">
        <ele>8</ele>
        <time>2012-06-27T01:42:02Z</time>
      </trkpt>
      <trkpt lat="48.61446" lon="-2.48979">
        <ele>8.5</ele>
        <time>2012-06-27T01:43:42Z</time>
      </trkpt>
      <trkpt lat="48.61278" lon="-2.4907">
        <ele>16.3</ele>
        <time>2012-06-27T01:44:22Z</time>
      </trkpt>
      <trkpt lat="48.61216" lon="-2.49018">
        <ele>28.1</ele>
        <time>2012-06-27T01:44:42Z</time>
      </trkpt>
      <trkpt lat="48.60924" lon="-2.49388">
        <ele>7.5</ele>
        <time>2012-06-27T01:47:02Z</time>
      </trkpt>
      <trkpt lat="48.60706" lon="-2.49875">
        <ele>8.3</ele>
        <time>2012-06-27T01:48:02Z</time>
      </trkpt>
      <trkpt lat="48.60397" lon="-2.50295">
        <ele>36.9</ele>
        <time>2012-06-27T01:49:02Z</time>
      </trkpt>
      <trkpt lat="48.60503" lon="-2.50494">
        <ele>7</ele>
        <time>2012-06-27T01:50:02Z</time>
      </trkpt>
      <trkpt lat="48.6001" lon="-2.52084">
        <ele>19.6</ele>
        <time>2012-06-27T01:50:42Z</time>
      </trkpt>
      <trkpt lat="48.60032" lon="-2.5217">
        <ele>7.2</ele>
        <time>2012-06-27T01:51:02Z</time>
      </trkpt>
      <trkpt lat="48.59614" lon="-2.53632">
        <ele>26.6</ele>
        <time>2012-06-27T01:53:22Z</time>
      </trkpt>
      <trkpt lat="48.59666" lon="-2.53734">
        <ele>12.1</ele>
        <time>2012-06-27T01:54:22Z</time>
      </trkpt>
      <trkpt lat="48.59722" lon="-2.54769">
        <ele>43.1</ele>
        <time>2012-06-27T01:59:22Z</time>
      </trkpt>
      <trkpt lat="48.59926" lon="-2.55309">
        <ele>36</ele>
        <time>2012-06-27T02:03:22Z</time>
      </trkpt>
      <trkpt lat="48.59774" lon="-2.55489">
        <ele>8.6</ele>
        <time>2012-06-27T02:06:22Z</time>
      </trkpt>
      <trkpt lat="48.59632" lon="-2.55103">
        <ele>9.5</ele>
        <time>2012-06-27T02:07:42Z</time>
      </trkpt>
      <trkpt lat="48.59285" lon="-2.55164">
        <ele>9.2</ele>
        <time>2012-06-27T02:09:02Z</time>
      </trkpt>
      <trkpt lat="48.59037" lon="-2.55397">
        <ele>7.6</ele>
        <time>2012-06-27T02:09:42Z</time>
      </trkpt>
      <trkpt lat="48.58411" lon="-2.56327">
        <ele>11</ele>
        <time>2012-06-27T02:10:42Z</time>
      </trkpt>
      <trkpt lat="48.5844" lon="-2.56564">
        <ele>20.1</ele>
        <time>2012-06-27T02:12:02Z</time>
      </trkpt>
      <trkpt lat="48.58312" lon="-2.56532">
        <ele>23.6</ele>
        <time>2012-06-27T02:13:42Z</time>
      </trkpt>
      <trkpt lat="48.58235" lon="-2.56782">
        <ele>22.2</ele>
        <time>2012-06-27T02:15:02Z</time>
      </trkpt>
      <trkpt lat="48.58322" lon="-2.56926">
        <ele>29.2</ele>
        <time>2012-06-27T02:16:22Z</time>
      </trkpt>
      <trkpt lat="48.58073" lon="-2.56966">
        <ele>14.3</ele>
        <time>2012-06-27T02:17:42Z</time>
      </trkpt>
      <trkpt lat="48.58016" lon="-2.56872">
        <ele>19.5</ele>
        <time>2012-06-27T02:18:42Z</time>
      </trkpt>
      <trkpt lat="48.57894" lon="-2.56933">
        <ele>10.4</ele>
        <time>2012-06-27T02:19:42Z</time>
      </trkpt>
      <trkpt lat="48.57806" lon="-2.56645">
        <ele>6.8</ele>
        <time>2012-06-27T02:20:42Z</time>
      </trkpt>
      <trkpt lat="48.57902" lon="-2.56297">
        <ele>5.8</ele>
        <time>2012-06-27T02:21:22Z</time>
      </trkpt>
      <trkpt lat="48.57993" lon="-2.55985">
        <ele>8.2</ele>
        <time>2012-06-26T18:25:41Z</time>
      </trkpt>
      <trkpt lat="48.57992" lon="-2.56053">
        <ele>8.2</ele>
        <time>2012-06-26T18:26:01Z</time>
      </trkpt>
      <trkpt lat="48.57982" lon="-2.56207">
        <ele>8.3</ele>
        <time>2012-06-26T18:26:21Z</time>
      </trkpt>
      <trkpt lat="48.57955" lon="-2.5627">
        <ele>8.7</ele>
        <time>2012-06-26T18:26:41Z</time>
      </trkpt>
      <trkpt lat="48.57929" lon="-2.56289">
        <ele>7.2</ele>
        <time>2012-06-26T18:27:01Z</time>
      </trkpt>
      <trkpt lat="48.57875" lon="-2.56287">
        <ele>5.8</ele>
        <time>2012-06-26T18:27:21Z</time>
      </trkpt>
      <trkpt lat="48.57835" lon="-2.56319">
        <ele>5.4</ele>
        <time>2012-06-26T18:27:41Z</time>
      </trkpt>
      <trkpt lat="48.57795" lon="-2.56362">
        <ele>5.7</ele>
        <time>2012-06-26T18:28:01Z</time>
      </trkpt>
      <trkpt lat="48.57758" lon="-2.5643">
        <ele>4.3</ele>
        <time>2012-06-26T18:28:21Z</time>
      </trkpt>
      <trkpt lat="48.5763" lon="-2.56355">
        <ele>7</ele>
        <time>2012-06-26T18:28:41Z</time>
      </trkpt>
      <trkpt lat="48.576" lon="-2.56366">
        <ele>6.5</ele>
        <time>2012-06-26T18:29:01Z</time>
      </trkpt>
      <trkpt lat="48.57546" lon="-2.56595">
        <ele>6.8</ele>
        <time>2012-06-26T18:29:21Z</time>
      </trkpt>
      <trkpt lat="48.57571" lon="-2.56675">
        <ele>5.9</ele>
        <time>2012-06-26T18:29:41Z</time>
      </trkpt>
      <trkpt lat="48.57649" lon="-2.56646">
        <ele>6.8</ele>
        <time>2012-06-26T18:30:01Z</time>
      </trkpt>
      <trkpt lat="48.57687" lon="-2.56687">
        <ele>10.2</ele>
        <time>2012-06-26T18:30:21Z</time>
      </trkpt>
      <trkpt lat="48.57654" lon="-2.56714">
        <ele>12.4</ele>
        <time>2012-06-26T18:30:41Z</time>
      </trkpt>
      <trkpt lat="48.57641" lon="-2.56761">
        <ele>17.1</ele>
        <time>2012-06-26T18:31:01Z</time>
      </trkpt>
      <trkpt lat="48.57626" lon="-2.56773">
        <ele>18.4</ele>
        <time>2012-06-26T18:31:21Z</time>
      </trkpt>
      <trkpt lat="48.57653" lon="-2.56785">
        <ele>20.6</ele>
        <time>2012-06-26T18:31:41Z</time>
      </trkpt>
      <trkpt lat="48.57688" lon="-2.56844">
        <ele>25.4</ele>
        <time>2012-06-26T18:32:01Z</time>
      </trkpt>
      <trkpt lat="48.57726" lon="-2.56808">
        <ele>22.1</ele>
        <time>2012-06-26T18:32:21Z</time>
      </trkpt>
      <trkpt lat="48.57738" lon="-2.56822">
        <ele>23.2</ele>
        <time>2012-06-26T18:32:41Z</time>
      </trkpt>
      <trkpt lat="48.57754" lon="-2.56821">
        <ele>21</ele>
        <time>2012-06-26T18:33:01Z</time>
      </trkpt>
      <trkpt lat="48.57773" lon="-2.56881">
        <ele>21.7</ele>
        <time>2012-06-26T18:33:21Z</time>
      </trkpt>
      <trkpt lat="48.5776" lon="-2.56952">
        <ele>21.1</ele>
        <time>2012-06-26T18:33:41Z</time>
      </trkpt>
      <trkpt lat="48.57743" lon="-2.56985">
        <ele>26.6</ele>
        <time>2012-06-26T18:34:01Z</time>
      </trkpt>
      <trkpt lat="48.57771" lon="-2.57054">
        <ele>24.6</ele>
        <time>2012-06-26T18:34:21Z</time>
      </trkpt>
      <trkpt lat="48.57794" lon="-2.5707">
        <ele>24.9</ele>
        <time>2012-06-26T18:34:41Z</time>
      </trkpt>
      <trkpt lat="48.57812" lon="-2.57043">
        <ele>13.9</ele>
        <time>2012-06-26T18:35:01Z</time>
      </trkpt>
      <trkpt lat="48.57826" lon="-2.57053">
        <ele>14.8</ele>
        <time>2012-06-26T18:35:21Z</time>
      </trkpt>
      <trkpt lat="48.57822" lon="-2.57101">
        <ele>25.2</ele>
        <time>2012-06-26T18:35:41Z</time>
      </trkpt>
      <trkpt lat="48.57853" lon="-2.5711">
        <ele>19.2</ele>
        <time>2012-06-26T18:36:01Z</time>
      </trkpt>
      <trkpt lat="48.57875" lon="-2.5714">
        <ele>14.4</ele>
        <time>2012-06-26T18:36:21Z</time>
      </trkpt>
      <trkpt lat="48.57862" lon="-2.57165">
        <ele>19.6</ele>
        <time>2012-06-26T18:36:41Z</time>
      </trkpt>
      <trkpt lat="48.57808" lon="-2.57195">
        <ele>25.4</ele>
        <time>2012-06-26T18:37:01Z</time>
      </trkpt>
      <trkpt lat="48.57753" lon="-2.57316">
        <ele>17.5</ele>
        <time>2012-06-26T18:37:21Z</time>
      </trkpt>
      <trkpt lat="48.57735" lon="-2.57308">
        <ele>20.4</ele>
        <time>2012-06-26T18:37:41Z</time>
      </trkpt>
      <trkpt lat="48.57729" lon="-2.57281">
        <ele>26.8</ele>
        <time>2012-06-26T18:38:01Z</time>
      </trkpt>
      <trkpt lat="48.57703" lon="-2.57292">
        <ele>23.3</ele>
        <time>2012-06-26T18:38:21Z</time>
      </trkpt>
      <trkpt lat="48.57664" lon="-2.57338">
        <ele>19.9</ele>
        <time>2012-06-26T18:38:41Z</time>
      </trkpt>
      <trkpt lat="48.57652" lon="-2.57426">
        <ele>15.6</ele>
        <time>2012-06-26T18:39:01Z</time>
      </trkpt>
      <trkpt lat="48.57636" lon="-2.57471">
        <ele>17.8</ele>
        <time>2012-06-26T18:39:21Z</time>
      </trkpt>
      <trkpt lat="48.57577" lon="-2.57503">
        <ele>11.9</ele>
        <time>2012-06-26T18:39:41Z</time>
      </trkpt>
      <trkpt lat="48.57504" lon="-2.57508">
        <ele>18.9</ele>
        <time>2012-06-26T18:40:01Z</time>
      </trkpt>
      <trkpt lat="48.57483" lon="-2.57524">
        <ele>22.3</ele>
        <time>2012-06-26T18:40:21Z</time>
      </trkpt>
      <trkpt lat="48.57481" lon="-2.5756">
        <ele>21.3</ele>
        <time>2012-06-26T18:40:41Z</time>
      </trkpt>
      <trkpt lat="48.57441" lon="-2.57579">
        <ele>26.9</ele>
        <time>2012-06-26T18:41:01Z</time>
      </trkpt>
      <trkpt lat="48.57417" lon="-2.57603">
        <ele>27.4</ele>
        <time>2012-06-26T18:41:21Z</time>
      </trkpt>
      <trkpt lat="48.57394" lon="-2.57612">
        <ele>31.5</ele>
        <time>2012-06-26T18:41:41Z</time>
      </trkpt>
      <trkpt lat="48.57375" lon="-2.57648">
        <ele>30</ele>
        <time>2012-06-26T18:42:01Z</time>
      </trkpt>
      <trkpt lat="48.57382" lon="-2.57684">
        <ele>28.9</ele>
        <time>2012-06-26T18:42:21Z</time>
      </trkpt>
      <trkpt lat="48.57313" lon="-2.57747">
        <ele>32.8</ele>
        <time>2012-06-26T18:42:41Z</time>
      </trkpt>
      <trkpt lat="48.57317" lon="-2.57765">
        <ele>30.3</ele>
        <time>2012-06-26T18:43:01Z</time>
      </trkpt>
      <trkpt lat="48.57246" lon="-2.57927">
        <ele>40.1</ele>
        <time>2012-06-26T18:43:21Z</time>
      </trkpt>
      <trkpt lat="48.57215" lon="-2.57958">
        <ele>40.4</ele>
        <time>2012-06-26T18:43:41Z</time>
      </trkpt>
      <trkpt lat="48.57173" lon="-2.58035">
        <ele>31.3</ele>
        <time>2012-06-26T18:44:01Z</time>
      </trkpt>
      <trkpt lat="48.5707" lon="-2.57931">
        <ele>10.1</ele>
        <time>2012-06-26T18:44:21Z</time>
      </trkpt>
      <trkpt lat="48.57065" lon="-2.57909">
        <ele>11.8</ele>
        <time>2012-06-26T18:44:41Z</time>
      </trkpt>
      <trkpt lat="48.56934" lon="-2.57957">
        <ele>24.5</ele>
        <time>2012-06-26T18:45:01Z</time>
      </trkpt>
      <trkpt lat="48.5689" lon="-2.57951">
        <ele>31.2</ele>
        <time>2012-06-26T18:45:21Z</time>
      </trkpt>
      <trkpt lat="48.56812" lon="-2.57968">
        <ele>34.9</ele>
        <time>2012-06-26T18:45:41Z</time>
      </trkpt>
      <trkpt lat="48.56797" lon="-2.58192">
        <ele>27.2</ele>
        <time>2012-06-26T18:46:01Z</time>
      </trkpt>
      <trkpt lat="48.56822" lon="-2.58184">
        <ele>27.7</ele>
        <time>2012-06-26T18:46:21Z</time>
      </trkpt>
      <trkpt lat="48.5683" lon="-2.58195">
        <ele>29.7</ele>
        <time>2012-06-26T18:46:41Z</time>
      </trkpt>
      <trkpt lat="48.5686" lon="-2.58158">
        <ele>31.5</ele>
        <time>2012-06-26T18:47:01Z</time>
      </trkpt>
      <trkpt lat="48.56906" lon="-2.58166">
        <ele>29.3</ele>
        <time>2012-06-26T18:47:21Z</time>
      </trkpt>
      <trkpt lat="48.56918" lon="-2.58206">
        <ele>28</ele>
        <time>2012-06-26T18:47:41Z</time>
      </trkpt>
      <trkpt lat="48.56914" lon="-2.5824">
        <ele>28.3</ele>
        <time>2012-06-26T18:48:01Z</time>
      </trkpt>
      <trkpt lat="48.56872" lon="-2.58332">
        <ele>37</ele>
        <time>2012-06-26T18:48:21Z</time>
      </trkpt>
      <trkpt lat="48.56861" lon="-2.58424">
        <ele>32.4</ele>
        <time>2012-06-26T18:48:41Z</time>
      </trkpt>
      <trkpt lat="48.56836" lon="-2.58448">
        <ele>28.7</ele>
        <time>2012-06-26T18:49:01Z</time>
      </trkpt>
      <trkpt lat="48.56796" lon="-2.58455">
        <ele>31.6</ele>
        <time>2012-06-26T18:49:21Z</time>
      </trkpt>
      <trkpt lat="48.56741" lon="-2.58553">
        <ele>28.2</ele>
        <time>2012-06-26T18:49:41Z</time>
      </trkpt>
      <trkpt lat="48.56738" lon="-2.58583">
        <ele>29.5</ele>
        <time>2012-06-26T18:50:01Z</time>
      </trkpt>
      <trkpt lat="48.567" lon="-2.58653">
        <ele>33.2</ele>
        <time>2012-06-26T18:50:21Z</time>
      </trkpt>
      <trkpt lat="48.5665" lon="-2.5868">
        <ele>34.4</ele>
        <time>2012-06-26T18:50:41Z</time>
      </trkpt>
      <trkpt lat="48.56556" lon="-2.58811">
        <ele>23.9</ele>
        <time>2012-06-26T18:51:01Z</time>
      </trkpt>
      <trkpt lat="48.5655" lon="-2.58832">
        <ele>19.6</ele>
        <time>2012-06-26T18:51:21Z</time>
      </trkpt>
      <trkpt lat="48.5653" lon="-2.58833">
        <ele>17.3</ele>
        <time>2012-06-26T18:51:41Z</time>
      </trkpt>
      <trkpt lat="48.56508" lon="-2.5877">
        <ele>22.3</ele>
        <time>2012-06-26T18:52:01Z</time>
      </trkpt>
      <trkpt lat="48.565" lon="-2.58796">
        <ele>18.7</ele>
        <time>2012-06-26T18:52:21Z</time>
      </trkpt>
      <trkpt lat="48.56395" lon="-2.5884">
        <ele>26.3</ele>
        <time>2012-06-26T18:52:41Z</time>
      </trkpt>
      <trkpt lat="48.56358" lon="-2.5882">
        <ele>36.4</ele>
        <time>2012-06-26T18:53:01Z</time>
      </trkpt>
      <trkpt lat="48.56376" lon="-2.58808">
        <ele>40.1</ele>
        <time>2012-06-26T18:53:21Z</time>
      </trkpt>
      <trkpt lat="48.56359" lon="-2.58794">
        <ele>43.8</ele>
        <time>2012-06-26T18:53:41Z</time>
      </trkpt>
      <trkpt lat="48.56284" lon="-2.58889">
        <ele>40.4</ele>
        <time>2012-06-26T18:54:01Z</time>
      </trkpt>
      <trkpt lat="48.56269" lon="-2.58932">
        <ele>36.2</ele>
        <time>2012-06-26T18:54:21Z</time>
      </trkpt>
      <trkpt lat="48.5625" lon="-2.5892">
        <ele>43</ele>
        <time>2012-06-26T18:54:41Z</time>
      </trkpt>
      <trkpt lat="48.56225" lon="-2.58924">
        <ele>48.5</ele>
        <time>2012-06-26T18:55:01Z</time>
      </trkpt>
      <trkpt lat="48.56188" lon="-2.58973">
        <ele>50.6</ele>
        <time>2012-06-26T18:55:21Z</time>
      </trkpt>
      <trkpt lat="48.56183" lon="-2.59001">
        <ele>47.7</ele>
        <time>2012-06-26T18:55:41Z</time>
      </trkpt>
      <trkpt lat="48.56191" lon="-2.59028">
        <ele>43.1</ele>
        <time>2012-06-26T18:56:01Z</time>
      </trkpt>
      <trkpt lat="48.5618" lon="-2.5912">
        <ele>34.8</ele>
        <time>2012-06-26T18:56:21Z</time>
      </trkpt>
      <trkpt lat="48.56185" lon="-2.59152">
        <ele>31.2</ele>
        <time>2012-06-26T18:56:41Z</time>
      </trkpt>
      <trkpt lat="48.56172" lon="-2.59172">
        <ele>30.3</ele>
        <time>2012-06-26T18:57:01Z</time>
      </trkpt>
      <trkpt lat="48.56071" lon="-2.59204">
        <ele>39.1</ele>
        <time>2012-06-26T18:57:21Z</time>
      </trkpt>
      <trkpt lat="48.56009" lon="-2.59284">
        <ele>38.1</ele>
        <time>2012-06-26T18:57:41Z</time>
      </trkpt>
      <trkpt lat="48.55989" lon="-2.5928">
        <ele>41.7</ele>
        <time>2012-06-26T18:58:01Z</time>
      </trkpt>
      <trkpt lat="48.55978" lon="-2.59298">
        <ele>41</ele>
        <time>2012-06-26T18:58:21Z</time>
      </trkpt>
      <trkpt lat="48.56013" lon="-2.59454">
        <ele>35.3</ele>
        <time>2012-06-26T18:58:41Z</time>
      </trkpt>
      <trkpt lat="48.56013" lon="-2.59499">
        <ele>28.3</ele>
        <time>2012-06-26T18:59:01Z</time>
      </trkpt>
      <trkpt lat="48.56" lon="-2.5955">
        <ele>31.9</ele>
        <time>2012-06-26T18:59:21Z</time>
      </trkpt>
      <trkpt lat="48.55897" lon="-2.59651">
        <ele>19</ele>
        <time>2012-06-26T18:59:41Z</time>
      </trkpt>
      <trkpt lat="48.55899" lon="-2.59692">
        <ele>21.4</ele>
        <time>2012-06-26T19:00:01Z</time>
      </trkpt>
      <trkpt lat="48.55883" lon="-2.59708">
        <ele>21.1</ele>
        <time>2012-06-26T19:00:21Z</time>
      </trkpt>
      <trkpt lat="48.55863" lon="-2.59694">
        <ele>31.7</ele>
        <time>2012-06-26T19:00:41Z</time>
      </trkpt>
      <trkpt lat="48.5583" lon="-2.5973">
        <ele>38.3</ele>
        <time>2012-06-26T19:01:01Z</time>
      </trkpt>
      <trkpt lat="48.55814" lon="-2.59729">
        <ele>41.2</ele>
        <time>2012-06-26T19:01:21Z</time>
      </trkpt>
      <trkpt lat="48.55768" lon="-2.59829">
        <ele>42.7</ele>
        <time>2012-06-26T19:01:41Z</time>
      </trkpt>
      <trkpt lat="48.55749" lon="-2.59828">
        <ele>42.9</ele>
        <time>2012-06-26T19:02:01Z</time>
      </trkpt>
      <trkpt lat="48.5572" lon="-2.59868">
        <ele>39.4</ele>
        <time>2012-06-26T19:02:21Z</time>
      </trkpt>
      <trkpt lat="48.55677" lon="-2.59891">
        <ele>35.9</ele>
        <time>2012-06-26T19:02:41Z</time>
      </trkpt>
      <trkpt lat="48.55662" lon="-2.59913">
        <ele>33.2</ele>
        <time>2012-06-26T19:03:01Z</time>
      </trkpt>
      <trkpt lat="48.55573" lon="-2.59913">
        <ele>38.6</ele>
        <time>2012-06-26T19:03:21Z</time>
      </trkpt>
      <trkpt lat="48.55551" lon="-2.59937">
        <ele>39.7</ele>
        <time>2012-06-26T19:03:41Z</time>
      </trkpt>
      <trkpt lat="48.55551" lon="-2.59951">
        <ele>38.3</ele>
        <time>2012-06-26T19:04:01Z</time>
      </trkpt>
      <trkpt lat="48.55487" lon="-2.60001">
        <ele>39.2</ele>
        <time>2012-06-26T19:04:21Z</time>
      </trkpt>
      <trkpt lat="48.55461" lon="-2.60063">
        <ele>35.6</ele>
        <time>2012-06-26T19:04:41Z</time>
      </trkpt>
      <trkpt lat="48.55394" lon="-2.601">
        <ele>31</ele>
        <time>2012-06-26T19:05:01Z</time>
      </trkpt>
      <trkpt lat="48.55346" lon="-2.60162">
        <ele>39.7</ele>
        <time>2012-06-26T19:05:21Z</time>
      </trkpt>
      <trkpt lat="48.55317" lon="-2.60299">
        <ele>35.3</ele>
        <time>2012-06-26T19:05:41Z</time>
      </trkpt>
      <trkpt lat="48.553" lon="-2.60348">
        <ele>36.3</ele>
        <time>2012-06-26T19:06:01Z</time>
      </trkpt>
      <trkpt lat="48.55299" lon="-2.60406">
        <ele>28.7</ele>
        <time>2012-06-26T19:06:21Z</time>
      </trkpt>
      <trkpt lat="48.55208" lon="-2.60468">
        <ele>32.8</ele>
        <time>2012-06-26T19:06:41Z</time>
      </trkpt>
      <trkpt lat="48.55193" lon="-2.60519">
        <ele>28.7</ele>
        <time>2012-06-26T19:07:01Z</time>
      </trkpt>
      <trkpt lat="48.55148" lon="-2.60534">
        <ele>27.1</ele>
        <time>2012-06-26T19:07:21Z</time>
      </trkpt>
      <trkpt lat="48.55121" lon="-2.60499">
        <ele>31.8</ele>
        <time>2012-06-26T19:07:41Z</time>
      </trkpt>
      <trkpt lat="48.55102" lon="-2.60443">
        <ele>26.3</ele>
        <time>2012-06-26T19:08:01Z</time>
      </trkpt>
      <trkpt lat="48.55106" lon="-2.60395">
        <ele>32.4</ele>
        <time>2012-06-26T19:08:21Z</time>
      </trkpt>
      <trkpt lat="48.55088" lon="-2.60336">
        <ele>27.1</ele>
        <time>2012-06-26T19:08:41Z</time>
      </trkpt>
      <trkpt lat="48.55068" lon="-2.60361">
        <ele>22</ele>
        <time>2012-06-26T19:09:01Z</time>
      </trkpt>
      <trkpt lat="48.55063" lon="-2.60393">
        <ele>17.8</ele>
        <time>2012-06-26T19:09:21Z</time>
      </trkpt>
      <trkpt lat="48.55046" lon="-2.6042">
        <ele>14.8</ele>
        <time>2012-06-26T19:09:41Z</time>
      </trkpt>
      <trkpt lat="48.55012" lon="-2.60434">
        <ele>16.1</ele>
        <time>2012-06-26T19:10:01Z</time>
      </trkpt>
      <trkpt lat="48.55013" lon="-2.60454">
        <ele>17.6</ele>
        <time>2012-06-26T19:10:21Z</time>
      </trkpt>
      <trkpt lat="48.55031" lon="-2.60477">
        <ele>19</ele>
        <time>2012-06-26T19:10:41Z</time>
      </trkpt>
      <trkpt lat="48.55035" lon="-2.60577">
        <ele>27</ele>
        <time>2012-06-26T19:11:01Z</time>
      </trkpt>
      <trkpt lat="48.55058" lon="-2.6069">
        <ele>29.2</ele>
        <time>2012-06-26T19:11:21Z</time>
      </trkpt>
      <trkpt lat="48.55052" lon="-2.60725">
        <ele>30.7</ele>
        <time>2012-06-26T19:11:41Z</time>
      </trkpt>
      <trkpt lat="48.55025" lon="-2.60769">
        <ele>35.7</ele>
        <time>2012-06-26T19:12:01Z</time>
      </trkpt>
      <trkpt lat="48.55001" lon="-2.60855">
        <ele>35.8</ele>
        <time>2012-06-26T19:12:21Z</time>
      </trkpt>
      <trkpt lat="48.54972" lon="-2.60882">
        <ele>38.3</ele>
        <time>2012-06-26T19:12:41Z</time>
      </trkpt>
      <trkpt lat="48.5497" lon="-2.60948">
        <ele>34.5</ele>
        <time>2012-06-26T19:13:01Z</time>
      </trkpt>
      <trkpt lat="48.55001" lon="-2.60982">
        <ele>27.3</ele>
        <time>2012-06-26T19:13:21Z</time>
      </trkpt>
      <trkpt lat="48.54958" lon="-2.61038">
        <ele>29.6</ele>
        <time>2012-06-26T19:13:41Z</time>
      </trkpt>
      <trkpt lat="48.54856" lon="-2.61062">
        <ele>35.7</ele>
        <time>2012-06-26T19:14:01Z</time>
      </trkpt>
      <trkpt lat="48.54819" lon="-2.61116">
        <ele>36.1</ele>
        <time>2012-06-26T19:14:21Z</time>
      </trkpt>
      <trkpt lat="48.54813" lon="-2.61194">
        <ele>37</ele>
        <time>2012-06-26T19:14:41Z</time>
      </trkpt>
      <trkpt lat="48.54719" lon="-2.61297">
        <ele>32.7</ele>
        <time>2012-06-26T19:15:01Z</time>
      </trkpt>
      <trkpt lat="48.54716" lon="-2.61343">
        <ele>30.1</ele>
        <time>2012-06-26T19:15:21Z</time>
      </trkpt>
      <trkpt lat="48.54692" lon="-2.61346">
        <ele>35.9</ele>
        <time>2012-06-26T19:15:41Z</time>
      </trkpt>
      <trkpt lat="48.5468" lon="-2.61367">
        <ele>31.4</ele>
        <time>2012-06-26T19:16:01Z</time>
      </trkpt>
      <trkpt lat="48.54646" lon="-2.61374">
        <ele>35.1</ele>
        <time>2012-06-26T19:16:21Z</time>
      </trkpt>
      <trkpt lat="48.54616" lon="-2.61411">
        <ele>37.2</ele>
        <time>2012-06-26T19:16:41Z</time>
      </trkpt>
      <trkpt lat="48.54612" lon="-2.6148">
        <ele>35.8</ele>
        <time>2012-06-26T19:17:01Z</time>
      </trkpt>
      <trkpt lat="48.54596" lon="-2.6153">
        <ele>34.2</ele>
        <time>2012-06-26T19:17:21Z</time>
      </trkpt>
      <trkpt lat="48.54537" lon="-2.61579">
        <ele>38.5</ele>
        <time>2012-06-26T19:17:41Z</time>
      </trkpt>
      <trkpt lat="48.54472" lon="-2.61657">
        <ele>34.8</ele>
        <time>2012-06-26T19:18:01Z</time>
      </trkpt>
      <trkpt lat="48.54465" lon="-2.61678">
        <ele>26.6</ele>
        <time>2012-06-26T19:18:21Z</time>
      </trkpt>
      <trkpt lat="48.54486" lon="-2.61696">
        <ele>16.1</ele>
        <time>2012-06-26T19:18:41Z</time>
      </trkpt>
      <trkpt lat="48.5447" lon="-2.61705">
        <ele>17.8</ele>
        <time>2012-06-26T19:19:01Z</time>
      </trkpt>
      <trkpt lat="48.54483" lon="-2.61741">
        <ele>11</ele>
        <time>2012-06-26T19:19:21Z</time>
      </trkpt>
      <trkpt lat="48.54451" lon="-2.61757">
        <ele>20.1</ele>
        <time>2012-06-26T19:19:41Z</time>
      </trkpt>
      <trkpt lat="48.54461" lon="-2.61785">
        <ele>27.4</ele>
        <time>2012-06-26T19:20:01Z</time>
      </trkpt>
      <trkpt lat="48.54434" lon="-2.61785">
        <ele>31.8</ele>
        <time>2012-06-26T19:20:21Z</time>
      </trkpt>
      <trkpt lat="48.54461" lon="-2.61822">
        <ele>38.3</ele>
        <time>2012-06-26T19:20:41Z</time>
      </trkpt>
      <trkpt lat="48.54449" lon="-2.6187">
        <ele>46.1</ele>
        <time>2012-06-26T19:21:01Z</time>
      </trkpt>
      <trkpt lat="48.54366" lon="-2.62005">
        <ele>47.7</ele>
        <time>2012-06-26T19:21:21Z</time>
      </trkpt>
      <trkpt lat="48.54365" lon="-2.62117">
        <ele>46.7</ele>
        <time>2012-06-26T19:21:41Z</time>
      </trkpt>
      <trkpt lat="48.54289" lon="-2.62194">
        <ele>49.8</ele>
        <time>2012-06-26T19:22:01Z</time>
      </trkpt>
      <trkpt lat="48.54185" lon="-2.62433">
        <ele>52.8</ele>
        <time>2012-06-26T19:22:21Z</time>
      </trkpt>
      <trkpt lat="48.54173" lon="-2.62519">
        <ele>55.1</ele>
        <time>2012-06-26T19:22:41Z</time>
      </trkpt>
      <trkpt lat="48.54097" lon="-2.62659">
        <ele>56.4</ele>
        <time>2012-06-26T19:23:01Z</time>
      </trkpt>
      <trkpt lat="48.54071" lon="-2.62686">
        <ele>55.7</ele>
        <time>2012-06-26T19:23:21Z</time>
      </trkpt>
      <trkpt lat="48.53999" lon="-2.62699">
        <ele>52.5</ele>
        <time>2012-06-26T19:23:41Z</time>
      </trkpt>
      <trkpt lat="48.53969" lon="-2.62772">
        <ele>51.6</ele>
        <time>2012-06-26T19:24:01Z</time>
      </trkpt>
      <trkpt lat="48.53908" lon="-2.62829">
        <ele>49.4</ele>
        <time>2012-06-26T19:24:21Z</time>
      </trkpt>
      <trkpt lat="48.53874" lon="-2.62834">
        <ele>50.5</ele>
        <time>2012-06-26T19:24:41Z</time>
      </trkpt>
      <trkpt lat="48.53806" lon="-2.62935">
        <ele>44.3</ele>
        <time>2012-06-26T19:25:01Z</time>
      </trkpt>
      <trkpt lat="48.53757" lon="-2.62989">
        <ele>41.2</ele>
        <time>2012-06-26T19:25:21Z</time>
      </trkpt>
      <trkpt lat="48.53774" lon="-2.63127">
        <ele>37.2</ele>
        <time>2012-06-26T19:25:41Z</time>
      </trkpt>
      <trkpt lat="48.53737" lon="-2.6314">
        <ele>35.9</ele>
        <time>2012-06-26T19:26:01Z</time>
      </trkpt>
      <trkpt lat="48.5368" lon="-2.63187">
        <ele>27.5</ele>
        <time>2012-06-26T19:26:21Z</time>
      </trkpt>
      <trkpt lat="48.53662" lon="-2.63177">
        <ele>26</ele>
        <time>2012-06-26T19:26:41Z</time>
      </trkpt>
      <trkpt lat="48.53659" lon="-2.63161">
        <ele>26.3</ele>
        <time>2012-06-26T19:27:01Z</time>
      </trkpt>
      <trkpt lat="48.53626" lon="-2.63154">
        <ele>19.6</ele>
        <time>2012-06-26T19:27:21Z</time>
      </trkpt>
      <trkpt lat="48.53622" lon="-2.63179">
        <ele>16.9</ele>
        <time>2012-06-26T19:27:41Z</time>
      </trkpt>
      <trkpt lat="48.53591" lon="-2.6317">
        <ele>20.1</ele>
        <time>2012-06-26T19:28:01Z</time>
      </trkpt>
      <trkpt lat="48.53584" lon="-2.63185">
        <ele>15.7</ele>
        <time>2012-06-26T19:28:21Z</time>
      </trkpt>
      <trkpt lat="48.53558" lon="-2.63183">
        <ele>16.7</ele>
        <time>2012-06-26T19:28:41Z</time>
      </trkpt>
      <trkpt lat="48.5353" lon="-2.6316">
        <ele>19.6</ele>
        <time>2012-06-26T19:29:01Z</time>
      </trkpt>
      <trkpt lat="48.53501" lon="-2.6316">
        <ele>16.8</ele>
        <time>2012-06-26T19:29:21Z</time>
      </trkpt>
      <trkpt lat="48.53499" lon="-2.63176">
        <ele>13</ele>
        <time>2012-06-26T19:29:41Z</time>
      </trkpt>
      <trkpt lat="48.53443" lon="-2.63157">
        <ele>25.3</ele>
        <time>2012-06-26T19:30:01Z</time>
      </trkpt>
      <trkpt lat="48.5345" lon="-2.63137">
        <ele>29</ele>
        <time>2012-06-26T19:30:21Z</time>
      </trkpt>
      <trkpt lat="48.53416" lon="-2.63124">
        <ele>36.6</ele>
        <time>2012-06-26T19:30:41Z</time>
      </trkpt>
      <trkpt lat="48.53354" lon="-2.6314">
        <ele>36.5</ele>
        <time>2012-06-26T19:31:01Z</time>
      </trkpt>
      <trkpt lat="48.53269" lon="-2.63142">
        <ele>35.6</ele>
        <time>2012-06-26T19:31:21Z</time>
      </trkpt>
      <trkpt lat="48.53257" lon="-2.63203">
        <ele>29.4</ele>
        <time>2012-06-26T19:31:41Z</time>
      </trkpt>
      <trkpt lat="48.53225" lon="-2.63222">
        <ele>32.8</ele>
        <time>2012-06-26T19:32:01Z</time>
      </trkpt>
      <trkpt lat="48.53193" lon="-2.63229">
        <ele>31.4</ele>
        <time>2012-06-26T19:32:21Z</time>
      </trkpt>
      <trkpt lat="48.5307" lon="-2.63314">
        <ele>27.9</ele>
        <time>2012-06-26T19:32:41Z</time>
      </trkpt>
      <trkpt lat="48.53046" lon="-2.63297">
        <ele>28.7</ele>
        <time>2012-06-26T19:33:01Z</time>
      </trkpt>
      <trkpt lat="48.52991" lon="-2.63332">
        <ele>19.6</ele>
        <time>2012-06-26T19:33:21Z</time>
      </trkpt>
      <trkpt lat="48.52975" lon="-2.63292">
        <ele>16.9</ele>
        <time>2012-06-26T19:33:41Z</time>
      </trkpt>
      <trkpt lat="48.52975" lon="-2.63247">
        <ele>14</ele>
        <time>2012-06-26T19:34:01Z</time>
      </trkpt>
      <trkpt lat="48.52943" lon="-2.63216">
        <ele>15.1</ele>
        <time>2012-06-26T19:34:21Z</time>
      </trkpt>
      <trkpt lat="48.52788" lon="-2.63139">
        <ele>16.3</ele>
        <time>2012-06-26T19:34:41Z</time>
      </trkpt>
      <trkpt lat="48.5271" lon="-2.6311">
        <ele>10.8</ele>
        <time>2012-06-26T19:35:01Z</time>
      </trkpt>
      <trkpt lat="48.52694" lon="-2.63065">
        <ele>15.1</ele>
        <time>2012-06-26T19:35:21Z</time>
      </trkpt>
      <trkpt lat="48.52697" lon="-2.62958">
        <ele>31.9</ele>
        <time>2012-06-26T19:35:41Z</time>
      </trkpt>
      <trkpt lat="48.52685" lon="-2.62917">
        <ele>33.6</ele>
        <time>2012-06-26T19:36:01Z</time>
      </trkpt>
      <trkpt lat="48.52663" lon="-2.62867">
        <ele>32.7</ele>
        <time>2012-06-26T19:36:21Z</time>
      </trkpt>
      <trkpt lat="48.52655" lon="-2.62821">
        <ele>39.4</ele>
        <time>2012-06-26T19:36:41Z</time>
      </trkpt>
      <trkpt lat="48.52594" lon="-2.62754">
        <ele>42</ele>
        <time>2012-06-26T19:37:01Z</time>
      </trkpt>
      <trkpt lat="48.52547" lon="-2.62714">
        <ele>44.2</ele>
        <time>2012-06-26T19:37:21Z</time>
      </trkpt>
      <trkpt lat="48.5252" lon="-2.62633">
        <ele>44.1</ele>
        <time>2012-06-26T19:37:41Z</time>
      </trkpt>
      <trkpt lat="48.52456" lon="-2.62533">
        <ele>47.5</ele>
        <time>2012-06-26T19:38:01Z</time>
      </trkpt>
      <trkpt lat="48.5238" lon="-2.62487">
        <ele>63.5</ele>
        <time>2012-06-26T19:38:21Z</time>
      </trkpt>
      <trkpt lat="48.5234" lon="-2.62521">
        <ele>60</ele>
        <time>2012-06-26T19:38:41Z</time>
      </trkpt>
      <trkpt lat="48.52233" lon="-2.62678">
        <ele>37.5</ele>
        <time>2012-06-26T19:39:01Z</time>
      </trkpt>
      <trkpt lat="48.52222" lon="-2.62661">
        <ele>37.5</ele>
        <time>2012-06-26T19:39:21Z</time>
      </trkpt>
      <trkpt lat="48.52291" lon="-2.62515">
        <ele>45.6</ele>
        <time>2012-06-26T19:39:41Z</time>
      </trkpt>
      <trkpt lat="48.52314" lon="-2.62394">
        <ele>55.2</ele>
        <time>2012-06-26T19:40:01Z</time>
      </trkpt>
      <trkpt lat="48.52296" lon="-2.6227">
        <ele>56</ele>
        <time>2012-06-26T19:40:21Z</time>
      </trkpt>
      <trkpt lat="48.52257" lon="-2.62266">
        <ele>51</ele>
        <time>2012-06-26T19:40:41Z</time>
      </trkpt>
      <trkpt lat="48.52194" lon="-2.62231">
        <ele>46.9</ele>
        <time>2012-06-26T19:41:01Z</time>
      </trkpt>
      <trkpt lat="48.52188" lon="-2.62201">
        <ele>47.4</ele>
        <time>2012-06-26T19:41:21Z</time>
      </trkpt>
      <trkpt lat="48.52143" lon="-2.62192">
        <ele>31.7</ele>
        <time>2012-06-26T19:41:41Z</time>
      </trkpt>
      <trkpt lat="48.52095" lon="-2.62205">
        <ele>17.2</ele>
        <time>2012-06-26T19:42:01Z</time>
      </trkpt>
      <trkpt lat="48.52089" lon="-2.62228">
        <ele>11.6</ele>
        <time>2012-06-26T19:42:21Z</time>
      </trkpt>
      <trkpt lat="48.52101" lon="-2.62268">
        <ele>3.9</ele>
        <time>2012-06-26T19:42:41Z</time>
      </trkpt>
      <trkpt lat="48.52029" lon="-2.62248">
        <ele>3.3</ele>
        <time>2012-06-26T19:43:01Z</time>
      </trkpt>
      <trkpt lat="48.52006" lon="-2.62221">
        <ele>4.5</ele>
        <time>2012-06-26T19:43:21Z</time>
      </trkpt>
      <trkpt lat="48.51967" lon="-2.62146">
        <ele>5.1</ele>
        <time>2012-06-26T19:43:41Z</time>
      </trkpt>
      <trkpt lat="48.51907" lon="-2.61943">
        <ele>17</ele>
        <time>2012-06-26T19:44:01Z</time>
      </trkpt>
      <trkpt lat="48.51903" lon="-2.61844">
        <ele>21.8</ele>
        <time>2012-06-26T19:44:21Z</time>
      </trkpt>
      <trkpt lat="48.51895" lon="-2.62012">
        <ele>6.8</ele>
        <time>2012-06-26T19:44:41Z</time>
      </trkpt>
      <trkpt lat="48.51894" lon="-2.62177">
        <ele>24.7</ele>
        <time>2012-06-26T19:45:01Z</time>
      </trkpt>
      <trkpt lat="48.51926" lon="-2.62298">
        <ele>28.3</ele>
        <time>2012-06-26T19:45:21Z</time>
      </trkpt>
      <trkpt lat="48.5198" lon="-2.62363">
        <ele>33.6</ele>
        <time>2012-06-26T19:45:41Z</time>
      </trkpt>
      <trkpt lat="48.52062" lon="-2.62363">
        <ele>42.4</ele>
        <time>2012-06-26T19:46:01Z</time>
      </trkpt>
      <trkpt lat="48.52109" lon="-2.62414">
        <ele>32</ele>
        <time>2012-06-26T19:46:21Z</time>
      </trkpt>
      <trkpt lat="48.52136" lon="-2.62479">
        <ele>32.9</ele>
        <time>2012-06-26T19:46:41Z</time>
      </trkpt>
      <trkpt lat="48.52081" lon="-2.62665">
        <ele>44.6</ele>
        <time>2012-06-26T19:47:01Z</time>
      </trkpt>
      <trkpt lat="48.52122" lon="-2.62857">
        <ele>20.4</ele>
        <time>2012-06-26T19:47:21Z</time>
      </trkpt>
      <trkpt lat="48.52085" lon="-2.62929">
        <ele>11.9</ele>
        <time>2012-06-26T19:47:41Z</time>
      </trkpt>
      <trkpt lat="48.52099" lon="-2.62964">
        <ele>16.3</ele>
        <time>2012-06-26T19:48:01Z</time>
      </trkpt>
      <trkpt lat="48.52176" lon="-2.62937">
        <ele>12.8</ele>
        <time>2012-06-26T19:48:21Z</time>
      </trkpt>
      <trkpt lat="48.52233" lon="-2.62941">
        <ele>25</ele>
        <time>2012-06-26T19:48:41Z</time>
      </trkpt>
      <trkpt lat="48.5226" lon="-2.62915">
        <ele>24.1</ele>
        <time>2012-06-26T19:49:01Z</time>
      </trkpt>
      <trkpt lat="48.52289" lon="-2.62912">
        <ele>37.1</ele>
        <time>2012-06-26T19:49:21Z</time>
      </trkpt>
      <trkpt lat="48.52383" lon="-2.62791">
        <ele>19.6</ele>
        <time>2012-06-26T19:49:41Z</time>
      </trkpt>
      <trkpt lat="48.52404" lon="-2.62794">
        <ele>14.3</ele>
        <time>2012-06-26T19:50:01Z</time>
      </trkpt>
      <trkpt lat="48.52418" lon="-2.62815">
        <ele>11.9</ele>
        <time>2012-06-26T19:50:21Z</time>
      </trkpt>
      <trkpt lat="48.52441" lon="-2.62945">
        <ele>21.5</ele>
        <time>2012-06-26T19:50:41Z</time>
      </trkpt>
      <trkpt lat="48.52488" lon="-2.62989">
        <ele>22.9</ele>
        <time>2012-06-26T19:51:01Z</time>
      </trkpt>
      <trkpt lat="48.52569" lon="-2.62989">
        <ele>17.1</ele>
        <time>2012-06-26T19:51:21Z</time>
      </trkpt>
      <trkpt lat="48.52579" lon="-2.63005">
        <ele>17.1</ele>
        <time>2012-06-26T19:51:41Z</time>
      </trkpt>
      <trkpt lat="48.5258" lon="-2.63115">
        <ele>19.3</ele>
        <time>2012-06-26T19:52:01Z</time>
      </trkpt>
      <trkpt lat="48.52445" lon="-2.6342">
        <ele>33.1</ele>
        <time>2012-06-26T19:52:21Z</time>
      </trkpt>
      <trkpt lat="48.52461" lon="-2.63448">
        <ele>29.7</ele>
        <time>2012-06-26T19:52:41Z</time>
      </trkpt>
      <trkpt lat="48.52458" lon="-2.63515">
        <ele>26.8</ele>
        <time>2012-06-26T19:53:01Z</time>
      </trkpt>
      <trkpt lat="48.52425" lon="-2.63587">
        <ele>24.3</ele>
        <time>2012-06-26T19:53:21Z</time>
      </trkpt>
      <trkpt lat="48.52413" lon="-2.6365">
        <ele>24.8</ele>
        <time>2012-06-26T19:53:41Z</time>
      </trkpt>
      <trkpt lat="48.52425" lon="-2.63701">
        <ele>17.9</ele>
        <time>2012-06-26T19:54:01Z</time>
      </trkpt>
      <trkpt lat="48.52385" lon="-2.638">
        <ele>16.9</ele>
        <time>2012-06-26T19:54:21Z</time>
      </trkpt>
      <trkpt lat="48.52355" lon="-2.63801">
        <ele>13.7</ele>
        <time>2012-06-26T19:54:41Z</time>
      </trkpt>
      <trkpt lat="48.52357" lon="-2.63884">
        <ele>17.5</ele>
        <time>2012-06-26T19:55:01Z</time>
      </trkpt>
      <trkpt lat="48.52321" lon="-2.64015">
        <ele>12.2</ele>
        <time>2012-06-26T19:55:21Z</time>
      </trkpt>
      <trkpt lat="48.52333" lon="-2.6408">
        <ele>22.3</ele>
        <time>2012-06-26T19:55:41Z</time>
      </trkpt>
      <trkpt lat="48.5234" lon="-2.64194">
        <ele>20</ele>
        <time>2012-06-26T19:56:01Z</time>
      </trkpt>
      <trkpt lat="48.5235" lon="-2.64263">
        <ele>17.3</ele>
        <time>2012-06-26T19:56:21Z</time>
      </trkpt>
      <trkpt lat="48.52368" lon="-2.64295">
        <ele>17</ele>
        <time>2012-06-26T19:56:41Z</time>
      </trkpt>
      <trkpt lat="48.52368" lon="-2.64351">
        <ele>20.8</ele>
        <time>2012-06-26T19:57:01Z</time>
      </trkpt>
      <trkpt lat="48.52399" lon="-2.64468">
        <ele>21.7</ele>
        <time>2012-06-26T19:57:21Z</time>
      </trkpt>
      <trkpt lat="48.52435" lon="-2.64497">
        <ele>17.4</ele>
        <time>2012-06-26T19:57:41Z</time>
      </trkpt>
      <trkpt lat="48.524" lon="-2.64628">
        <ele>25</ele>
        <time>2012-06-26T19:58:01Z</time>
      </trkpt>
      <trkpt lat="48.52412" lon="-2.64735">
        <ele>28.1</ele>
        <time>2012-06-26T19:58:21Z</time>
      </trkpt>
      <trkpt lat="48.52444" lon="-2.64782">
        <ele>29.9</ele>
        <time>2012-06-26T19:58:41Z</time>
      </trkpt>
      <trkpt lat="48.52444" lon="-2.64818">
        <ele>25.9</ele>
        <time>2012-06-26T19:59:01Z</time>
      </trkpt>
      <trkpt lat="48.52386" lon="-2.64882">
        <ele>31.8</ele>
        <time>2012-06-26T19:59:21Z</time>
      </trkpt>
      <trkpt lat="48.52408" lon="-2.64913">
        <ele>26.4</ele>
        <time>2012-06-26T19:59:41Z</time>
      </trkpt>
      <trkpt lat="48.52415" lon="-2.6496">
        <ele>27.8</ele>
        <time>2012-06-26T20:00:01Z</time>
      </trkpt>
      <trkpt lat="48.52368" lon="-2.65048">
        <ele>24.8</ele>
        <time>2012-06-26T20:00:21Z</time>
      </trkpt>
      <trkpt lat="48.52378" lon="-2.65129">
        <ele>11.3</ele>
        <time>2012-06-26T20:00:41Z</time>
      </trkpt>
      <trkpt lat="48.52404" lon="-2.6514">
        <ele>8.5</ele>
        <time>2012-06-26T20:01:01Z</time>
      </trkpt>
      <trkpt lat="48.52417" lon="-2.6517">
        <ele>7.8</ele>
        <time>2012-06-26T20:01:21Z</time>
      </trkpt>
      <trkpt lat="48.52442" lon="-2.65154">
        <ele>9.4</ele>
        <time>2012-06-26T20:01:41Z</time>
      </trkpt>
      <trkpt lat="48.52452" lon="-2.65183">
        <ele>8.8</ele>
        <time>2012-06-26T20:02:01Z</time>
      </trkpt>
      <trkpt lat="48.52445" lon="-2.65256">
        <ele>8.8</ele>
        <time>2012-06-26T20:02:21Z</time>
      </trkpt>
      <trkpt lat="48.52463" lon="-2.65353">
        <ele>8.4</ele>
        <time>2012-06-26T20:02:41Z</time>
      </trkpt>
      <trkpt lat="48.52458" lon="-2.65417">
        <ele>8</ele>
        <time>2012-06-26T20:03:01Z</time>
      </trkpt>
      <trkpt lat="48.5247" lon="-2.6545">
        <ele>8</ele>
        <time>2012-06-26T20:03:21Z</time>
      </trkpt>
      <trkpt lat="48.52313" lon="-2.65555">
        <ele>10.7</ele>
        <time>2012-06-26T20:03:41Z</time>
      </trkpt>
      <trkpt lat="48.52346" lon="-2.65604">
        <ele>13.6</ele>
        <time>2012-06-26T20:04:01Z</time>
      </trkpt>
      <trkpt lat="48.52424" lon="-2.65653">
        <ele>14.9</ele>
        <time>2012-06-26T20:04:21Z</time>
      </trkpt>
      <trkpt lat="48.52473" lon="-2.65705">
        <ele>17.2</ele>
        <time>2012-06-26T20:04:41Z</time>
      </trkpt>
      <trkpt lat="48.52521" lon="-2.6586">
        <ele>19.9</ele>
        <time>2012-06-26T20:05:01Z</time>
      </trkpt>
      <trkpt lat="48.52546" lon="-2.65841">
        <ele>14.6</ele>
        <time>2012-06-26T20:05:21Z</time>
      </trkpt>
      <trkpt lat="48.52564" lon="-2.65884">
        <ele>19.6</ele>
        <time>2012-06-26T20:05:41Z</time>
      </trkpt>
      <trkpt lat="48.52604" lon="-2.65906">
        <ele>22.1</ele>
        <time>2012-06-26T20:06:01Z</time>
      </trkpt>
      <trkpt lat="48.52639" lon="-2.65888">
        <ele>22.6</ele>
        <time>2012-06-26T20:06:21Z</time>
      </trkpt>
      <trkpt lat="48.52695" lon="-2.65883">
        <ele>23.9</ele>
        <time>2012-06-26T20:06:41Z</time>
      </trkpt>
      <trkpt lat="48.52744" lon="-2.65938">
        <ele>28.7</ele>
        <time>2012-06-26T20:07:01Z</time>
      </trkpt>
      <trkpt lat="48.52806" lon="-2.65952">
        <ele>22.6</ele>
        <time>2012-06-26T20:07:21Z</time>
      </trkpt>
      <trkpt lat="48.52834" lon="-2.65929">
        <ele>20.6</ele>
        <time>2012-06-26T20:07:41Z</time>
      </trkpt>
      <trkpt lat="48.52867" lon="-2.65952">
        <ele>26.5</ele>
        <time>2012-06-26T20:08:01Z</time>
      </trkpt>
      <trkpt lat="48.5294" lon="-2.65879">
        <ele>19</ele>
        <time>2012-06-26T20:08:21Z</time>
      </trkpt>
      <trkpt lat="48.52965" lon="-2.65871">
        <ele>16.3</ele>
        <time>2012-06-26T20:08:41Z</time>
      </trkpt>
      <trkpt lat="48.52967" lon="-2.65937">
        <ele>27.4</ele>
        <time>2012-06-26T20:09:01Z</time>
      </trkpt>
      <trkpt lat="48.5301" lon="-2.6596">
        <ele>22.5</ele>
        <time>2012-06-26T20:09:21Z</time>
      </trkpt>
      <trkpt lat="48.53053" lon="-2.66053">
        <ele>19.8</ele>
        <time>2012-06-26T20:09:41Z</time>
      </trkpt>
      <trkpt lat="48.53032" lon="-2.66122">
        <ele>20.8</ele>
        <time>2012-06-26T20:10:01Z</time>
      </trkpt>
      <trkpt lat="48.53045" lon="-2.66159">
        <ele>19.9</ele>
        <time>2012-06-26T20:10:21Z</time>
      </trkpt>
      <trkpt lat="48.53056" lon="-2.66253">
        <ele>25.5</ele>
        <time>2012-06-26T20:10:41Z</time>
      </trkpt>
      <trkpt lat="48.53107" lon="-2.66346">
        <ele>13</ele>
        <time>2012-06-26T20:11:01Z</time>
      </trkpt>
      <trkpt lat="48.53084" lon="-2.66399">
        <ele>18.8</ele>
        <time>2012-06-26T20:11:21Z</time>
      </trkpt>
      <trkpt lat="48.53153" lon="-2.6634">
        <ele>16.7</ele>
        <time>2012-06-26T20:11:41Z</time>
      </trkpt>
      <trkpt lat="48.53206" lon="-2.66313">
        <ele>9.6</ele>
        <time>2012-06-26T20:12:01Z</time>
      </trkpt>
      <trkpt lat="48.53214" lon="-2.66338">
        <ele>14</ele>
        <time>2012-06-26T20:12:21Z</time>
      </trkpt>
      <trkpt lat="48.53257" lon="-2.66337">
        <ele>19.3</ele>
        <time>2012-06-26T20:12:41Z</time>
      </trkpt>
      <trkpt lat="48.53296" lon="-2.66326">
        <ele>23</ele>
        <time>2012-06-26T20:13:01Z</time>
      </trkpt>
      <trkpt lat="48.53335" lon="-2.66338">
        <ele>25.2</ele>
        <time>2012-06-26T20:13:21Z</time>
      </trkpt>
      <trkpt lat="48.53329" lon="-2.66385">
        <ele>30.4</ele>
        <time>2012-06-26T20:13:41Z</time>
      </trkpt>
      <trkpt lat="48.53342" lon="-2.66609">
        <ele>34.2</ele>
        <time>2012-06-26T20:14:01Z</time>
      </trkpt>
      <trkpt lat="48.53356" lon="-2.667">
        <ele>35.9</ele>
        <time>2012-06-26T20:14:21Z</time>
      </trkpt>
      <trkpt lat="48.53375" lon="-2.66766">
        <ele>33.9</ele>
        <time>2012-06-26T20:14:41Z</time>
      </trkpt>
      <trkpt lat="48.53404" lon="-2.66779">
        <ele>37.4</ele>
        <time>2012-06-26T20:15:01Z</time>
      </trkpt>
      <trkpt lat="48.53437" lon="-2.6686">
        <ele>37.1</ele>
        <time>2012-06-26T20:15:21Z</time>
      </trkpt>
      <trkpt lat="48.53475" lon="-2.66862">
        <ele>36.9</ele>
        <time>2012-06-26T20:15:41Z</time>
      </trkpt>
      <trkpt lat="48.53538" lon="-2.66944">
        <ele>32.8</ele>
        <time>2012-06-26T20:16:01Z</time>
      </trkpt>
      <trkpt lat="48.53574" lon="-2.66936">
        <ele>25.7</ele>
        <time>2012-06-26T20:16:21Z</time>
      </trkpt>
      <trkpt lat="48.53531" lon="-2.67034">
        <ele>37.2</ele>
        <time>2012-06-26T20:16:41Z</time>
      </trkpt>
      <trkpt lat="48.53511" lon="-2.67108">
        <ele>34.8</ele>
        <time>2012-06-26T20:17:01Z</time>
      </trkpt>
      <trkpt lat="48.53467" lon="-2.67149">
        <ele>33.9</ele>
        <time>2012-06-26T20:17:21Z</time>
      </trkpt>
      <trkpt lat="48.53417" lon="-2.67252">
        <ele>30.6</ele>
        <time>2012-06-26T20:17:41Z</time>
      </trkpt>
      <trkpt lat="48.53393" lon="-2.6733">
        <ele>21.4</ele>
        <time>2012-06-26T20:18:01Z</time>
      </trkpt>
      <trkpt lat="48.53396" lon="-2.67347">
        <ele>18.6</ele>
        <time>2012-06-26T20:18:21Z</time>
      </trkpt>
      <trkpt lat="48.53386" lon="-2.67397">
        <ele>27.1</ele>
        <time>2012-06-26T20:18:41Z</time>
      </trkpt>
      <trkpt lat="48.53399" lon="-2.6742">
        <ele>26.2</ele>
        <time>2012-06-26T20:19:01Z</time>
      </trkpt>
      <trkpt lat="48.53416" lon="-2.67427">
        <ele>22.4</ele>
        <time>2012-06-26T20:19:21Z</time>
      </trkpt>
      <trkpt lat="48.53426" lon="-2.67472">
        <ele>16.6</ele>
        <time>2012-06-26T20:19:41Z</time>
      </trkpt>
      <trkpt lat="48.53386" lon="-2.67499">
        <ele>28.7</ele>
        <time>2012-06-26T20:20:01Z</time>
      </trkpt>
      <trkpt lat="48.53349" lon="-2.67599">
        <ele>26.6</ele>
        <time>2012-06-26T20:20:21Z</time>
      </trkpt>
      <trkpt lat="48.53348" lon="-2.67653">
        <ele>24.4</ele>
        <time>2012-06-26T20:20:41Z</time>
      </trkpt>
      <trkpt lat="48.5339" lon="-2.67725">
        <ele>21.7</ele>
        <time>2012-06-26T20:21:01Z</time>
      </trkpt>
      <trkpt lat="48.53384" lon="-2.67759">
        <ele>17.4</ele>
        <time>2012-06-26T20:21:21Z</time>
      </trkpt>
      <trkpt lat="48.53358" lon="-2.67776">
        <ele>23.9</ele>
        <time>2012-06-26T20:21:41Z</time>
      </trkpt>
      <trkpt lat="48.53324" lon="-2.6783">
        <ele>23.8</ele>
        <time>2012-06-26T20:22:01Z</time>
      </trkpt>
      <trkpt lat="48.53353" lon="-2.67932">
        <ele>12.6</ele>
        <time>2012-06-26T20:22:21Z</time>
      </trkpt>
      <trkpt lat="48.53305" lon="-2.67932">
        <ele>18</ele>
        <time>2012-06-26T20:22:41Z</time>
      </trkpt>
      <trkpt lat="48.53267" lon="-2.67959">
        <ele>24.2</ele>
        <time>2012-06-26T20:23:01Z</time>
      </trkpt>
      <trkpt lat="48.53275" lon="-2.68053">
        <ele>27.1</ele>
        <time>2012-06-26T20:23:21Z</time>
      </trkpt>
      <trkpt lat="48.53234" lon="-2.68139">
        <ele>28.8</ele>
        <time>2012-06-26T20:23:41Z</time>
      </trkpt>
      <trkpt lat="48.53191" lon="-2.68204">
        <ele>17.9</ele>
        <time>2012-06-26T20:24:01Z</time>
      </trkpt>
      <trkpt lat="48.53169" lon="-2.68197">
        <ele>13.2</ele>
        <time>2012-06-26T20:24:21Z</time>
      </trkpt>
      <trkpt lat="48.5316" lon="-2.68156">
        <ele>17.5</ele>
        <time>2012-06-26T20:24:41Z</time>
      </trkpt>
      <trkpt lat="48.53114" lon="-2.68127">
        <ele>17.7</ele>
        <time>2012-06-26T20:25:01Z</time>
      </trkpt>
      <trkpt lat="48.53044" lon="-2.68146">
        <ele>10.4</ele>
        <time>2012-06-26T20:25:21Z</time>
      </trkpt>
      <trkpt lat="48.53029" lon="-2.68066">
        <ele>15.6</ele>
        <time>2012-06-26T20:25:41Z</time>
      </trkpt>
      <trkpt lat="48.52993" lon="-2.68053">
        <ele>18.3</ele>
        <time>2012-06-26T20:26:01Z</time>
      </trkpt>
      <trkpt lat="48.52883" lon="-2.6809">
        <ele>19.4</ele>
        <time>2012-06-26T20:26:21Z</time>
      </trkpt>
      <trkpt lat="48.52864" lon="-2.68071">
        <ele>19.3</ele>
        <time>2012-06-26T20:26:41Z</time>
      </trkpt>
      <trkpt lat="48.52854" lon="-2.68008">
        <ele>14.4</ele>
        <time>2012-06-26T20:27:01Z</time>
      </trkpt>
      <trkpt lat="48.52834" lon="-2.67967">
        <ele>12.8</ele>
        <time>2012-06-26T20:27:21Z</time>
      </trkpt>
      <trkpt lat="48.5279" lon="-2.67942">
        <ele>20.6</ele>
        <time>2012-06-26T20:27:41Z</time>
      </trkpt>
      <trkpt lat="48.52721" lon="-2.6795">
        <ele>18.6</ele>
        <time>2012-06-26T20:28:01Z</time>
      </trkpt>
      <trkpt lat="48.5269" lon="-2.67941">
        <ele>22.1</ele>
        <time>2012-06-26T20:28:21Z</time>
      </trkpt>
      <trkpt lat="48.52624" lon="-2.67961">
        <ele>15.7</ele>
        <time>2012-06-26T20:28:41Z</time>
      </trkpt>
      <trkpt lat="48.52507" lon="-2.67924">
        <ele>22.6</ele>
        <time>2012-06-26T20:29:01Z</time>
      </trkpt>
      <trkpt lat="48.52452" lon="-2.67924">
        <ele>21.6</ele>
        <time>2012-06-26T20:29:21Z</time>
      </trkpt>
      <trkpt lat="48.52409" lon="-2.67947">
        <ele>13.5</ele>
        <time>2012-06-26T20:29:41Z</time>
      </trkpt>
      <trkpt lat="48.5238" lon="-2.67892">
        <ele>14.3</ele>
        <time>2012-06-26T20:30:01Z</time>
      </trkpt>
      <trkpt lat="48.52377" lon="-2.67847">
        <ele>12.7</ele>
        <time>2012-06-26T20:30:21Z</time>
      </trkpt>
      <trkpt lat="48.52366" lon="-2.67834">
        <ele>8.4</ele>
        <time>2012-06-26T20:30:41Z</time>
      </trkpt>
      <trkpt lat="48.52379" lon="-2.67788">
        <ele>12.7</ele>
        <time>2012-06-26T20:31:01Z</time>
      </trkpt>
      <trkpt lat="48.52367" lon="-2.67766">
        <ele>13.7</ele>
        <time>2012-06-26T20:31:21Z</time>
      </trkpt>
      <trkpt lat="48.52284" lon="-2.67776">
        <ele>17.9</ele>
        <time>2012-06-26T20:31:41Z</time>
      </trkpt>
      <trkpt lat="48.52266" lon="-2.67797">
        <ele>12.8</ele>
        <time>2012-06-26T20:32:01Z</time>
      </trkpt>
      <trkpt lat="48.52244" lon="-2.67806">
        <ele>11.8</ele>
        <time>2012-06-26T20:32:21Z</time>
      </trkpt>
      <trkpt lat="48.52214" lon="-2.6773">
        <ele>21.5</ele>
        <time>2012-06-26T20:32:41Z</time>
      </trkpt>
      <trkpt lat="48.52153" lon="-2.67707">
        <ele>20.5</ele>
        <time>2012-06-26T20:33:01Z</time>
      </trkpt>
      <trkpt lat="48.52123" lon="-2.67727">
        <ele>15</ele>
        <time>2012-06-26T20:33:21Z</time>
      </trkpt>
      <trkpt lat="48.52093" lon="-2.67721">
        <ele>12.8</ele>
        <time>2012-06-26T20:33:41Z</time>
      </trkpt>
      <trkpt lat="48.52081" lon="-2.67679">
        <ele>22.3</ele>
        <time>2012-06-26T20:34:01Z</time>
      </trkpt>
      <trkpt lat="48.52068" lon="-2.67658">
        <ele>25.5</ele>
        <time>2012-06-26T20:34:21Z</time>
      </trkpt>
      <trkpt lat="48.5196" lon="-2.67642">
        <ele>18.8</ele>
        <time>2012-06-26T20:34:41Z</time>
      </trkpt>
      <trkpt lat="48.51929" lon="-2.67652">
        <ele>12.4</ele>
        <time>2012-06-26T20:35:01Z</time>
      </trkpt>
      <trkpt lat="48.51876" lon="-2.67608">
        <ele>19.3</ele>
        <time>2012-06-26T20:35:21Z</time>
      </trkpt>
      <trkpt lat="48.51818" lon="-2.6762">
        <ele>17</ele>
        <time>2012-06-26T20:35:41Z</time>
      </trkpt>
      <trkpt lat="48.51788" lon="-2.67657">
        <ele>12.4</ele>
        <time>2012-06-26T20:36:01Z</time>
      </trkpt>
      <trkpt lat="48.51748" lon="-2.67662">
        <ele>11.4</ele>
        <time>2012-06-26T20:36:21Z</time>
      </trkpt>
      <trkpt lat="48.5171" lon="-2.67591">
        <ele>13.3</ele>
        <time>2012-06-26T20:36:41Z</time>
      </trkpt>
      <trkpt lat="48.51665" lon="-2.67575">
        <ele>14.5</ele>
        <time>2012-06-26T20:37:01Z</time>
      </trkpt>
      <trkpt lat="48.516" lon="-2.67605">
        <ele>8.5</ele>
        <time>2012-06-26T20:37:21Z</time>
      </trkpt>
      <trkpt lat="48.5157" lon="-2.67584">
        <ele>16.2</ele>
        <time>2012-06-26T20:37:41Z</time>
      </trkpt>
      <trkpt lat="48.51538" lon="-2.67597">
        <ele>14.2</ele>
        <time>2012-06-26T20:38:01Z</time>
      </trkpt>
      <trkpt lat="48.51484" lon="-2.67664">
        <ele>7.5</ele>
        <time>2012-06-26T20:38:21Z</time>
      </trkpt>
      <trkpt lat="48.51455" lon="-2.67621">
        <ele>9.1</ele>
        <time>2012-06-26T20:38:41Z</time>
      </trkpt>
      <trkpt lat="48.5138" lon="-2.67556">
        <ele>7</ele>
        <time>2012-06-26T20:39:01Z</time>
      </trkpt>
      <trkpt lat="48.51342" lon="-2.67513">
        <ele>11.3</ele>
        <time>2012-06-26T20:39:21Z</time>
      </trkpt>
      <trkpt lat="48.51252" lon="-2.6759">
        <ele>8.6</ele>
        <time>2012-06-26T20:39:41Z</time>
      </trkpt>
      <trkpt lat="48.51228" lon="-2.67644">
        <ele>6.7</ele>
        <time>2012-06-26T20:40:01Z</time>
      </trkpt>
      <trkpt lat="48.51165" lon="-2.67678">
        <ele>5.6</ele>
        <time>2012-06-26T20:40:21Z</time>
      </trkpt>
      <trkpt lat="48.51114" lon="-2.67659">
        <ele>5.4</ele>
        <time>2012-06-26T20:40:41Z</time>
      </trkpt>
      <trkpt lat="48.51088" lon="-2.67577">
        <ele>8.1</ele>
        <time>2012-06-26T20:41:01Z</time>
      </trkpt>
      <trkpt lat="48.5107" lon="-2.67543">
        <ele>10.4</ele>
        <time>2012-06-26T20:41:21Z</time>
      </trkpt>
      <trkpt lat="48.5101" lon="-2.67516">
        <ele>13.8</ele>
        <time>2012-06-26T20:41:41Z</time>
      </trkpt>
      <trkpt lat="48.50954" lon="-2.67505">
        <ele>17.6</ele>
        <time>2012-06-26T20:42:01Z</time>
      </trkpt>
      <trkpt lat="48.50931" lon="-2.67524">
        <ele>12.7</ele>
        <time>2012-06-26T20:42:21Z</time>
      </trkpt>
      <trkpt lat="48.50902" lon="-2.67508">
        <ele>20.5</ele>
        <time>2012-06-26T20:42:41Z</time>
      </trkpt>
      <trkpt lat="48.50772" lon="-2.67622">
        <ele>18.9</ele>
        <time>2012-06-26T20:43:01Z</time>
      </trkpt>
      <trkpt lat="48.50697" lon="-2.67742">
        <ele>21</ele>
        <time>2012-06-26T20:43:21Z</time>
      </trkpt>
      <trkpt lat="48.50651" lon="-2.67759">
        <ele>23.3</ele>
        <time>2012-06-26T20:43:41Z</time>
      </trkpt>
      <trkpt lat="48.50619" lon="-2.6781">
        <ele>20.4</ele>
        <time>2012-06-26T20:44:01Z</time>
      </trkpt>
      <trkpt lat="48.50565" lon="-2.67847">
        <ele>24.2</ele>
        <time>2012-06-26T20:44:21Z</time>
      </trkpt>
      <trkpt lat="48.50552" lon="-2.67879">
        <ele>19.8</ele>
        <time>2012-06-26T20:44:41Z</time>
      </trkpt>
      <trkpt lat="48.50521" lon="-2.67885">
        <ele>11.4</ele>
        <time>2012-06-26T20:45:01Z</time>
      </trkpt>
      <trkpt lat="48.50437" lon="-2.67857">
        <ele>15.8</ele>
        <time>2012-06-26T20:45:21Z</time>
      </trkpt>
      <trkpt lat="48.50302" lon="-2.67914">
        <ele>8.3</ele>
        <time>2012-06-26T20:45:41Z</time>
      </trkpt>
      <trkpt lat="48.50304" lon="-2.6793">
        <ele>6.6</ele>
        <time>2012-06-26T20:46:01Z</time>
      </trkpt>
      <trkpt lat="48.50256" lon="-2.67979">
        <ele>6.3</ele>
        <time>2012-06-26T20:46:21Z</time>
      </trkpt>
      <trkpt lat="48.50177" lon="-2.68135">
        <ele>6.4</ele>
        <time>2012-06-26T20:46:41Z</time>
      </trkpt>
      <trkpt lat="48.50098" lon="-2.6825">
        <ele>6.5</ele>
        <time>2012-06-26T20:47:01Z</time>
      </trkpt>
      <trkpt lat="48.49941" lon="-2.68329">
        <ele>6.1</ele>
        <time>2012-06-26T20:47:21Z</time>
      </trkpt>
      <trkpt lat="48.49836" lon="-2.68449">
        <ele>6.6</ele>
        <time>2012-06-26T20:47:41Z</time>
      </trkpt>
      <trkpt lat="48.49806" lon="-2.68462">
        <ele>6</ele>
        <time>2012-06-26T20:48:01Z</time>
      </trkpt>
      <trkpt lat="48.49737" lon="-2.68443">
        <ele>6.1</ele>
        <time>2012-06-26T20:48:21Z</time>
      </trkpt>
      <trkpt lat="48.49698" lon="-2.68386">
        <ele>5.9</ele>
        <time>2012-06-26T20:48:41Z</time>
      </trkpt>
      <trkpt lat="48.4954" lon="-2.68276">
        <ele>5.1</ele>
        <time>2012-06-26T20:49:01Z</time>
      </trkpt>
      <trkpt lat="48.49513" lon="-2.68189">
        <ele>4.7</ele>
        <time>2012-06-26T20:49:21Z</time>
      </trkpt>
      <trkpt lat="48.49375" lon="-2.67824">
        <ele>5.2</ele>
        <time>2012-06-26T20:49:41Z</time>
      </trkpt>
      <trkpt lat="48.49329" lon="-2.67806">
        <ele>6.7</ele>
        <time>2012-06-26T20:50:01Z</time>
      </trkpt>
      <trkpt lat="48.49242" lon="-2.67942">
        <ele>5.3</ele>
        <time>2012-06-26T20:50:21Z</time>
      </trkpt>
      <trkpt lat="48.49196" lon="-2.67911">
        <ele>4.8</ele>
        <time>2012-06-26T20:50:41Z</time>
      </trkpt>
      <trkpt lat="48.49155" lon="-2.67717">
        <ele>5.9</ele>
        <time>2012-06-26T20:51:01Z</time>
      </trkpt>
      <trkpt lat="48.49257" lon="-2.67446">
        <ele>6.7</ele>
        <time>2012-06-26T20:51:21Z</time>
      </trkpt>
      <trkpt lat="48.49258" lon="-2.67318">
        <ele>7</ele>
        <time>2012-06-26T20:51:41Z</time>
      </trkpt>
      <trkpt lat="48.49266" lon="-2.67184">
        <ele>6.2</ele>
        <time>2012-06-26T20:52:01Z</time>
      </trkpt>
      <trkpt lat="48.48963" lon="-2.67789">
        <ele>6.5</ele>
        <time>2012-06-26T20:52:21Z</time>
      </trkpt>
      <trkpt lat="48.48903" lon="-2.67839">
        <ele>7.4</ele>
        <time>2012-06-26T20:52:41Z</time>
      </trkpt>
      <trkpt lat="48.4881" lon="-2.67852">
        <ele>7.8</ele>
        <time>2012-06-26T20:53:01Z</time>
      </trkpt>
      <trkpt lat="48.48965" lon="-2.67987">
        <ele>7</ele>
        <time>2012-06-26T20:53:21Z</time>
      </trkpt>
      <trkpt lat="48.49155" lon="-2.68417">
        <ele>7.4</ele>
        <time>2012-06-26T20:53:41Z</time>
      </trkpt>
      <trkpt lat="48.49226" lon="-2.68505">
        <ele>7.2</ele>
        <time>2012-06-26T20:54:01Z</time>
      </trkpt>
      <trkpt lat="48.4927" lon="-2.68606">
        <ele>7.3</ele>
        <time>2012-06-26T20:54:21Z</time>
      </trkpt>
      <trkpt lat="48.49322" lon="-2.68647">
        <ele>7</ele>
        <time>2012-06-26T20:54:41Z</time>
      </trkpt>
      <trkpt lat="48.49449" lon="-2.68706">
        <ele>6.8</ele>
        <time>2012-06-26T20:55:01Z</time>
      </trkpt>
      <trkpt lat="48.4958" lon="-2.68784">
        <ele>7</ele>
        <time>2012-06-26T20:55:21Z</time>
      </trkpt>
      <trkpt lat="48.49744" lon="-2.68942">
        <ele>6.2</ele>
        <time>2012-06-26T20:55:41Z</time>
      </trkpt>
      <trkpt lat="48.49829" lon="-2.68991">
        <ele>5.8</ele>
        <time>2012-06-26T20:56:01Z</time>
      </trkpt>
      <trkpt lat="48.50192" lon="-2.69427">
        <ele>6.1</ele>
        <time>2012-06-26T20:56:21Z</time>
      </trkpt>
      <trkpt lat="48.50428" lon="-2.69758">
        <ele>7</ele>
        <time>2012-06-26T20:56:41Z</time>
      </trkpt>
      <trkpt lat="48.50451" lon="-2.69764">
        <ele>6.9</ele>
        <time>2012-06-26T20:57:01Z</time>
      </trkpt>
      <trkpt lat="48.50558" lon="-2.69844">
        <ele>7</ele>
        <time>2012-06-26T20:57:21Z</time>
      </trkpt>
      <trkpt lat="48.50796" lon="-2.69977">
        <ele>6.5</ele>
        <time>2012-06-26T20:57:41Z</time>
      </trkpt>
      <trkpt lat="48.50941" lon="-2.70089">
        <ele>6</ele>
        <time>2012-06-26T20:58:01Z</time>
      </trkpt>
      <trkpt lat="48.51006" lon="-2.70178">
        <ele>8.4</ele>
        <time>2012-06-26T20:58:21Z</time>
      </trkpt>
      <trkpt lat="48.51054" lon="-2.70288">
        <ele>15</ele>
        <time>2012-06-26T20:58:41Z</time>
      </trkpt>
      <trkpt lat="48.51103" lon="-2.7035">
        <ele>15.5</ele>
        <time>2012-06-26T20:59:01Z</time>
      </trkpt>
      <trkpt lat="48.51133" lon="-2.70365">
        <ele>16.9</ele>
        <time>2012-06-26T20:59:21Z</time>
      </trkpt>
      <trkpt lat="48.5128" lon="-2.70337">
        <ele>22.8</ele>
        <time>2012-06-26T20:59:41Z</time>
      </trkpt>
      <trkpt lat="48.51335" lon="-2.70362">
        <ele>23.9</ele>
        <time>2012-06-26T21:00:01Z</time>
      </trkpt>
      <trkpt lat="48.51368" lon="-2.70408">
        <ele>25</ele>
        <time>2012-06-26T21:00:21Z</time>
      </trkpt>
      <trkpt lat="48.51412" lon="-2.70486">
        <ele>27.5</ele>
        <time>2012-06-26T21:00:41Z</time>
      </trkpt>
      <trkpt lat="48.51526" lon="-2.70567">
        <ele>33.4</ele>
        <time>2012-06-26T21:01:01Z</time>
      </trkpt>
      <trkpt lat="48.51556" lon="-2.70622">
        <ele>33.6</ele>
        <time>2012-06-26T21:01:21Z</time>
      </trkpt>
      <trkpt lat="48.5162" lon="-2.7082">
        <ele>27.7</ele>
        <time>2012-06-26T21:01:41Z</time>
      </trkpt>
      <trkpt lat="48.5163" lon="-2.70911">
        <ele>28.8</ele>
        <time>2012-06-26T21:02:01Z</time>
      </trkpt>
      <trkpt lat="48.51631" lon="-2.71068">
        <ele>23.1</ele>
        <time>2012-06-26T21:02:21Z</time>
      </trkpt>
      <trkpt lat="48.51688" lon="-2.71096">
        <ele>16.7</ele>
        <time>2012-06-26T21:02:41Z</time>
      </trkpt>
      <trkpt lat="48.51741" lon="-2.71166">
        <ele>10.1</ele>
        <time>2012-06-26T21:03:01Z</time>
      </trkpt>
      <trkpt lat="48.51812" lon="-2.71391">
        <ele>10.9</ele>
        <time>2012-06-26T21:03:21Z</time>
      </trkpt>
      <trkpt lat="48.51897" lon="-2.71616">
        <ele>8</ele>
        <time>2012-06-26T21:03:41Z</time>
      </trkpt>
      <trkpt lat="48.5215" lon="-2.71449">
        <ele>11</ele>
        <time>2012-06-26T21:04:01Z</time>
      </trkpt>
      <trkpt lat="48.52227" lon="-2.71325">
        <ele>10.4</ele>
        <time>2012-06-26T21:04:21Z</time>
      </trkpt>
      <trkpt lat="48.52274" lon="-2.71393">
        <ele>12.2</ele>
        <time>2012-06-26T21:04:41Z</time>
      </trkpt>
      <trkpt lat="48.52293" lon="-2.71399">
        <ele>10.2</ele>
        <time>2012-06-26T21:05:01Z</time>
      </trkpt>
      <trkpt lat="48.523" lon="-2.71501">
        <ele>28.7</ele>
        <time>2012-06-26T21:05:21Z</time>
      </trkpt>
      <trkpt lat="48.52275" lon="-2.71565">
        <ele>32.9</ele>
        <time>2012-06-26T21:05:41Z</time>
      </trkpt>
      <trkpt lat="48.52264" lon="-2.71648">
        <ele>35</ele>
        <time>2012-06-26T21:06:01Z</time>
      </trkpt>
      <trkpt lat="48.52242" lon="-2.71727">
        <ele>34.4</ele>
        <time>2012-06-26T21:06:21Z</time>
      </trkpt>
      <trkpt lat="48.52306" lon="-2.7173">
        <ele>39.3</ele>
        <time>2012-06-26T21:06:41Z</time>
      </trkpt>
      <trkpt lat="48.52369" lon="-2.71765">
        <ele>34.2</ele>
        <time>2012-06-26T21:07:01Z</time>
      </trkpt>
      <trkpt lat="48.52437" lon="-2.71811">
        <ele>29.9</ele>
        <time>2012-06-26T21:07:21Z</time>
      </trkpt>
      <trkpt lat="48.52462" lon="-2.71741">
        <ele>24.2</ele>
        <time>2012-06-26T21:07:41Z</time>
      </trkpt>
      <trkpt lat="48.525" lon="-2.71694">
        <ele>18.9</ele>
        <time>2012-06-26T21:08:01Z</time>
      </trkpt>
      <trkpt lat="48.52511" lon="-2.7166">
        <ele>11</ele>
        <time>2012-06-26T21:08:21Z</time>
      </trkpt>
      <trkpt lat="48.52544" lon="-2.71661">
        <ele>16.2</ele>
        <time>2012-06-26T21:08:41Z</time>
      </trkpt>
      <trkpt lat="48.52567" lon="-2.71633">
        <ele>13.3</ele>
        <time>2012-06-26T21:09:01Z</time>
      </trkpt>
      <trkpt lat="48.52579" lon="-2.71598">
        <ele>11.4</ele>
        <time>2012-06-26T21:09:21Z</time>
      </trkpt>
      <trkpt lat="48.52609" lon="-2.71573">
        <ele>9.5</ele>
        <time>2012-06-26T21:09:41Z</time>
      </trkpt>
      <trkpt lat="48.52668" lon="-2.71747">
        <ele>10.3</ele>
        <time>2012-06-26T21:10:01Z</time>
      </trkpt>
      <trkpt lat="48.52647" lon="-2.71934">
        <ele>25.9</ele>
        <time>2012-06-26T21:10:21Z</time>
      </trkpt>
      <trkpt lat="48.52731" lon="-2.71742">
        <ele>18.4</ele>
        <time>2012-06-26T21:10:41Z</time>
      </trkpt>
      <trkpt lat="48.5281" lon="-2.71725">
        <ele>18.6</ele>
        <time>2012-06-26T21:11:01Z</time>
      </trkpt>
      <trkpt lat="48.5286" lon="-2.71681">
        <ele>20.2</ele>
        <time>2012-06-26T21:11:21Z</time>
      </trkpt>
      <trkpt lat="48.52878" lon="-2.71708">
        <ele>26.6</ele>
        <time>2012-06-26T21:11:41Z</time>
      </trkpt>
      <trkpt lat="48.52918" lon="-2.71731">
        <ele>29.1</ele>
        <time>2012-06-26T21:12:01Z</time>
      </trkpt>
      <trkpt lat="48.52919" lon="-2.71741">
        <ele>29.3</ele>
        <time>2012-06-26T21:12:21Z</time>
      </trkpt>
      <trkpt lat="48.52916" lon="-2.71804">
        <ele>35.8</ele>
        <time>2012-06-26T21:12:41Z</time>
      </trkpt>
      <trkpt lat="48.5294" lon="-2.71861">
        <ele>41.8</ele>
        <time>2012-06-26T21:13:01Z</time>
      </trkpt>
      <trkpt lat="48.52971" lon="-2.71904">
        <ele>47.7</ele>
        <time>2012-06-26T21:13:21Z</time>
      </trkpt>
      <trkpt lat="48.53013" lon="-2.71898">
        <ele>26.6</ele>
        <time>2012-06-26T21:13:41Z</time>
      </trkpt>
      <trkpt lat="48.53025" lon="-2.71929">
        <ele>24.3</ele>
        <time>2012-06-26T21:14:01Z</time>
      </trkpt>
      <trkpt lat="48.53026" lon="-2.72006">
        <ele>31.3</ele>
        <time>2012-06-26T21:14:21Z</time>
      </trkpt>
      <trkpt lat="48.52993" lon="-2.72158">
        <ele>34.5</ele>
        <time>2012-06-26T21:14:41Z</time>
      </trkpt>
      <trkpt lat="48.52987" lon="-2.72272">
        <ele>26.2</ele>
        <time>2012-06-26T21:15:01Z</time>
      </trkpt>
      <trkpt lat="48.52975" lon="-2.72303">
        <ele>31.1</ele>
        <time>2012-06-26T21:15:21Z</time>
      </trkpt>
      <trkpt lat="48.52878" lon="-2.72437">
        <ele>33.8</ele>
        <time>2012-06-26T21:15:41Z</time>
      </trkpt>
      <trkpt lat="48.5282" lon="-2.72478">
        <ele>41.8</ele>
        <time>2012-06-26T21:16:01Z</time>
      </trkpt>
      <trkpt lat="48.5276" lon="-2.72554">
        <ele>38</ele>
        <time>2012-06-26T21:16:21Z</time>
      </trkpt>
      <trkpt lat="48.52768" lon="-2.7261">
        <ele>21.5</ele>
        <time>2012-06-26T21:16:41Z</time>
      </trkpt>
      <trkpt lat="48.52801" lon="-2.72617">
        <ele>8</ele>
        <time>2012-06-26T21:17:01Z</time>
      </trkpt>
      <trkpt lat="48.5277" lon="-2.72885">
        <ele>8.6</ele>
        <time>2012-06-26T21:17:21Z</time>
      </trkpt>
      <trkpt lat="48.52778" lon="-2.73235">
        <ele>8</ele>
        <time>2012-06-26T21:17:41Z</time>
      </trkpt>
      <trkpt lat="48.52791" lon="-2.7333">
        <ele>7.7</ele>
        <time>2012-06-26T21:18:01Z</time>
      </trkpt>
      <trkpt lat="48.52783" lon="-2.73481">
        <ele>8.4</ele>
        <time>2012-06-26T21:18:21Z</time>
      </trkpt>
      <trkpt lat="48.52748" lon="-2.73588">
        <ele>6.7</ele>
        <time>2012-06-26T21:18:41Z</time>
      </trkpt>
      <trkpt lat="48.52712" lon="-2.73629">
        <ele>7.6</ele>
        <time>2012-06-26T21:19:01Z</time>
      </trkpt>
      <trkpt lat="48.52556" lon="-2.73694">
        <ele>7</ele>
        <time>2012-06-26T21:19:21Z</time>
      </trkpt>
      <trkpt lat="48.52509" lon="-2.73733">
        <ele>7</ele>
        <time>2012-06-26T21:19:41Z</time>
      </trkpt>
      <trkpt lat="48.52411" lon="-2.73935">
        <ele>8.8</ele>
        <time>2012-06-26T21:20:01Z</time>
      </trkpt>
      <trkpt lat="48.52396" lon="-2.74029">
        <ele>7.7</ele>
        <time>2012-06-26T21:20:21Z</time>
      </trkpt>
      <trkpt lat="48.52416" lon="-2.74087">
        <ele>8</ele>
        <time>2012-06-26T21:20:41Z</time>
      </trkpt>
      <trkpt lat="48.52417" lon="-2.7415">
        <ele>8</ele>
        <time>2012-06-26T21:21:01Z</time>
      </trkpt>
      <trkpt lat="48.52507" lon="-2.74183">
        <ele>7.1</ele>
        <time>2012-06-26T21:21:21Z</time>
      </trkpt>
      <trkpt lat="48.52562" lon="-2.74004">
        <ele>5.9</ele>
        <time>2012-06-26T21:21:41Z</time>
      </trkpt>
      <trkpt lat="48.5261" lon="-2.73937">
        <ele>5.4</ele>
        <time>2012-06-26T21:22:01Z</time>
      </trkpt>
      <trkpt lat="48.52729" lon="-2.73864">
        <ele>9.5</ele>
        <time>2012-06-26T21:22:21Z</time>
      </trkpt>
      <trkpt lat="48.5284" lon="-2.73785">
        <ele>10</ele>
        <time>2012-06-26T21:22:41Z</time>
      </trkpt>
      <trkpt lat="48.52894" lon="-2.73711">
        <ele>11</ele>
        <time>2012-06-26T21:23:01Z</time>
      </trkpt>
      <trkpt lat="48.52919" lon="-2.73631">
        <ele>9.7</ele>
        <time>2012-06-26T21:23:21Z</time>
      </trkpt>
      <trkpt lat="48.52942" lon="-2.73464">
        <ele>8.4</ele>
        <time>2012-06-26T21:23:41Z</time>
      </trkpt>
      <trkpt lat="48.52954" lon="-2.73331">
        <ele>7.7</ele>
        <time>2012-06-26T21:24:01Z</time>
      </trkpt>
      <trkpt lat="48.52939" lon="-2.73188">
        <ele>8.4</ele>
        <time>2012-06-26T21:24:21Z</time>
      </trkpt>
      <trkpt lat="48.52942" lon="-2.731">
        <ele>8</ele>
        <time>2012-06-26T21:24:41Z</time>
      </trkpt>
      <trkpt lat="48.52979" lon="-2.72938">
        <ele>9.3</ele>
        <time>2012-06-26T21:25:01Z</time>
      </trkpt>
      <trkpt lat="48.53018" lon="-2.7272">
        <ele>7.4</ele>
        <time>2012-06-26T21:25:21Z</time>
      </trkpt>
      <trkpt lat="48.53124" lon="-2.72528">
        <ele>8</ele>
        <time>2012-06-26T21:25:41Z</time>
      </trkpt>
      <trkpt lat="48.53191" lon="-2.72484">
        <ele>11.9</ele>
        <time>2012-06-26T21:26:01Z</time>
      </trkpt>
      <trkpt lat="48.53207" lon="-2.72425">
        <ele>11.1</ele>
        <time>2012-06-26T21:26:21Z</time>
      </trkpt>
      <trkpt lat="48.5328" lon="-2.72324">
        <ele>10.7</ele>
        <time>2012-06-26T21:26:41Z</time>
      </trkpt>
      <trkpt lat="48.53359" lon="-2.72205">
        <ele>16.6</ele>
        <time>2012-06-26T21:27:01Z</time>
      </trkpt>
      <trkpt lat="48.53503" lon="-2.72043">
        <ele>26.5</ele>
        <time>2012-06-26T21:27:21Z</time>
      </trkpt>
      <trkpt lat="48.53571" lon="-2.71946">
        <ele>30.7</ele>
        <time>2012-06-26T21:27:41Z</time>
      </trkpt>
      <trkpt lat="48.53614" lon="-2.71917">
        <ele>34.2</ele>
        <time>2012-06-26T21:28:01Z</time>
      </trkpt>
      <trkpt lat="48.53702" lon="-2.71944">
        <ele>32.9</ele>
        <time>2012-06-26T21:28:21Z</time>
      </trkpt>
      <trkpt lat="48.5379" lon="-2.71911">
        <ele>29.5</ele>
        <time>2012-06-26T21:28:41Z</time>
      </trkpt>
      <trkpt lat="48.53861" lon="-2.71904">
        <ele>29.3</ele>
        <time>2012-06-26T21:29:01Z</time>
      </trkpt>
      <trkpt lat="48.53876" lon="-2.71888">
        <ele>21.3</ele>
        <time>2012-06-26T21:29:21Z</time>
      </trkpt>
      <trkpt lat="48.53905" lon="-2.71914">
        <ele>24.3</ele>
        <time>2012-06-26T21:29:41Z</time>
      </trkpt>
      <trkpt lat="48.53978" lon="-2.7186">
        <ele>21.2</ele>
        <time>2012-06-26T21:30:01Z</time>
      </trkpt>
      <trkpt lat="48.54133" lon="-2.7219">
        <ele>15.9</ele>
        <time>2012-06-26T21:30:21Z</time>
      </trkpt>
      <trkpt lat="48.54185" lon="-2.72103">
        <ele>8.5</ele>
        <time>2012-06-26T21:30:41Z</time>
      </trkpt>
      <trkpt lat="48.54353" lon="-2.72282">
        <ele>10.5</ele>
        <time>2012-06-26T21:31:01Z</time>
      </trkpt>
      <trkpt lat="48.54463" lon="-2.72375">
        <ele>7.9</ele>
        <time>2012-06-26T21:31:21Z</time>
      </trkpt>
      <trkpt lat="48.54423" lon="-2.72434">
        <ele>14.6</ele>
        <time>2012-06-26T21:31:41Z</time>
      </trkpt>
      <trkpt lat="48.54494" lon="-2.7252">
        <ele>15.9</ele>
        <time>2012-06-26T21:32:01Z</time>
      </trkpt>
      <trkpt lat="48.54531" lon="-2.72541">
        <ele>14.1</ele>
        <time>2012-06-26T21:32:21Z</time>
      </trkpt>
      <trkpt lat="48.54528" lon="-2.72651">
        <ele>21.4</ele>
        <time>2012-06-26T21:32:41Z</time>
      </trkpt>
      <trkpt lat="48.54509" lon="-2.72729">
        <ele>28</ele>
        <time>2012-06-26T21:33:01Z</time>
      </trkpt>
      <trkpt lat="48.5454" lon="-2.72722">
        <ele>29.1</ele>
        <time>2012-06-26T21:33:21Z</time>
      </trkpt>
      <trkpt lat="48.54598" lon="-2.72687">
        <ele>31.9</ele>
        <time>2012-06-26T21:33:41Z</time>
      </trkpt>
      <trkpt lat="48.54664" lon="-2.72637">
        <ele>24.8</ele>
        <time>2012-06-26T21:34:01Z</time>
      </trkpt>
      <trkpt lat="48.54678" lon="-2.72642">
        <ele>26.5</ele>
        <time>2012-06-26T21:34:21Z</time>
      </trkpt>
      <trkpt lat="48.54749" lon="-2.7253">
        <ele>28.3</ele>
        <time>2012-06-26T21:34:41Z</time>
      </trkpt>
      <trkpt lat="48.54805" lon="-2.72403">
        <ele>30.1</ele>
        <time>2012-06-26T21:35:01Z</time>
      </trkpt>
      <trkpt lat="48.54881" lon="-2.7228">
        <ele>28.6</ele>
        <time>2012-06-26T21:35:21Z</time>
      </trkpt>
      <trkpt lat="48.54956" lon="-2.72252">
        <ele>46.3</ele>
        <time>2012-06-26T21:35:41Z</time>
      </trkpt>
      <trkpt lat="48.54964" lon="-2.72213">
        <ele>46.2</ele>
        <time>2012-06-26T21:36:01Z</time>
      </trkpt>
      <trkpt lat="48.55074" lon="-2.72092">
        <ele>60.1</ele>
        <time>2012-06-26T21:36:21Z</time>
      </trkpt>
      <trkpt lat="48.55097" lon="-2.72032">
        <ele>60.9</ele>
        <time>2012-06-26T21:36:41Z</time>
      </trkpt>
      <trkpt lat="48.55139" lon="-2.71987">
        <ele>63.2</ele>
        <time>2012-06-26T21:37:01Z</time>
      </trkpt>
      <trkpt lat="48.55186" lon="-2.71954">
        <ele>60.8</ele>
        <time>2012-06-26T21:37:21Z</time>
      </trkpt>
      <trkpt lat="48.55195" lon="-2.71919">
        <ele>59.2</ele>
        <time>2012-06-26T21:37:41Z</time>
      </trkpt>
      <trkpt lat="48.55184" lon="-2.71827">
        <ele>50.1</ele>
        <time>2012-06-26T21:38:01Z</time>
      </trkpt>
      <trkpt lat="48.55262" lon="-2.71662">
        <ele>46.1</ele>
        <time>2012-06-26T21:38:21Z</time>
      </trkpt>
      <trkpt lat="48.55313" lon="-2.71513">
        <ele>50.7</ele>
        <time>2012-06-26T21:38:41Z</time>
      </trkpt>
      <trkpt lat="48.55319" lon="-2.71451">
        <ele>49</ele>
        <time>2012-06-26T21:39:01Z</time>
      </trkpt>
      <trkpt lat="48.55394" lon="-2.71329">
        <ele>43.6</ele>
        <time>2012-06-26T21:39:21Z</time>
      </trkpt>
      <trkpt lat="48.55463" lon="-2.71429">
        <ele>58.6</ele>
        <time>2012-06-26T21:39:41Z</time>
      </trkpt>
      <trkpt lat="48.55486" lon="-2.71436">
        <ele>52.7</ele>
        <time>2012-06-26T21:40:01Z</time>
      </trkpt>
      <trkpt lat="48.55488" lon="-2.71506">
        <ele>58.1</ele>
        <time>2012-06-26T21:40:21Z</time>
      </trkpt>
      <trkpt lat="48.55444" lon="-2.71642">
        <ele>66</ele>
        <time>2012-06-26T21:40:41Z</time>
      </trkpt>
      <trkpt lat="48.55466" lon="-2.71726">
        <ele>64.2</ele>
        <time>2012-06-26T21:41:01Z</time>
      </trkpt>
      <trkpt lat="48.55469" lon="-2.71827">
        <ele>68.4</ele>
        <time>2012-06-26T21:41:21Z</time>
      </trkpt>
      <trkpt lat="48.5545" lon="-2.71912">
        <ele>66.8</ele>
        <time>2012-06-26T21:41:41Z</time>
      </trkpt>
      <trkpt lat="48.55475" lon="-2.71921">
        <ele>60.8</ele>
        <time>2012-06-26T21:42:01Z</time>
      </trkpt>
      <trkpt lat="48.55478" lon="-2.71959">
        <ele>55.5</ele>
        <time>2012-06-26T21:42:21Z</time>
      </trkpt>
      <trkpt lat="48.55528" lon="-2.72043">
        <ele>46.1</ele>
        <time>2012-06-26T21:42:41Z</time>
      </trkpt>
      <trkpt lat="48.55535" lon="-2.72112">
        <ele>44.9</ele>
        <time>2012-06-26T21:43:01Z</time>
      </trkpt>
      <trkpt lat="48.55569" lon="-2.72148">
        <ele>37.4</ele>
        <time>2012-06-26T21:43:21Z</time>
      </trkpt>
      <trkpt lat="48.55597" lon="-2.72213">
        <ele>41.5</ele>
        <time>2012-06-26T21:43:41Z</time>
      </trkpt>
      <trkpt lat="48.55584" lon="-2.72335">
        <ele>50.7</ele>
        <time>2012-06-26T21:44:01Z</time>
      </trkpt>
      <trkpt lat="48.55616" lon="-2.72435">
        <ele>37.4</ele>
        <time>2012-06-26T21:44:21Z</time>
      </trkpt>
      <trkpt lat="48.55619" lon="-2.72553">
        <ele>25.2</ele>
        <time>2012-06-26T21:44:41Z</time>
      </trkpt>
      <trkpt lat="48.55603" lon="-2.72594">
        <ele>18.1</ele>
        <time>2012-06-26T21:45:01Z</time>
      </trkpt>
      <trkpt lat="48.55667" lon="-2.72601">
        <ele>7</ele>
        <time>2012-06-26T21:45:21Z</time>
      </trkpt>
      <trkpt lat="48.55722" lon="-2.72702">
        <ele>21.9</ele>
        <time>2012-06-26T21:45:41Z</time>
      </trkpt>
      <trkpt lat="48.55711" lon="-2.72747">
        <ele>37.1</ele>
        <time>2012-06-26T21:46:01Z</time>
      </trkpt>
      <trkpt lat="48.55738" lon="-2.72759">
        <ele>37.2</ele>
        <time>2012-06-26T21:46:21Z</time>
      </trkpt>
      <trkpt lat="48.55775" lon="-2.73023">
        <ele>54.5</ele>
        <time>2012-06-26T21:46:41Z</time>
      </trkpt>
      <trkpt lat="48.55825" lon="-2.73081">
        <ele>52.5</ele>
        <time>2012-06-26T21:47:01Z</time>
      </trkpt>
      <trkpt lat="48.55878" lon="-2.73239">
        <ele>57.2</ele>
        <time>2012-06-26T21:47:21Z</time>
      </trkpt>
      <trkpt lat="48.55921" lon="-2.73308">
        <ele>65.5</ele>
        <time>2012-06-26T21:47:41Z</time>
      </trkpt>
      <trkpt lat="48.55987" lon="-2.7336">
        <ele>68.4</ele>
        <time>2012-06-26T21:48:01Z</time>
      </trkpt>
      <trkpt lat="48.55991" lon="-2.73482">
        <ele>72.2</ele>
        <time>2012-06-26T21:48:21Z</time>
      </trkpt>
      <trkpt lat="48.5598" lon="-2.73589">
        <ele>75.5</ele>
        <time>2012-06-26T21:48:41Z</time>
      </trkpt>
      <trkpt lat="48.55991" lon="-2.73681">
        <ele>74.6</ele>
        <time>2012-06-26T21:49:01Z</time>
      </trkpt>
      <trkpt lat="48.56017" lon="-2.73732">
        <ele>62</ele>
        <time>2012-06-26T21:49:21Z</time>
      </trkpt>
      <trkpt lat="48.5601" lon="-2.7386">
        <ele>48.7</ele>
        <time>2012-06-26T21:49:41Z</time>
      </trkpt>
      <trkpt lat="48.55992" lon="-2.73907">
        <ele>49.5</ele>
        <time>2012-06-26T21:50:01Z</time>
      </trkpt>
      <trkpt lat="48.55998" lon="-2.7403">
        <ele>42.8</ele>
        <time>2012-06-26T21:50:21Z</time>
      </trkpt>
      <trkpt lat="48.56045" lon="-2.74172">
        <ele>19.5</ele>
        <time>2012-06-26T21:50:41Z</time>
      </trkpt>
      <trkpt lat="48.56038" lon="-2.74263">
        <ele>21.5</ele>
        <time>2012-06-26T21:51:01Z</time>
      </trkpt>
      <trkpt lat="48.56053" lon="-2.74333">
        <ele>11.5</ele>
        <time>2012-06-26T21:51:21Z</time>
      </trkpt>
      <trkpt lat="48.56075" lon="-2.74309">
        <ele>8.3</ele>
        <time>2012-06-26T21:51:41Z</time>
      </trkpt>
      <trkpt lat="48.56282" lon="-2.75235">
        <ele>7.5</ele>
        <time>2012-06-26T21:52:01Z</time>
      </trkpt>
      <trkpt lat="48.56493" lon="-2.75964">
        <ele>6.9</ele>
        <time>2012-06-26T21:52:21Z</time>
      </trkpt>
      <trkpt lat="48.56546" lon="-2.76104">
        <ele>7.8</ele>
        <time>2012-06-26T21:52:41Z</time>
      </trkpt>
      <trkpt lat="48.56494" lon="-2.76149">
        <ele>15.7</ele>
        <time>2012-06-26T21:53:01Z</time>
      </trkpt>
      <trkpt lat="48.56545" lon="-2.76343">
        <ele>24.3</ele>
        <time>2012-06-26T21:53:21Z</time>
      </trkpt>
      <trkpt lat="48.56575" lon="-2.76334">
        <ele>20.7</ele>
        <time>2012-06-26T21:53:41Z</time>
      </trkpt>
      <trkpt lat="48.56605" lon="-2.76422">
        <ele>29.6</ele>
        <time>2012-06-26T21:54:01Z</time>
      </trkpt>
      <trkpt lat="48.5669" lon="-2.76579">
        <ele>33.7</ele>
        <time>2012-06-26T21:54:21Z</time>
      </trkpt>
      <trkpt lat="48.56716" lon="-2.76605">
        <ele>34.3</ele>
        <time>2012-06-26T21:54:41Z</time>
      </trkpt>
      <trkpt lat="48.56753" lon="-2.76662">
        <ele>36.4</ele>
        <time>2012-06-26T21:55:01Z</time>
      </trkpt>
      <trkpt lat="48.56801" lon="-2.76778">
        <ele>39.4</ele>
        <time>2012-06-26T21:55:21Z</time>
      </trkpt>
      <trkpt lat="48.56831" lon="-2.76962">
        <ele>32</ele>
        <time>2012-06-26T21:55:41Z</time>
      </trkpt>
      <trkpt lat="48.56854" lon="-2.77023">
        <ele>17.8</ele>
        <time>2012-06-26T21:56:01Z</time>
      </trkpt>
      <trkpt lat="48.56851" lon="-2.77055">
        <ele>12.9</ele>
        <time>2012-06-26T21:56:21Z</time>
      </trkpt>
      <trkpt lat="48.56883" lon="-2.7703">
        <ele>11.9</ele>
        <time>2012-06-26T21:56:41Z</time>
      </trkpt>
      <trkpt lat="48.56893" lon="-2.77206">
        <ele>14.9</ele>
        <time>2012-06-26T21:57:01Z</time>
      </trkpt>
      <trkpt lat="48.56863" lon="-2.77275">
        <ele>13.1</ele>
        <time>2012-06-26T21:57:21Z</time>
      </trkpt>
      <trkpt lat="48.56851" lon="-2.7733">
        <ele>13.2</ele>
        <time>2012-06-26T21:57:41Z</time>
      </trkpt>
      <trkpt lat="48.56858" lon="-2.77378">
        <ele>15.1</ele>
        <time>2012-06-26T21:58:01Z</time>
      </trkpt>
      <trkpt lat="48.56954" lon="-2.77331">
        <ele>21</ele>
        <time>2012-06-26T21:58:21Z</time>
      </trkpt>
      <trkpt lat="48.57008" lon="-2.77353">
        <ele>27.1</ele>
        <time>2012-06-26T21:58:41Z</time>
      </trkpt>
      <trkpt lat="48.57142" lon="-2.77549">
        <ele>50.8</ele>
        <time>2012-06-26T21:59:01Z</time>
      </trkpt>
      <trkpt lat="48.572" lon="-2.77568">
        <ele>52.4</ele>
        <time>2012-06-26T21:59:21Z</time>
      </trkpt>
      <trkpt lat="48.57228" lon="-2.77548">
        <ele>42.5</ele>
        <time>2012-06-26T21:59:41Z</time>
      </trkpt>
      <trkpt lat="48.57341" lon="-2.77599">
        <ele>53.3</ele>
        <time>2012-06-26T22:00:01Z</time>
      </trkpt>
      <trkpt lat="48.57444" lon="-2.77604">
        <ele>69.8</ele>
        <time>2012-06-26T22:00:21Z</time>
      </trkpt>
      <trkpt lat="48.57463" lon="-2.77653">
        <ele>76.7</ele>
        <time>2012-06-26T22:00:41Z</time>
      </trkpt>
      <trkpt lat="48.57506" lon="-2.77698">
        <ele>76</ele>
        <time>2012-06-26T22:01:01Z</time>
      </trkpt>
      <trkpt lat="48.57527" lon="-2.77783">
        <ele>80.2</ele>
        <time>2012-06-26T22:01:21Z</time>
      </trkpt>
      <trkpt lat="48.5755" lon="-2.77795">
        <ele>79.5</ele>
        <time>2012-06-26T22:01:41Z</time>
      </trkpt>
      <trkpt lat="48.57559" lon="-2.77852">
        <ele>81.1</ele>
        <time>2012-06-26T22:02:01Z</time>
      </trkpt>
      <trkpt lat="48.57575" lon="-2.77873">
        <ele>82.1</ele>
        <time>2012-06-26T22:02:21Z</time>
      </trkpt>
      <trkpt lat="48.57585" lon="-2.77811">
        <ele>80.3</ele>
        <time>2012-06-26T22:02:41Z</time>
      </trkpt>
      <trkpt lat="48.57578" lon="-2.77721">
        <ele>82.5</ele>
        <time>2012-06-26T22:03:01Z</time>
      </trkpt>
      <trkpt lat="48.57617" lon="-2.77571">
        <ele>78.4</ele>
        <time>2012-06-26T22:03:21Z</time>
      </trkpt>
      <trkpt lat="48.57674" lon="-2.77555">
        <ele>76.3</ele>
        <time>2012-06-26T22:03:41Z</time>
      </trkpt>
      <trkpt lat="48.57735" lon="-2.77587">
        <ele>79.1</ele>
        <time>2012-06-26T22:04:01Z</time>
      </trkpt>
      <trkpt lat="48.57815" lon="-2.77673">
        <ele>77.5</ele>
        <time>2012-06-26T22:04:21Z</time>
      </trkpt>
      <trkpt lat="48.57852" lon="-2.77653">
        <ele>73.2</ele>
        <time>2012-06-26T22:04:41Z</time>
      </trkpt>
      <trkpt lat="48.57893" lon="-2.7764">
        <ele>72.3</ele>
        <time>2012-06-26T22:05:01Z</time>
      </trkpt>
      <trkpt lat="48.57863" lon="-2.77546">
        <ele>21.9</ele>
        <time>2012-06-26T22:05:21Z</time>
      </trkpt>
      <trkpt lat="48.57932" lon="-2.77512">
        <ele>12.5</ele>
        <time>2012-06-26T22:05:41Z</time>
      </trkpt>
      <trkpt lat="48.57967" lon="-2.77559">
        <ele>18</ele>
        <time>2012-06-26T22:06:01Z</time>
      </trkpt>
      <trkpt lat="48.58019" lon="-2.7757">
        <ele>17.5</ele>
        <time>2012-06-26T22:06:21Z</time>
      </trkpt>
      <trkpt lat="48.5803" lon="-2.77719">
        <ele>28.8</ele>
        <time>2012-06-26T22:06:41Z</time>
      </trkpt>
      <trkpt lat="48.57957" lon="-2.77809">
        <ele>49.9</ele>
        <time>2012-06-26T22:07:01Z</time>
      </trkpt>
      <trkpt lat="48.57929" lon="-2.77992">
        <ele>79.9</ele>
        <time>2012-06-26T22:07:21Z</time>
      </trkpt>
      <trkpt lat="48.5794" lon="-2.7799">
        <ele>79.7</ele>
        <time>2012-06-26T22:07:41Z</time>
      </trkpt>
      <trkpt lat="48.57971" lon="-2.77942">
        <ele>75.4</ele>
        <time>2012-06-26T22:08:01Z</time>
      </trkpt>
      <trkpt lat="48.57994" lon="-2.77937">
        <ele>77.1</ele>
        <time>2012-06-26T22:08:21Z</time>
      </trkpt>
      <trkpt lat="48.57999" lon="-2.77913">
        <ele>76.2</ele>
        <time>2012-06-26T22:08:41Z</time>
      </trkpt>
      <trkpt lat="48.58068" lon="-2.77828">
        <ele>68.9</ele>
        <time>2012-06-26T22:09:01Z</time>
      </trkpt>
      <trkpt lat="48.58106" lon="-2.77852">
        <ele>74.9</ele>
        <time>2012-06-26T22:09:21Z</time>
      </trkpt>
      <trkpt lat="48.58148" lon="-2.77974">
        <ele>73.5</ele>
        <time>2012-06-26T22:09:41Z</time>
      </trkpt>
      <trkpt lat="48.58197" lon="-2.77993">
        <ele>71.7</ele>
        <time>2012-06-26T22:10:01Z</time>
      </trkpt>
      <trkpt lat="48.58315" lon="-2.77952">
        <ele>65.3</ele>
        <time>2012-06-26T22:10:21Z</time>
      </trkpt>
      <trkpt lat="48.58354" lon="-2.77957">
        <ele>67.5</ele>
        <time>2012-06-26T22:10:41Z</time>
      </trkpt>
      <trkpt lat="48.58393" lon="-2.78021">
        <ele>70.8</ele>
        <time>2012-06-26T22:11:01Z</time>
      </trkpt>
      <trkpt lat="48.58405" lon="-2.7807">
        <ele>67.8</ele>
        <time>2012-06-26T22:11:21Z</time>
      </trkpt>
      <trkpt lat="48.58391" lon="-2.78096">
        <ele>74.3</ele>
        <time>2012-06-26T22:11:41Z</time>
      </trkpt>
      <trkpt lat="48.58404" lon="-2.78174">
        <ele>73.8</ele>
        <time>2012-06-26T22:12:01Z</time>
      </trkpt>
      <trkpt lat="48.58439" lon="-2.78243">
        <ele>70.3</ele>
        <time>2012-06-26T22:12:21Z</time>
      </trkpt>
      <trkpt lat="48.58456" lon="-2.78378">
        <ele>71.3</ele>
        <time>2012-06-26T22:12:41Z</time>
      </trkpt>
      <trkpt lat="48.5842" lon="-2.78427">
        <ele>72.2</ele>
        <time>2012-06-26T22:13:01Z</time>
      </trkpt>
      <trkpt lat="48.58388" lon="-2.78564">
        <ele>48.4</ele>
        <time>2012-06-26T22:13:21Z</time>
      </trkpt>
      <trkpt lat="48.58393" lon="-2.78586">
        <ele>41.4</ele>
        <time>2012-06-26T22:13:41Z</time>
      </trkpt>
      <trkpt lat="48.5837" lon="-2.78628">
        <ele>31.4</ele>
        <time>2012-06-26T22:14:01Z</time>
      </trkpt>
      <trkpt lat="48.58344" lon="-2.78642">
        <ele>31</ele>
        <time>2012-06-26T22:14:21Z</time>
      </trkpt>
      <trkpt lat="48.58364" lon="-2.78661">
        <ele>28.4</ele>
        <time>2012-06-26T22:14:41Z</time>
      </trkpt>
      <trkpt lat="48.58392" lon="-2.789">
        <ele>28.1</ele>
        <time>2012-06-26T22:15:01Z</time>
      </trkpt>
      <trkpt lat="48.58438" lon="-2.78945">
        <ele>22.1</ele>
        <time>2012-06-26T22:15:21Z</time>
      </trkpt>
      <trkpt lat="48.58482" lon="-2.78953">
        <ele>18.8</ele>
        <time>2012-06-26T22:15:41Z</time>
      </trkpt>
      <trkpt lat="48.5852" lon="-2.78995">
        <ele>18.4</ele>
        <time>2012-06-26T22:16:01Z</time>
      </trkpt>
      <trkpt lat="48.58473" lon="-2.79036">
        <ele>35.5</ele>
        <time>2012-06-26T22:16:21Z</time>
      </trkpt>
      <trkpt lat="48.58435" lon="-2.79137">
        <ele>37.2</ele>
        <time>2012-06-26T22:16:41Z</time>
      </trkpt>
      <trkpt lat="48.58434" lon="-2.79271">
        <ele>49.2</ele>
        <time>2012-06-26T22:17:01Z</time>
      </trkpt>
      <trkpt lat="48.5849" lon="-2.79515">
        <ele>58.1</ele>
        <time>2012-06-26T22:17:21Z</time>
      </trkpt>
      <trkpt lat="48.58474" lon="-2.79545">
        <ele>62.8</ele>
        <time>2012-06-26T22:17:41Z</time>
      </trkpt>
      <trkpt lat="48.58508" lon="-2.79615">
        <ele>64.2</ele>
        <time>2012-06-26T22:18:01Z</time>
      </trkpt>
      <trkpt lat="48.58533" lon="-2.79713">
        <ele>67.5</ele>
        <time>2012-06-26T22:18:21Z</time>
      </trkpt>
      <trkpt lat="48.5857" lon="-2.79763">
        <ele>63.9</ele>
        <time>2012-06-26T22:18:41Z</time>
      </trkpt>
      <trkpt lat="48.58611" lon="-2.79891">
        <ele>71.9</ele>
        <time>2012-06-26T22:19:01Z</time>
      </trkpt>
      <trkpt lat="48.58652" lon="-2.79929">
        <ele>64.5</ele>
        <time>2012-06-26T22:19:21Z</time>
      </trkpt>
      <trkpt lat="48.58677" lon="-2.79979">
        <ele>62.4</ele>
        <time>2012-06-26T22:19:41Z</time>
      </trkpt>
      <trkpt lat="48.58723" lon="-2.80025">
        <ele>60.9</ele>
        <time>2012-06-26T22:20:01Z</time>
      </trkpt>
      <trkpt lat="48.58747" lon="-2.80074">
        <ele>63.7</ele>
        <time>2012-06-26T22:20:21Z</time>
      </trkpt>
      <trkpt lat="48.58808" lon="-2.80153">
        <ele>66.7</ele>
        <time>2012-06-26T22:20:41Z</time>
      </trkpt>
      <trkpt lat="48.58856" lon="-2.80169">
        <ele>65</ele>
        <time>2012-06-26T22:21:01Z</time>
      </trkpt>
      <trkpt lat="48.58877" lon="-2.80216">
        <ele>68.4</ele>
        <time>2012-06-26T22:21:21Z</time>
      </trkpt>
      <trkpt lat="48.58905" lon="-2.80241">
        <ele>63.5</ele>
        <time>2012-06-26T22:21:41Z</time>
      </trkpt>
      <trkpt lat="48.58919" lon="-2.80299">
        <ele>64.2</ele>
        <time>2012-06-26T22:22:01Z</time>
      </trkpt>
      <trkpt lat="48.58908" lon="-2.80312">
        <ele>68.2</ele>
        <time>2012-06-26T22:22:21Z</time>
      </trkpt>
      <trkpt lat="48.58929" lon="-2.80383">
        <ele>64.5</ele>
        <time>2012-06-26T22:22:41Z</time>
      </trkpt>
      <trkpt lat="48.58975" lon="-2.80438">
        <ele>66.5</ele>
        <time>2012-06-26T22:23:01Z</time>
      </trkpt>
      <trkpt lat="48.58971" lon="-2.80488">
        <ele>69.3</ele>
        <time>2012-06-26T22:23:21Z</time>
      </trkpt>
      <trkpt lat="48.59023" lon="-2.80538">
        <ele>65.4</ele>
        <time>2012-06-26T22:23:41Z</time>
      </trkpt>
      <trkpt lat="48.59084" lon="-2.80644">
        <ele>43.4</ele>
        <time>2012-06-26T22:24:01Z</time>
      </trkpt>
      <trkpt lat="48.59122" lon="-2.80681">
        <ele>36.7</ele>
        <time>2012-06-26T22:24:21Z</time>
      </trkpt>
      <trkpt lat="48.592" lon="-2.80841">
        <ele>8.6</ele>
        <time>2012-06-26T22:24:41Z</time>
      </trkpt>
      <trkpt lat="48.59159" lon="-2.8088">
        <ele>24.5</ele>
        <time>2012-06-26T22:25:01Z</time>
      </trkpt>
      <trkpt lat="48.59208" lon="-2.80933">
        <ele>21.7</ele>
        <time>2012-06-26T22:25:21Z</time>
      </trkpt>
      <trkpt lat="48.59214" lon="-2.80978">
        <ele>32.6</ele>
        <time>2012-06-26T22:25:41Z</time>
      </trkpt>
      <trkpt lat="48.59268" lon="-2.81085">
        <ele>26.5</ele>
        <time>2012-06-26T22:26:01Z</time>
      </trkpt>
      <trkpt lat="48.59264" lon="-2.81233">
        <ele>30.4</ele>
        <time>2012-06-26T22:26:21Z</time>
      </trkpt>
      <trkpt lat="48.5923" lon="-2.81268">
        <ele>48.7</ele>
        <time>2012-06-26T22:26:41Z</time>
      </trkpt>
      <trkpt lat="48.59223" lon="-2.81329">
        <ele>45.7</ele>
        <time>2012-06-26T22:27:01Z</time>
      </trkpt>
      <trkpt lat="48.59235" lon="-2.81356">
        <ele>40.1</ele>
        <time>2012-06-26T22:27:21Z</time>
      </trkpt>
      <trkpt lat="48.59205" lon="-2.81422">
        <ele>55.9</ele>
        <time>2012-06-26T22:27:41Z</time>
      </trkpt>
      <trkpt lat="48.59236" lon="-2.81464">
        <ele>46.6</ele>
        <time>2012-06-26T22:28:01Z</time>
      </trkpt>
      <trkpt lat="48.59258" lon="-2.81566">
        <ele>29.9</ele>
        <time>2012-06-26T22:28:21Z</time>
      </trkpt>
      <trkpt lat="48.59244" lon="-2.81717">
        <ele>48.5</ele>
        <time>2012-06-26T22:28:41Z</time>
      </trkpt>
      <trkpt lat="48.59215" lon="-2.81775">
        <ele>43.3</ele>
        <time>2012-06-26T22:29:01Z</time>
      </trkpt>
      <trkpt lat="48.59213" lon="-2.81818">
        <ele>46.4</ele>
        <time>2012-06-26T22:29:21Z</time>
      </trkpt>
      <trkpt lat="48.59285" lon="-2.81887">
        <ele>42.6</ele>
        <time>2012-06-26T22:29:41Z</time>
      </trkpt>
      <trkpt lat="48.59321" lon="-2.81995">
        <ele>40.8</ele>
        <time>2012-06-26T22:30:01Z</time>
      </trkpt>
      <trkpt lat="48.5934" lon="-2.8202">
        <ele>37.4</ele>
        <time>2012-06-26T22:30:21Z</time>
      </trkpt>
      <trkpt lat="48.59324" lon="-2.82042">
        <ele>46.6</ele>
        <time>2012-06-26T22:30:41Z</time>
      </trkpt>
      <trkpt lat="48.59405" lon="-2.82116">
        <ele>32</ele>
        <time>2012-06-26T22:31:01Z</time>
      </trkpt>
      <trkpt lat="48.59431" lon="-2.82177">
        <ele>29</ele>
        <time>2012-06-26T22:31:21Z</time>
      </trkpt>
      <trkpt lat="48.59479" lon="-2.82192">
        <ele>18.6</ele>
        <time>2012-06-26T22:31:41Z</time>
      </trkpt>
      <trkpt lat="48.59568" lon="-2.8227">
        <ele>15</ele>
        <time>2012-06-26T22:32:01Z</time>
      </trkpt>
      <trkpt lat="48.59576" lon="-2.82254">
        <ele>10.2</ele>
        <time>2012-06-26T22:32:21Z</time>
      </trkpt>
      <trkpt lat="48.59711" lon="-2.82381">
        <ele>7.8</ele>
        <time>2012-06-26T22:32:41Z</time>
      </trkpt>
      <trkpt lat="48.59711" lon="-2.82402">
        <ele>8</ele>
        <time>2012-06-26T22:33:01Z</time>
      </trkpt>
      <trkpt lat="48.59997" lon="-2.82535">
        <ele>7</ele>
        <time>2012-06-26T22:33:21Z</time>
      </trkpt>
      <trkpt lat="48.60069" lon="-2.81962">
        <ele>6.4</ele>
        <time>2012-06-26T22:33:41Z</time>
      </trkpt>
      <trkpt lat="48.60143" lon="-2.82024">
        <ele>5.2</ele>
        <time>2012-06-26T22:34:01Z</time>
      </trkpt>
      <trkpt lat="48.60174" lon="-2.81976">
        <ele>6.6</ele>
        <time>2012-06-26T22:34:21Z</time>
      </trkpt>
      <trkpt lat="48.6028" lon="-2.81935">
        <ele>10.4</ele>
        <time>2012-06-26T22:34:41Z</time>
      </trkpt>
      <trkpt lat="48.6029" lon="-2.81953">
        <ele>17.7</ele>
        <time>2012-06-26T22:35:01Z</time>
      </trkpt>
      <trkpt lat="48.60365" lon="-2.81973">
        <ele>25.2</ele>
        <time>2012-06-26T22:35:21Z</time>
      </trkpt>
      <trkpt lat="48.60384" lon="-2.82019">
        <ele>27.9</ele>
        <time>2012-06-26T22:35:41Z</time>
      </trkpt>
      <trkpt lat="48.60433" lon="-2.82034">
        <ele>30.6</ele>
        <time>2012-06-26T22:36:01Z</time>
      </trkpt>
      <trkpt lat="48.60458" lon="-2.81998">
        <ele>22.6</ele>
        <time>2012-06-26T22:36:21Z</time>
      </trkpt>
      <trkpt lat="48.60493" lon="-2.81979">
        <ele>28.7</ele>
        <time>2012-06-26T22:36:41Z</time>
      </trkpt>
      <trkpt lat="48.60558" lon="-2.81996">
        <ele>34.6</ele>
        <time>2012-06-26T22:37:01Z</time>
      </trkpt>
      <trkpt lat="48.6058" lon="-2.81989">
        <ele>36</ele>
        <time>2012-06-26T22:37:21Z</time>
      </trkpt>
      <trkpt lat="48.60654" lon="-2.81993">
        <ele>36.2</ele>
        <time>2012-06-26T22:37:41Z</time>
      </trkpt>
      <trkpt lat="48.60677" lon="-2.82006">
        <ele>39.6</ele>
        <time>2012-06-26T22:38:01Z</time>
      </trkpt>
      <trkpt lat="48.60761" lon="-2.81966">
        <ele>29.2</ele>
        <time>2012-06-26T22:38:21Z</time>
      </trkpt>
      <trkpt lat="48.60778" lon="-2.81967">
        <ele>34.2</ele>
        <time>2012-06-26T22:38:41Z</time>
      </trkpt>
      <trkpt lat="48.60826" lon="-2.81907">
        <ele>38.6</ele>
        <time>2012-06-26T22:39:01Z</time>
      </trkpt>
      <trkpt lat="48.6083" lon="-2.81787">
        <ele>25</ele>
        <time>2012-06-26T22:39:21Z</time>
      </trkpt>
      <trkpt lat="48.60856" lon="-2.81784">
        <ele>31.1</ele>
        <time>2012-06-26T22:39:41Z</time>
      </trkpt>
      <trkpt lat="48.60921" lon="-2.81721">
        <ele>31</ele>
        <time>2012-06-26T22:40:01Z</time>
      </trkpt>
      <trkpt lat="48.60977" lon="-2.81627">
        <ele>29.6</ele>
        <time>2012-06-26T22:40:21Z</time>
      </trkpt>
      <trkpt lat="48.60983" lon="-2.81589">
        <ele>22.7</ele>
        <time>2012-06-26T22:40:41Z</time>
      </trkpt>
      <trkpt lat="48.60999" lon="-2.81567">
        <ele>27.4</ele>
        <time>2012-06-26T22:41:01Z</time>
      </trkpt>
      <trkpt lat="48.61028" lon="-2.81468">
        <ele>27.6</ele>
        <time>2012-06-26T22:41:21Z</time>
      </trkpt>
      <trkpt lat="48.61052" lon="-2.81461">
        <ele>30.6</ele>
        <time>2012-06-26T22:41:41Z</time>
      </trkpt>
      <trkpt lat="48.61085" lon="-2.81493">
        <ele>37.8</ele>
        <time>2012-06-26T22:42:01Z</time>
      </trkpt>
      <trkpt lat="48.61137" lon="-2.81608">
        <ele>35.8</ele>
        <time>2012-06-26T22:42:21Z</time>
      </trkpt>
      <trkpt lat="48.6119" lon="-2.81611">
        <ele>35.1</ele>
        <time>2012-06-26T22:42:41Z</time>
      </trkpt>
      <trkpt lat="48.61246" lon="-2.81623">
        <ele>40.3</ele>
        <time>2012-06-26T22:43:01Z</time>
      </trkpt>
      <trkpt lat="48.61299" lon="-2.81648">
        <ele>39.7</ele>
        <time>2012-06-26T22:43:21Z</time>
      </trkpt>
      <trkpt lat="48.61393" lon="-2.81655">
        <ele>41.1</ele>
        <time>2012-06-26T22:43:41Z</time>
      </trkpt>
      <trkpt lat="48.61469" lon="-2.81626">
        <ele>35.5</ele>
        <time>2012-06-26T22:44:01Z</time>
      </trkpt>
      <trkpt lat="48.61527" lon="-2.81547">
        <ele>25.6</ele>
        <time>2012-06-26T22:44:21Z</time>
      </trkpt>
      <trkpt lat="48.61571" lon="-2.81645">
        <ele>39.4</ele>
        <time>2012-06-26T22:44:41Z</time>
      </trkpt>
      <trkpt lat="48.61643" lon="-2.81632">
        <ele>35.6</ele>
        <time>2012-06-26T22:45:01Z</time>
      </trkpt>
      <trkpt lat="48.6165" lon="-2.81654">
        <ele>32.3</ele>
        <time>2012-06-26T22:45:21Z</time>
      </trkpt>
      <trkpt lat="48.61638" lon="-2.81702">
        <ele>47.9</ele>
        <time>2012-06-26T22:45:41Z</time>
      </trkpt>
      <trkpt lat="48.61748" lon="-2.81883">
        <ele>39.2</ele>
        <time>2012-06-26T22:46:01Z</time>
      </trkpt>
      <trkpt lat="48.61755" lon="-2.8192">
        <ele>38.3</ele>
        <time>2012-06-26T22:46:21Z</time>
      </trkpt>
      <trkpt lat="48.61826" lon="-2.81847">
        <ele>28.7</ele>
        <time>2012-06-26T22:46:41Z</time>
      </trkpt>
      <trkpt lat="48.61868" lon="-2.81837">
        <ele>26</ele>
        <time>2012-06-26T22:47:01Z</time>
      </trkpt>
      <trkpt lat="48.61877" lon="-2.81894">
        <ele>40.8</ele>
        <time>2012-06-26T22:47:21Z</time>
      </trkpt>
      <trkpt lat="48.61968" lon="-2.81962">
        <ele>30.7</ele>
        <time>2012-06-26T22:47:41Z</time>
      </trkpt>
      <trkpt lat="48.62005" lon="-2.81962">
        <ele>29.3</ele>
        <time>2012-06-26T22:48:01Z</time>
      </trkpt>
      <trkpt lat="48.62024" lon="-2.81993">
        <ele>34.8</ele>
        <time>2012-06-26T22:48:21Z</time>
      </trkpt>
      <trkpt lat="48.62028" lon="-2.82024">
        <ele>39.4</ele>
        <time>2012-06-26T22:48:41Z</time>
      </trkpt>
      <trkpt lat="48.62059" lon="-2.82041">
        <ele>29.9</ele>
        <time>2012-06-26T22:49:01Z</time>
      </trkpt>
      <trkpt lat="48.62073" lon="-2.82078">
        <ele>38.6</ele>
        <time>2012-06-26T22:49:21Z</time>
      </trkpt>
      <trkpt lat="48.62121" lon="-2.82091">
        <ele>33.8</ele>
        <time>2012-06-26T22:49:41Z</time>
      </trkpt>
      <trkpt lat="48.62152" lon="-2.82157">
        <ele>37.7</ele>
        <time>2012-06-26T22:50:01Z</time>
      </trkpt>
      <trkpt lat="48.62238" lon="-2.82219">
        <ele>21.3</ele>
        <time>2012-06-26T22:50:21Z</time>
      </trkpt>
      <trkpt lat="48.62242" lon="-2.82278">
        <ele>32.6</ele>
        <time>2012-06-26T22:50:41Z</time>
      </trkpt>
      <trkpt lat="48.62253" lon="-2.8229">
        <ele>31.5</ele>
        <time>2012-06-26T22:51:01Z</time>
      </trkpt>
      <trkpt lat="48.62283" lon="-2.82286">
        <ele>35.1</ele>
        <time>2012-06-26T22:51:21Z</time>
      </trkpt>
      <trkpt lat="48.62313" lon="-2.82328">
        <ele>42.7</ele>
        <time>2012-06-26T22:51:41Z</time>
      </trkpt>
      <trkpt lat="48.6236" lon="-2.82342">
        <ele>36.4</ele>
        <time>2012-06-26T22:52:01Z</time>
      </trkpt>
      <trkpt lat="48.62381" lon="-2.82367">
        <ele>39.8</ele>
        <time>2012-06-26T22:52:21Z</time>
      </trkpt>
      <trkpt lat="48.62465" lon="-2.8236">
        <ele>29.9</ele>
        <time>2012-06-26T22:52:41Z</time>
      </trkpt>
      <trkpt lat="48.62495" lon="-2.82381">
        <ele>39.2</ele>
        <time>2012-06-26T22:53:01Z</time>
      </trkpt>
      <trkpt lat="48.62548" lon="-2.82389">
        <ele>41.3</ele>
        <time>2012-06-26T22:53:21Z</time>
      </trkpt>
      <trkpt lat="48.62665" lon="-2.82272">
        <ele>29.3</ele>
        <time>2012-06-26T22:53:41Z</time>
      </trkpt>
      <trkpt lat="48.62738" lon="-2.82241">
        <ele>21.8</ele>
        <time>2012-06-26T22:54:01Z</time>
      </trkpt>
      <trkpt lat="48.62764" lon="-2.82194">
        <ele>17</ele>
        <time>2012-06-26T22:54:21Z</time>
      </trkpt>
      <trkpt lat="48.62796" lon="-2.82165">
        <ele>30</ele>
        <time>2012-06-26T22:54:41Z</time>
      </trkpt>
      <trkpt lat="48.62843" lon="-2.82043">
        <ele>22.2</ele>
        <time>2012-06-26T22:55:01Z</time>
      </trkpt>
      <trkpt lat="48.62865" lon="-2.82034">
        <ele>31</ele>
        <time>2012-06-26T22:55:21Z</time>
      </trkpt>
      <trkpt lat="48.62917" lon="-2.82101">
        <ele>43.1</ele>
        <time>2012-06-26T22:55:41Z</time>
      </trkpt>
      <trkpt lat="48.63034" lon="-2.8211">
        <ele>37.3</ele>
        <time>2012-06-26T22:56:01Z</time>
      </trkpt>
      <trkpt lat="48.63059" lon="-2.82124">
        <ele>41.4</ele>
        <time>2012-06-26T22:56:21Z</time>
      </trkpt>
      <trkpt lat="48.63107" lon="-2.82113">
        <ele>37.9</ele>
        <time>2012-06-26T22:56:41Z</time>
      </trkpt>
      <trkpt lat="48.63133" lon="-2.82094">
        <ele>34.8</ele>
        <time>2012-06-26T22:57:01Z</time>
      </trkpt>
      <trkpt lat="48.63169" lon="-2.82102">
        <ele>37.4</ele>
        <time>2012-06-26T22:57:21Z</time>
      </trkpt>
      <trkpt lat="48.6322" lon="-2.82174">
        <ele>40</ele>
        <time>2012-06-26T22:57:41Z</time>
      </trkpt>
      <trkpt lat="48.63245" lon="-2.82185">
        <ele>39.3</ele>
        <time>2012-06-26T22:58:01Z</time>
      </trkpt>
      <trkpt lat="48.63334" lon="-2.82296">
        <ele>47.3</ele>
        <time>2012-06-26T22:58:21Z</time>
      </trkpt>
      <trkpt lat="48.63341" lon="-2.82311">
        <ele>47.4</ele>
        <time>2012-06-26T22:58:41Z</time>
      </trkpt>
      <trkpt lat="48.63382" lon="-2.82328">
        <ele>41.9</ele>
        <time>2012-06-26T22:59:01Z</time>
      </trkpt>
      <trkpt lat="48.63411" lon="-2.82326">
        <ele>37.3</ele>
        <time>2012-06-26T22:59:21Z</time>
      </trkpt>
      <trkpt lat="48.63428" lon="-2.82341">
        <ele>34.1</ele>
        <time>2012-06-26T22:59:41Z</time>
      </trkpt>
      <trkpt lat="48.63431" lon="-2.8237">
        <ele>42.1</ele>
        <time>2012-06-26T23:00:01Z</time>
      </trkpt>
      <trkpt lat="48.63442" lon="-2.82387">
        <ele>43</ele>
        <time>2012-06-26T23:00:21Z</time>
      </trkpt>
      <trkpt lat="48.63443" lon="-2.82425">
        <ele>42.9</ele>
        <time>2012-06-26T23:00:41Z</time>
      </trkpt>
      <trkpt lat="48.63433" lon="-2.82455">
        <ele>45.4</ele>
        <time>2012-06-26T23:01:01Z</time>
      </trkpt>
      <trkpt lat="48.63452" lon="-2.82517">
        <ele>42.2</ele>
        <time>2012-06-26T23:01:21Z</time>
      </trkpt>
      <trkpt lat="48.63492" lon="-2.8256">
        <ele>35.1</ele>
        <time>2012-06-26T23:01:41Z</time>
      </trkpt>
      <trkpt lat="48.63524" lon="-2.8256">
        <ele>28.7</ele>
        <time>2012-06-26T23:02:01Z</time>
      </trkpt>
      <trkpt lat="48.63565" lon="-2.82616">
        <ele>20.3</ele>
        <time>2012-06-26T23:02:21Z</time>
      </trkpt>
      <trkpt lat="48.63593" lon="-2.82748">
        <ele>11.9</ele>
        <time>2012-06-26T23:02:41Z</time>
      </trkpt>
      <trkpt lat="48.63688" lon="-2.82814">
        <ele>8.4</ele>
        <time>2012-06-26T23:03:01Z</time>
      </trkpt>
      <trkpt lat="48.63713" lon="-2.82796">
        <ele>11</ele>
        <time>2012-06-26T23:03:21Z</time>
      </trkpt>
      <trkpt lat="48.63753" lon="-2.82668">
        <ele>18.9</ele>
        <time>2012-06-26T23:03:41Z</time>
      </trkpt>
      <trkpt lat="48.63809" lon="-2.82654">
        <ele>26.8</ele>
        <time>2012-06-26T23:04:01Z</time>
      </trkpt>
      <trkpt lat="48.63853" lon="-2.82627">
        <ele>30.2</ele>
        <time>2012-06-26T23:04:21Z</time>
      </trkpt>
      <trkpt lat="48.63936" lon="-2.8262">
        <ele>31.5</ele>
        <time>2012-06-26T23:04:41Z</time>
      </trkpt>
      <trkpt lat="48.63967" lon="-2.82586">
        <ele>34.2</ele>
        <time>2012-06-26T23:05:01Z</time>
      </trkpt>
      <trkpt lat="48.63981" lon="-2.82506">
        <ele>30.8</ele>
        <time>2012-06-26T23:05:21Z</time>
      </trkpt>
      <trkpt lat="48.63997" lon="-2.82484">
        <ele>29.7</ele>
        <time>2012-06-26T23:05:41Z</time>
      </trkpt>
      <trkpt lat="48.6403" lon="-2.82475">
        <ele>27.4</ele>
        <time>2012-06-26T23:06:01Z</time>
      </trkpt>
      <trkpt lat="48.64111" lon="-2.82403">
        <ele>23</ele>
        <time>2012-06-26T23:06:21Z</time>
      </trkpt>
      <trkpt lat="48.64115" lon="-2.82336">
        <ele>10.9</ele>
        <time>2012-06-26T23:06:41Z</time>
      </trkpt>
      <trkpt lat="48.6415" lon="-2.82296">
        <ele>11.3</ele>
        <time>2012-06-26T23:07:01Z</time>
      </trkpt>
      <trkpt lat="48.64226" lon="-2.823">
        <ele>13.5</ele>
        <time>2012-06-26T23:07:21Z</time>
      </trkpt>
      <trkpt lat="48.64282" lon="-2.82404">
        <ele>14.5</ele>
        <time>2012-06-26T23:07:41Z</time>
      </trkpt>
      <trkpt lat="48.6425" lon="-2.82487">
        <ele>16.9</ele>
        <time>2012-06-26T23:08:01Z</time>
      </trkpt>
      <trkpt lat="48.64268" lon="-2.82564">
        <ele>16.1</ele>
        <time>2012-06-26T23:08:21Z</time>
      </trkpt>
      <trkpt lat="48.64325" lon="-2.82621">
        <ele>11.3</ele>
        <time>2012-06-26T23:08:41Z</time>
      </trkpt>
      <trkpt lat="48.64329" lon="-2.82602">
        <ele>9.6</ele>
        <time>2012-06-26T23:09:01Z</time>
      </trkpt>
      <trkpt lat="48.64375" lon="-2.82594">
        <ele>7.3</ele>
        <time>2012-06-26T23:09:21Z</time>
      </trkpt>
      <trkpt lat="48.64456" lon="-2.8265">
        <ele>6.6</ele>
        <time>2012-06-26T23:09:41Z</time>
      </trkpt>
      <trkpt lat="48.64649" lon="-2.82741">
        <ele>6.8</ele>
        <time>2012-06-26T23:10:01Z</time>
      </trkpt>
      <trkpt lat="48.64655" lon="-2.82758">
        <ele>7.5</ele>
        <time>2012-06-26T23:10:21Z</time>
      </trkpt>
      <trkpt lat="48.64791" lon="-2.82683">
        <ele>7.8</ele>
        <time>2012-06-26T23:10:41Z</time>
      </trkpt>
      <trkpt lat="48.64814" lon="-2.82631">
        <ele>8</ele>
        <time>2012-06-26T23:11:01Z</time>
      </trkpt>
      <trkpt lat="48.64803" lon="-2.82496">
        <ele>7.6</ele>
        <time>2012-06-26T23:11:21Z</time>
      </trkpt>
      <trkpt lat="48.64815" lon="-2.82483">
        <ele>9.1</ele>
        <time>2012-06-26T23:11:41Z</time>
      </trkpt>
      <trkpt lat="48.64833" lon="-2.82488">
        <ele>12.4</ele>
        <time>2012-06-26T23:12:01Z</time>
      </trkpt>
      <trkpt lat="48.64861" lon="-2.82475">
        <ele>15.2</ele>
        <time>2012-06-26T23:12:21Z</time>
      </trkpt>
      <trkpt lat="48.64876" lon="-2.82492">
        <ele>10.8</ele>
        <time>2012-06-26T23:12:41Z</time>
      </trkpt>
      <trkpt lat="48.64876" lon="-2.82531">
        <ele>15.3</ele>
        <time>2012-06-26T23:13:01Z</time>
      </trkpt>
      <trkpt lat="48.64911" lon="-2.82548">
        <ele>13.9</ele>
        <time>2012-06-26T23:13:21Z</time>
      </trkpt>
      <trkpt lat="48.64922" lon="-2.82583">
        <ele>19.6</ele>
        <time>2012-06-26T23:13:41Z</time>
      </trkpt>
      <trkpt lat="48.64948" lon="-2.82591">
        <ele>14.2</ele>
        <time>2012-06-26T23:14:01Z</time>
      </trkpt>
      <trkpt lat="48.64958" lon="-2.82683">
        <ele>18.2</ele>
        <time>2012-06-26T23:14:21Z</time>
      </trkpt>
      <trkpt lat="48.65003" lon="-2.82692">
        <ele>14.4</ele>
        <time>2012-06-26T23:14:41Z</time>
      </trkpt>
      <trkpt lat="48.6503" lon="-2.8273">
        <ele>14</ele>
        <time>2012-06-26T23:15:01Z</time>
      </trkpt>
      <trkpt lat="48.65104" lon="-2.82735">
        <ele>11.8</ele>
        <time>2012-06-26T23:15:21Z</time>
      </trkpt>
      <trkpt lat="48.65156" lon="-2.82719">
        <ele>23.3</ele>
        <time>2012-06-26T23:15:41Z</time>
      </trkpt>
      <trkpt lat="48.65189" lon="-2.82689">
        <ele>19.9</ele>
        <time>2012-06-26T23:16:01Z</time>
      </trkpt>
      <trkpt lat="48.65292" lon="-2.82728">
        <ele>24.5</ele>
        <time>2012-06-26T23:16:21Z</time>
      </trkpt>
      <trkpt lat="48.6532" lon="-2.82716">
        <ele>18.7</ele>
        <time>2012-06-26T23:16:41Z</time>
      </trkpt>
      <trkpt lat="48.65376" lon="-2.82774">
        <ele>27.4</ele>
        <time>2012-06-26T23:17:01Z</time>
      </trkpt>
      <trkpt lat="48.65424" lon="-2.82758">
        <ele>22.7</ele>
        <time>2012-06-26T23:17:21Z</time>
      </trkpt>
      <trkpt lat="48.65453" lon="-2.82731">
        <ele>19.1</ele>
        <time>2012-06-26T23:17:41Z</time>
      </trkpt>
      <trkpt lat="48.65509" lon="-2.82716">
        <ele>19.6</ele>
        <time>2012-06-26T23:18:01Z</time>
      </trkpt>
      <trkpt lat="48.65529" lon="-2.82737">
        <ele>26.6</ele>
        <time>2012-06-26T23:18:21Z</time>
      </trkpt>
      <trkpt lat="48.65555" lon="-2.8272">
        <ele>27.7</ele>
        <time>2012-06-26T23:18:41Z</time>
      </trkpt>
      <trkpt lat="48.65578" lon="-2.82722">
        <ele>27.2</ele>
        <time>2012-06-26T23:19:01Z</time>
      </trkpt>
      <trkpt lat="48.65599" lon="-2.82779">
        <ele>27</ele>
        <time>2012-06-26T23:19:21Z</time>
      </trkpt>
      <trkpt lat="48.65589" lon="-2.82811">
        <ele>22.3</ele>
        <time>2012-06-26T23:19:41Z</time>
      </trkpt>
      <trkpt lat="48.65566" lon="-2.82819">
        <ele>25.2</ele>
        <time>2012-06-26T23:20:01Z</time>
      </trkpt>
      <trkpt lat="48.65519" lon="-2.82911">
        <ele>18.5</ele>
        <time>2012-06-26T23:20:21Z</time>
      </trkpt>
      <trkpt lat="48.65522" lon="-2.82936">
        <ele>17.4</ele>
        <time>2012-06-26T23:20:41Z</time>
      </trkpt>
      <trkpt lat="48.65498" lon="-2.83001">
        <ele>20.2</ele>
        <time>2012-06-26T23:21:01Z</time>
      </trkpt>
      <trkpt lat="48.65481" lon="-2.83137">
        <ele>18.8</ele>
        <time>2012-06-26T23:21:21Z</time>
      </trkpt>
      <trkpt lat="48.65493" lon="-2.83165">
        <ele>21.7</ele>
        <time>2012-06-26T23:21:41Z</time>
      </trkpt>
      <trkpt lat="48.65487" lon="-2.83214">
        <ele>18.5</ele>
        <time>2012-06-26T23:22:01Z</time>
      </trkpt>
      <trkpt lat="48.65468" lon="-2.83258">
        <ele>22.5</ele>
        <time>2012-06-26T23:22:21Z</time>
      </trkpt>
      <trkpt lat="48.65472" lon="-2.83373">
        <ele>19.1</ele>
        <time>2012-06-26T23:22:41Z</time>
      </trkpt>
      <trkpt lat="48.65496" lon="-2.83434">
        <ele>15.3</ele>
        <time>2012-06-26T23:23:01Z</time>
      </trkpt>
      <trkpt lat="48.65498" lon="-2.83503">
        <ele>16.1</ele>
        <time>2012-06-26T23:23:21Z</time>
      </trkpt>
      <trkpt lat="48.65486" lon="-2.83574">
        <ele>14</ele>
        <time>2012-06-26T23:23:41Z</time>
      </trkpt>
      <trkpt lat="48.65469" lon="-2.83584">
        <ele>15.7</ele>
        <time>2012-06-26T23:24:01Z</time>
      </trkpt>
      <trkpt lat="48.65464" lon="-2.83666">
        <ele>12</ele>
        <time>2012-06-26T23:24:21Z</time>
      </trkpt>
      <trkpt lat="48.65501" lon="-2.83699">
        <ele>10.8</ele>
        <time>2012-06-26T23:24:41Z</time>
      </trkpt>
      <trkpt lat="48.65601" lon="-2.83865">
        <ele>13.2</ele>
        <time>2012-06-26T23:25:01Z</time>
      </trkpt>
      <trkpt lat="48.65641" lon="-2.83814">
        <ele>10.8</ele>
        <time>2012-06-26T23:25:21Z</time>
      </trkpt>
      <trkpt lat="48.65641" lon="-2.83792">
        <ele>8</ele>
        <time>2012-06-26T23:25:41Z</time>
      </trkpt>
      <trkpt lat="48.65662" lon="-2.8377">
        <ele>9.2</ele>
        <time>2012-06-26T23:26:01Z</time>
      </trkpt>
      <trkpt lat="48.65715" lon="-2.83831">
        <ele>12.1</ele>
        <time>2012-06-26T23:26:21Z</time>
      </trkpt>
      <trkpt lat="48.65745" lon="-2.83816">
        <ele>9.2</ele>
        <time>2012-06-26T23:26:41Z</time>
      </trkpt>
      <trkpt lat="48.65766" lon="-2.83773">
        <ele>8.4</ele>
        <time>2012-06-26T23:27:01Z</time>
      </trkpt>
      <trkpt lat="48.65803" lon="-2.83897">
        <ele>12.7</ele>
        <time>2012-06-26T23:27:21Z</time>
      </trkpt>
      <trkpt lat="48.65834" lon="-2.83938">
        <ele>13.5</ele>
        <time>2012-06-26T23:27:41Z</time>
      </trkpt>
      <trkpt lat="48.65879" lon="-2.83955">
        <ele>11.6</ele>
        <time>2012-06-26T23:28:01Z</time>
      </trkpt>
      <trkpt lat="48.65867" lon="-2.84002">
        <ele>13.4</ele>
        <time>2012-06-26T23:28:21Z</time>
      </trkpt>
      <trkpt lat="48.65894" lon="-2.84085">
        <ele>13.9</ele>
        <time>2012-06-26T23:28:41Z</time>
      </trkpt>
      <trkpt lat="48.65925" lon="-2.84117">
        <ele>11.1</ele>
        <time>2012-06-26T23:29:01Z</time>
      </trkpt>
      <trkpt lat="48.65944" lon="-2.8411">
        <ele>10.6</ele>
        <time>2012-06-26T23:29:21Z</time>
      </trkpt>
      <trkpt lat="48.65977" lon="-2.8414">
        <ele>20.3</ele>
        <time>2012-06-26T23:29:41Z</time>
      </trkpt>
      <trkpt lat="48.66041" lon="-2.84108">
        <ele>15.2</ele>
        <time>2012-06-26T23:30:01Z</time>
      </trkpt>
      <trkpt lat="48.66074" lon="-2.84079">
        <ele>13</ele>
        <time>2012-06-26T23:30:21Z</time>
      </trkpt>
      <trkpt lat="48.66085" lon="-2.84059">
        <ele>12.2</ele>
        <time>2012-06-26T23:30:41Z</time>
      </trkpt>
      <trkpt lat="48.66149" lon="-2.84074">
        <ele>16.2</ele>
        <time>2012-06-26T23:31:01Z</time>
      </trkpt>
      <trkpt lat="48.66167" lon="-2.84041">
        <ele>10.7</ele>
        <time>2012-06-26T23:31:21Z</time>
      </trkpt>
      <trkpt lat="48.66209" lon="-2.84066">
        <ele>11.5</ele>
        <time>2012-06-26T23:31:41Z</time>
      </trkpt>
      <trkpt lat="48.66225" lon="-2.84088">
        <ele>11.6</ele>
        <time>2012-06-26T23:32:01Z</time>
      </trkpt>
      <trkpt lat="48.66229" lon="-2.84157">
        <ele>10.3</ele>
        <time>2012-06-26T23:32:21Z</time>
      </trkpt>
      <trkpt lat="48.66244" lon="-2.84196">
        <ele>14.4</ele>
        <time>2012-06-26T23:32:41Z</time>
      </trkpt>
      <trkpt lat="48.66286" lon="-2.84187">
        <ele>14.7</ele>
        <time>2012-06-26T23:33:01Z</time>
      </trkpt>
      <trkpt lat="48.66321" lon="-2.84143">
        <ele>8</ele>
        <time>2012-06-26T23:33:21Z</time>
      </trkpt>
      <trkpt lat="48.66334" lon="-2.8419">
        <ele>17.2</ele>
        <time>2012-06-26T23:33:41Z</time>
      </trkpt>
      <trkpt lat="48.6641" lon="-2.84177">
        <ele>11.9</ele>
        <time>2012-06-26T23:34:01Z</time>
      </trkpt>
      <trkpt lat="48.66418" lon="-2.84206">
        <ele>15.9</ele>
        <time>2012-06-26T23:34:21Z</time>
      </trkpt>
      <trkpt lat="48.66379" lon="-2.84255">
        <ele>21.4</ele>
        <time>2012-06-26T23:34:41Z</time>
      </trkpt>
      <trkpt lat="48.66414" lon="-2.84324">
        <ele>26</ele>
        <time>2012-06-26T23:35:01Z</time>
      </trkpt>
      <trkpt lat="48.66434" lon="-2.84327">
        <ele>14.6</ele>
        <time>2012-06-26T23:35:21Z</time>
      </trkpt>
      <trkpt lat="48.66414" lon="-2.84374">
        <ele>29.5</ele>
        <time>2012-06-26T23:35:41Z</time>
      </trkpt>
      <trkpt lat="48.66416" lon="-2.84399">
        <ele>29.1</ele>
        <time>2012-06-26T23:36:01Z</time>
      </trkpt>
      <trkpt lat="48.66449" lon="-2.84392">
        <ele>23.1</ele>
        <time>2012-06-26T23:36:21Z</time>
      </trkpt>
      <trkpt lat="48.66475" lon="-2.84402">
        <ele>22.3</ele>
        <time>2012-06-26T23:36:41Z</time>
      </trkpt>
      <trkpt lat="48.66491" lon="-2.84444">
        <ele>26.5</ele>
        <time>2012-06-26T23:37:01Z</time>
      </trkpt>
      <trkpt lat="48.66466" lon="-2.84454">
        <ele>22.5</ele>
        <time>2012-06-26T23:37:21Z</time>
      </trkpt>
      <trkpt lat="48.66449" lon="-2.845">
        <ele>20.7</ele>
        <time>2012-06-26T23:37:41Z</time>
      </trkpt>
      <trkpt lat="48.66444" lon="-2.84552">
        <ele>19.2</ele>
        <time>2012-06-26T23:38:01Z</time>
      </trkpt>
      <trkpt lat="48.66482" lon="-2.84644">
        <ele>24.2</ele>
        <time>2012-06-26T23:38:21Z</time>
      </trkpt>
      <trkpt lat="48.6651" lon="-2.8465">
        <ele>16.8</ele>
        <time>2012-06-26T23:38:41Z</time>
      </trkpt>
      <trkpt lat="48.66536" lon="-2.84736">
        <ele>29.9</ele>
        <time>2012-06-26T23:39:01Z</time>
      </trkpt>
      <trkpt lat="48.66572" lon="-2.84722">
        <ele>23</ele>
        <time>2012-06-26T23:39:21Z</time>
      </trkpt>
      <trkpt lat="48.66603" lon="-2.84728">
        <ele>16</ele>
        <time>2012-06-26T23:39:41Z</time>
      </trkpt>
      <trkpt lat="48.66598" lon="-2.84768">
        <ele>25.1</ele>
        <time>2012-06-26T23:40:01Z</time>
      </trkpt>
      <trkpt lat="48.66702" lon="-2.84817">
        <ele>25.3</ele>
        <time>2012-06-26T23:40:21Z</time>
      </trkpt>
      <trkpt lat="48.66719" lon="-2.84864">
        <ele>32.6</ele>
        <time>2012-06-26T23:40:41Z</time>
      </trkpt>
      <trkpt lat="48.66759" lon="-2.84876">
        <ele>15.6</ele>
        <time>2012-06-26T23:41:01Z</time>
      </trkpt>
      <trkpt lat="48.66734" lon="-2.84907">
        <ele>19.9</ele>
        <time>2012-06-26T23:41:21Z</time>
      </trkpt>
      <trkpt lat="48.66705" lon="-2.84907">
        <ele>32.5</ele>
        <time>2012-06-26T23:41:41Z</time>
      </trkpt>
      <trkpt lat="48.66668" lon="-2.84969">
        <ele>39.5</ele>
        <time>2012-06-26T23:42:01Z</time>
      </trkpt>
      <trkpt lat="48.66676" lon="-2.84993">
        <ele>37.2</ele>
        <time>2012-06-26T23:42:21Z</time>
      </trkpt>
      <trkpt lat="48.66694" lon="-2.84997">
        <ele>32.2</ele>
        <time>2012-06-26T23:42:41Z</time>
      </trkpt>
      <trkpt lat="48.66705" lon="-2.85053">
        <ele>26.2</ele>
        <time>2012-06-26T23:43:01Z</time>
      </trkpt>
      <trkpt lat="48.66721" lon="-2.85066">
        <ele>21.8</ele>
        <time>2012-06-26T23:43:21Z</time>
      </trkpt>
      <trkpt lat="48.66724" lon="-2.85122">
        <ele>17.9</ele>
        <time>2012-06-26T23:43:41Z</time>
      </trkpt>
      <trkpt lat="48.66714" lon="-2.85133">
        <ele>18.5</ele>
        <time>2012-06-26T23:44:01Z</time>
      </trkpt>
      <trkpt lat="48.66691" lon="-2.85131">
        <ele>21.5</ele>
        <time>2012-06-26T23:44:21Z</time>
      </trkpt>
      <trkpt lat="48.66656" lon="-2.85233">
        <ele>12.9</ele>
        <time>2012-06-26T23:44:41Z</time>
      </trkpt>
      <trkpt lat="48.66636" lon="-2.85258">
        <ele>14.5</ele>
        <time>2012-06-26T23:45:01Z</time>
      </trkpt>
      <trkpt lat="48.66676" lon="-2.85305">
        <ele>11.3</ele>
        <time>2012-06-26T23:45:21Z</time>
      </trkpt>
      <trkpt lat="48.66674" lon="-2.8534">
        <ele>14.5</ele>
        <time>2012-06-26T23:45:41Z</time>
      </trkpt>
      <trkpt lat="48.66706" lon="-2.85397">
        <ele>7.7</ele>
        <time>2012-06-26T23:46:01Z</time>
      </trkpt>
      <trkpt lat="48.66696" lon="-2.85427">
        <ele>8.2</ele>
        <time>2012-06-26T23:46:21Z</time>
      </trkpt>
      <trkpt lat="48.66719" lon="-2.85436">
        <ele>11</ele>
        <time>2012-06-26T23:46:41Z</time>
      </trkpt>
      <trkpt lat="48.66776" lon="-2.85372">
        <ele>12.5</ele>
        <time>2012-06-26T23:47:01Z</time>
      </trkpt>
      <trkpt lat="48.66832" lon="-2.85415">
        <ele>20.1</ele>
        <time>2012-06-26T23:47:21Z</time>
      </trkpt>
      <trkpt lat="48.66862" lon="-2.85409">
        <ele>16.5</ele>
        <time>2012-06-26T23:47:41Z</time>
      </trkpt>
      <trkpt lat="48.66903" lon="-2.85455">
        <ele>18.3</ele>
        <time>2012-06-26T23:48:01Z</time>
      </trkpt>
      <trkpt lat="48.66923" lon="-2.8551">
        <ele>19.9</ele>
        <time>2012-06-26T23:48:21Z</time>
      </trkpt>
      <trkpt lat="48.66975" lon="-2.85461">
        <ele>12.8</ele>
        <time>2012-06-26T23:48:41Z</time>
      </trkpt>
      <trkpt lat="48.67012" lon="-2.85471">
        <ele>10.9</ele>
        <time>2012-06-26T23:49:01Z</time>
      </trkpt>
      <trkpt lat="48.67013" lon="-2.85502">
        <ele>13.9</ele>
        <time>2012-06-26T23:49:21Z</time>
      </trkpt>
      <trkpt lat="48.67052" lon="-2.85529">
        <ele>18.8</ele>
        <time>2012-06-26T23:49:41Z</time>
      </trkpt>
      <trkpt lat="48.6707" lon="-2.85508">
        <ele>15.4</ele>
        <time>2012-06-26T23:50:01Z</time>
      </trkpt>
      <trkpt lat="48.67075" lon="-2.85554">
        <ele>22.8</ele>
        <time>2012-06-26T23:50:21Z</time>
      </trkpt>
      <trkpt lat="48.67098" lon="-2.85568">
        <ele>24.8</ele>
        <time>2012-06-26T23:50:41Z</time>
      </trkpt>
      <trkpt lat="48.67146" lon="-2.85532">
        <ele>24</ele>
        <time>2012-06-26T23:51:01Z</time>
      </trkpt>
      <trkpt lat="48.6721" lon="-2.85537">
        <ele>24.4</ele>
        <time>2012-06-26T23:51:21Z</time>
      </trkpt>
      <trkpt lat="48.67227" lon="-2.85581">
        <ele>31.7</ele>
        <time>2012-06-26T23:51:41Z</time>
      </trkpt>
      <trkpt lat="48.67267" lon="-2.85632">
        <ele>31.9</ele>
        <time>2012-06-26T23:52:01Z</time>
      </trkpt>
      <trkpt lat="48.67321" lon="-2.85629">
        <ele>22.6</ele>
        <time>2012-06-26T23:52:21Z</time>
      </trkpt>
      <trkpt lat="48.67326" lon="-2.85667">
        <ele>30.9</ele>
        <time>2012-06-26T23:52:41Z</time>
      </trkpt>
      <trkpt lat="48.67378" lon="-2.85698">
        <ele>28</ele>
        <time>2012-06-26T23:53:01Z</time>
      </trkpt>
      <trkpt lat="48.67407" lon="-2.85705">
        <ele>20.9</ele>
        <time>2012-06-26T23:53:21Z</time>
      </trkpt>
      <trkpt lat="48.67425" lon="-2.85756">
        <ele>25.6</ele>
        <time>2012-06-26T23:53:41Z</time>
      </trkpt>
      <trkpt lat="48.67396" lon="-2.85816">
        <ele>27.9</ele>
        <time>2012-06-26T23:54:01Z</time>
      </trkpt>
      <trkpt lat="48.67405" lon="-2.85854">
        <ele>30.2</ele>
        <time>2012-06-26T23:54:21Z</time>
      </trkpt>
      <trkpt lat="48.67443" lon="-2.85844">
        <ele>27.6</ele>
        <time>2012-06-26T23:54:41Z</time>
      </trkpt>
      <trkpt lat="48.67479" lon="-2.85874">
        <ele>21.2</ele>
        <time>2012-06-26T23:55:01Z</time>
      </trkpt>
      <trkpt lat="48.67483" lon="-2.85925">
        <ele>26.2</ele>
        <time>2012-06-26T23:55:21Z</time>
      </trkpt>
      <trkpt lat="48.67511" lon="-2.8594">
        <ele>21.6</ele>
        <time>2012-06-26T23:55:41Z</time>
      </trkpt>
      <trkpt lat="48.67519" lon="-2.85951">
        <ele>22.2</ele>
        <time>2012-06-26T23:56:01Z</time>
      </trkpt>
      <trkpt lat="48.67505" lon="-2.85967">
        <ele>20.3</ele>
        <time>2012-06-26T23:56:21Z</time>
      </trkpt>
      <trkpt lat="48.67471" lon="-2.8599">
        <ele>16.9</ele>
        <time>2012-06-26T23:56:41Z</time>
      </trkpt>
      <trkpt lat="48.67425" lon="-2.86005">
        <ele>24.1</ele>
        <time>2012-06-26T23:57:01Z</time>
      </trkpt>
      <trkpt lat="48.67387" lon="-2.8608">
        <ele>28.1</ele>
        <time>2012-06-26T23:57:21Z</time>
      </trkpt>
      <trkpt lat="48.67361" lon="-2.86112">
        <ele>30.5</ele>
        <time>2012-06-26T23:57:41Z</time>
      </trkpt>
      <trkpt lat="48.6733" lon="-2.86138">
        <ele>34.5</ele>
        <time>2012-06-26T23:58:01Z</time>
      </trkpt>
      <trkpt lat="48.67318" lon="-2.86172">
        <ele>25.1</ele>
        <time>2012-06-26T23:58:21Z</time>
      </trkpt>
      <trkpt lat="48.67245" lon="-2.86231">
        <ele>30</ele>
        <time>2012-06-26T23:58:41Z</time>
      </trkpt>
      <trkpt lat="48.67242" lon="-2.86237">
        <ele>29.3</ele>
        <time>2012-06-26T23:59:01Z</time>
      </trkpt>
      <trkpt lat="48.67205" lon="-2.86317">
        <ele>29.4</ele>
        <time>2012-06-26T23:59:21Z</time>
      </trkpt>
      <trkpt lat="48.67146" lon="-2.8639">
        <ele>31.7</ele>
        <time>2012-06-26T23:59:41Z</time>
      </trkpt>
      <trkpt lat="48.67162" lon="-2.86433">
        <ele>25.9</ele>
        <time>2012-06-27T00:00:01Z</time>
      </trkpt>
      <trkpt lat="48.67143" lon="-2.86458">
        <ele>28.1</ele>
        <time>2012-06-27T00:00:21Z</time>
      </trkpt>
      <trkpt lat="48.67143" lon="-2.86517">
        <ele>29.1</ele>
        <time>2012-06-27T00:00:41Z</time>
      </trkpt>
      <trkpt lat="48.67115" lon="-2.86605">
        <ele>34.4</ele>
        <time>2012-06-27T00:01:01Z</time>
      </trkpt>
      <trkpt lat="48.67118" lon="-2.86656">
        <ele>33.2</ele>
        <time>2012-06-27T00:01:21Z</time>
      </trkpt>
      <trkpt lat="48.67125" lon="-2.86691">
        <ele>37.2</ele>
        <time>2012-06-27T00:01:41Z</time>
      </trkpt>
      <trkpt lat="48.67117" lon="-2.86712">
        <ele>42.2</ele>
        <time>2012-06-27T00:02:01Z</time>
      </trkpt>
      <trkpt lat="48.67179" lon="-2.86815">
        <ele>46</ele>
        <time>2012-06-27T00:02:21Z</time>
      </trkpt>
      <trkpt lat="48.67198" lon="-2.86824">
        <ele>41.2</ele>
        <time>2012-06-27T00:02:41Z</time>
      </trkpt>
      <trkpt lat="48.67179" lon="-2.86912">
        <ele>48</ele>
        <time>2012-06-27T00:03:01Z</time>
      </trkpt>
      <trkpt lat="48.67194" lon="-2.86966">
        <ele>50.4</ele>
        <time>2012-06-27T00:03:21Z</time>
      </trkpt>
      <trkpt lat="48.6721" lon="-2.86989">
        <ele>49.1</ele>
        <time>2012-06-27T00:03:41Z</time>
      </trkpt>
      <trkpt lat="48.67175" lon="-2.87072">
        <ele>47</ele>
        <time>2012-06-27T00:04:01Z</time>
      </trkpt>
      <trkpt lat="48.67231" lon="-2.87031">
        <ele>43.7</ele>
        <time>2012-06-27T00:04:21Z</time>
      </trkpt>
      <trkpt lat="48.67232" lon="-2.87068">
        <ele>41.4</ele>
        <time>2012-06-27T00:04:41Z</time>
      </trkpt>
      <trkpt lat="48.67246" lon="-2.87087">
        <ele>44.9</ele>
        <time>2012-06-27T00:05:01Z</time>
      </trkpt>
      <trkpt lat="48.67277" lon="-2.87081">
        <ele>43.4</ele>
        <time>2012-06-27T00:05:21Z</time>
      </trkpt>
      <trkpt lat="48.67296" lon="-2.87102">
        <ele>43.2</ele>
        <time>2012-06-27T00:05:41Z</time>
      </trkpt>
      <trkpt lat="48.67325" lon="-2.87107">
        <ele>40.5</ele>
        <time>2012-06-27T00:06:01Z</time>
      </trkpt>
      <trkpt lat="48.67348" lon="-2.87166">
        <ele>42.8</ele>
        <time>2012-06-27T00:06:21Z</time>
      </trkpt>
      <trkpt lat="48.67314" lon="-2.87217">
        <ele>46.5</ele>
        <time>2012-06-27T00:06:41Z</time>
      </trkpt>
      <trkpt lat="48.6732" lon="-2.87267">
        <ele>44.7</ele>
        <time>2012-06-27T00:07:01Z</time>
      </trkpt>
      <trkpt lat="48.67302" lon="-2.87364">
        <ele>52.1</ele>
        <time>2012-06-27T00:07:21Z</time>
      </trkpt>
      <trkpt lat="48.67303" lon="-2.87429">
        <ele>55.4</ele>
        <time>2012-06-27T00:07:41Z</time>
      </trkpt>
      <trkpt lat="48.67318" lon="-2.87479">
        <ele>53.3</ele>
        <time>2012-06-27T00:08:01Z</time>
      </trkpt>
      <trkpt lat="48.67359" lon="-2.87517">
        <ele>50.1</ele>
        <time>2012-06-27T00:08:21Z</time>
      </trkpt>
      <trkpt lat="48.67361" lon="-2.87575">
        <ele>50</ele>
        <time>2012-06-27T00:08:41Z</time>
      </trkpt>
      <trkpt lat="48.67387" lon="-2.87598">
        <ele>44.4</ele>
        <time>2012-06-27T00:09:01Z</time>
      </trkpt>
      <trkpt lat="48.67358" lon="-2.87806">
        <ele>47.8</ele>
        <time>2012-06-27T00:09:21Z</time>
      </trkpt>
      <trkpt lat="48.67374" lon="-2.87859">
        <ele>42.5</ele>
        <time>2012-06-27T00:09:41Z</time>
      </trkpt>
      <trkpt lat="48.67365" lon="-2.87929">
        <ele>40.6</ele>
        <time>2012-06-27T00:10:01Z</time>
      </trkpt>
      <trkpt lat="48.67394" lon="-2.88058">
        <ele>11.2</ele>
        <time>2012-06-27T00:10:21Z</time>
      </trkpt>
      <trkpt lat="48.67566" lon="-2.88417">
        <ele>7.6</ele>
        <time>2012-06-27T00:10:41Z</time>
      </trkpt>
      <trkpt lat="48.6759" lon="-2.8841">
        <ele>7</ele>
        <time>2012-06-27T00:11:01Z</time>
      </trkpt>
      <trkpt lat="48.67721" lon="-2.88465">
        <ele>7.7</ele>
        <time>2012-06-27T00:11:21Z</time>
      </trkpt>
      <trkpt lat="48.67747" lon="-2.88399">
        <ele>17.8</ele>
        <time>2012-06-27T00:11:41Z</time>
      </trkpt>
      <trkpt lat="48.67766" lon="-2.88414">
        <ele>30.4</ele>
        <time>2012-06-27T00:12:01Z</time>
      </trkpt>
      <trkpt lat="48.6779" lon="-2.88563">
        <ele>46.3</ele>
        <time>2012-06-27T00:12:21Z</time>
      </trkpt>
      <trkpt lat="48.6781" lon="-2.88609">
        <ele>54.9</ele>
        <time>2012-06-27T00:12:41Z</time>
      </trkpt>
      <trkpt lat="48.67809" lon="-2.88532">
        <ele>58.9</ele>
        <time>2012-06-27T00:13:01Z</time>
      </trkpt>
      <trkpt lat="48.67835" lon="-2.88377">
        <ele>62.8</ele>
        <time>2012-06-27T00:13:21Z</time>
      </trkpt>
      <trkpt lat="48.6785" lon="-2.88369">
        <ele>63.6</ele>
        <time>2012-06-27T00:13:41Z</time>
      </trkpt>
      <trkpt lat="48.67873" lon="-2.884">
        <ele>66</ele>
        <time>2012-06-27T00:14:01Z</time>
      </trkpt>
      <trkpt lat="48.67874" lon="-2.88431">
        <ele>69.5</ele>
        <time>2012-06-27T00:14:21Z</time>
      </trkpt>
      <trkpt lat="48.67913" lon="-2.88463">
        <ele>73</ele>
        <time>2012-06-27T00:14:41Z</time>
      </trkpt>
      <trkpt lat="48.67977" lon="-2.88461">
        <ele>78.4</ele>
        <time>2012-06-27T00:15:01Z</time>
      </trkpt>
      <trkpt lat="48.68055" lon="-2.88509">
        <ele>79.7</ele>
        <time>2012-06-27T00:15:21Z</time>
      </trkpt>
      <trkpt lat="48.68099" lon="-2.88596">
        <ele>76.4</ele>
        <time>2012-06-27T00:15:41Z</time>
      </trkpt>
      <trkpt lat="48.68168" lon="-2.8861">
        <ele>80.6</ele>
        <time>2012-06-27T00:16:01Z</time>
      </trkpt>
      <trkpt lat="48.6819" lon="-2.88624">
        <ele>81.9</ele>
        <time>2012-06-27T00:16:21Z</time>
      </trkpt>
      <trkpt lat="48.68223" lon="-2.88617">
        <ele>82.4</ele>
        <time>2012-06-27T00:16:41Z</time>
      </trkpt>
      <trkpt lat="48.6827" lon="-2.88653">
        <ele>78.5</ele>
        <time>2012-06-27T00:17:01Z</time>
      </trkpt>
      <trkpt lat="48.68254" lon="-2.88818">
        <ele>71.4</ele>
        <time>2012-06-27T00:17:21Z</time>
      </trkpt>
      <trkpt lat="48.68268" lon="-2.88834">
        <ele>67.5</ele>
        <time>2012-06-27T00:17:41Z</time>
      </trkpt>
      <trkpt lat="48.68309" lon="-2.88798">
        <ele>59.8</ele>
        <time>2012-06-27T00:18:01Z</time>
      </trkpt>
      <trkpt lat="48.68329" lon="-2.88846">
        <ele>64.9</ele>
        <time>2012-06-27T00:18:21Z</time>
      </trkpt>
      <trkpt lat="48.6839" lon="-2.88864">
        <ele>51.2</ele>
        <time>2012-06-27T00:18:41Z</time>
      </trkpt>
      <trkpt lat="48.68404" lon="-2.88903">
        <ele>60.6</ele>
        <time>2012-06-27T00:19:01Z</time>
      </trkpt>
      <trkpt lat="48.68457" lon="-2.88916">
        <ele>74</ele>
        <time>2012-06-27T00:19:21Z</time>
      </trkpt>
      <trkpt lat="48.68488" lon="-2.88895">
        <ele>81.9</ele>
        <time>2012-06-27T00:19:41Z</time>
      </trkpt>
      <trkpt lat="48.68492" lon="-2.88854">
        <ele>84.5</ele>
        <time>2012-06-27T00:20:01Z</time>
      </trkpt>
      <trkpt lat="48.68507" lon="-2.88871">
        <ele>89.3</ele>
        <time>2012-06-27T00:20:21Z</time>
      </trkpt>
      <trkpt lat="48.68571" lon="-2.88781">
        <ele>87.9</ele>
        <time>2012-06-27T00:20:41Z</time>
      </trkpt>
      <trkpt lat="48.68603" lon="-2.88777">
        <ele>91.6</ele>
        <time>2012-06-27T00:21:01Z</time>
      </trkpt>
      <trkpt lat="48.68654" lon="-2.88709">
        <ele>87.1</ele>
        <time>2012-06-27T00:21:21Z</time>
      </trkpt>
      <trkpt lat="48.68737" lon="-2.88701">
        <ele>96.6</ele>
        <time>2012-06-27T00:21:41Z</time>
      </trkpt>
      <trkpt lat="48.68774" lon="-2.88669">
        <ele>95.6</ele>
        <time>2012-06-27T00:22:01Z</time>
      </trkpt>
      <trkpt lat="48.68888" lon="-2.88704">
        <ele>100</ele>
        <time>2012-06-27T00:22:21Z</time>
      </trkpt>
      <trkpt lat="48.68889" lon="-2.88679">
        <ele>97.3</ele>
        <time>2012-06-27T00:22:41Z</time>
      </trkpt>
      <trkpt lat="48.68943" lon="-2.88645">
        <ele>98.5</ele>
        <time>2012-06-27T00:23:01Z</time>
      </trkpt>
      <trkpt lat="48.68983" lon="-2.8864">
        <ele>98.2</ele>
        <time>2012-06-27T00:23:21Z</time>
      </trkpt>
      <trkpt lat="48.68997" lon="-2.88569">
        <ele>91.7</ele>
        <time>2012-06-27T00:23:41Z</time>
      </trkpt>
      <trkpt lat="48.69017" lon="-2.88546">
        <ele>92.3</ele>
        <time>2012-06-27T00:24:01Z</time>
      </trkpt>
      <trkpt lat="48.69064" lon="-2.88677">
        <ele>93.7</ele>
        <time>2012-06-27T00:24:21Z</time>
      </trkpt>
      <trkpt lat="48.69098" lon="-2.88732">
        <ele>95</ele>
        <time>2012-06-27T00:24:41Z</time>
      </trkpt>
      <trkpt lat="48.69134" lon="-2.88737">
        <ele>92</ele>
        <time>2012-06-27T00:25:01Z</time>
      </trkpt>
      <trkpt lat="48.69168" lon="-2.88835">
        <ele>86.1</ele>
        <time>2012-06-27T00:25:21Z</time>
      </trkpt>
      <trkpt lat="48.69203" lon="-2.88843">
        <ele>84</ele>
        <time>2012-06-27T00:25:41Z</time>
      </trkpt>
      <trkpt lat="48.69224" lon="-2.889">
        <ele>87.6</ele>
        <time>2012-06-27T00:26:01Z</time>
      </trkpt>
      <trkpt lat="48.69303" lon="-2.8898">
        <ele>85.2</ele>
        <time>2012-06-27T00:26:21Z</time>
      </trkpt>
      <trkpt lat="48.69311" lon="-2.89005">
        <ele>78.9</ele>
        <time>2012-06-27T00:26:41Z</time>
      </trkpt>
      <trkpt lat="48.69269" lon="-2.89062">
        <ele>75.2</ele>
        <time>2012-06-27T00:27:01Z</time>
      </trkpt>
      <trkpt lat="48.69279" lon="-2.89106">
        <ele>75.1</ele>
        <time>2012-06-27T00:27:21Z</time>
      </trkpt>
      <trkpt lat="48.69402" lon="-2.89088">
        <ele>77.6</ele>
        <time>2012-06-27T00:27:41Z</time>
      </trkpt>
      <trkpt lat="48.69428" lon="-2.89068">
        <ele>75.4</ele>
        <time>2012-06-27T00:28:01Z</time>
      </trkpt>
      <trkpt lat="48.69478" lon="-2.89092">
        <ele>79.7</ele>
        <time>2012-06-27T00:28:21Z</time>
      </trkpt>
      <trkpt lat="48.69546" lon="-2.89106">
        <ele>66.8</ele>
        <time>2012-06-27T00:28:41Z</time>
      </trkpt>
      <trkpt lat="48.69527" lon="-2.89167">
        <ele>67.1</ele>
        <time>2012-06-27T00:29:01Z</time>
      </trkpt>
      <trkpt lat="48.69437" lon="-2.89221">
        <ele>80.2</ele>
        <time>2012-06-27T00:29:21Z</time>
      </trkpt>
      <trkpt lat="48.69388" lon="-2.89284">
        <ele>78.6</ele>
        <time>2012-06-27T00:29:41Z</time>
      </trkpt>
      <trkpt lat="48.69365" lon="-2.89361">
        <ele>72.1</ele>
        <time>2012-06-27T00:30:01Z</time>
      </trkpt>
      <trkpt lat="48.6938" lon="-2.89418">
        <ele>73.4</ele>
        <time>2012-06-27T00:30:21Z</time>
      </trkpt>
      <trkpt lat="48.69425" lon="-2.89372">
        <ele>75.7</ele>
        <time>2012-06-27T00:30:41Z</time>
      </trkpt>
      <trkpt lat="48.69508" lon="-2.8935">
        <ele>81.5</ele>
        <time>2012-06-27T00:31:01Z</time>
      </trkpt>
      <trkpt lat="48.69587" lon="-2.89317">
        <ele>83.8</ele>
        <time>2012-06-27T00:31:21Z</time>
      </trkpt>
      <trkpt lat="48.69631" lon="-2.89255">
        <ele>82.6</ele>
        <time>2012-06-27T00:31:41Z</time>
      </trkpt>
      <trkpt lat="48.69691" lon="-2.89196">
        <ele>80.5</ele>
        <time>2012-06-27T00:32:01Z</time>
      </trkpt>
      <trkpt lat="48.69706" lon="-2.8913">
        <ele>72</ele>
        <time>2012-06-27T00:32:21Z</time>
      </trkpt>
      <trkpt lat="48.69746" lon="-2.89186">
        <ele>77.1</ele>
        <time>2012-06-27T00:32:41Z</time>
      </trkpt>
      <trkpt lat="48.69796" lon="-2.89217">
        <ele>74.9</ele>
        <time>2012-06-27T00:33:01Z</time>
      </trkpt>
      <trkpt lat="48.69825" lon="-2.89306">
        <ele>72.6</ele>
        <time>2012-06-27T00:33:21Z</time>
      </trkpt>
      <trkpt lat="48.69877" lon="-2.89388">
        <ele>65.4</ele>
        <time>2012-06-27T00:33:41Z</time>
      </trkpt>
      <trkpt lat="48.69875" lon="-2.89424">
        <ele>66.5</ele>
        <time>2012-06-27T00:34:01Z</time>
      </trkpt>
      <trkpt lat="48.69891" lon="-2.89447">
        <ele>65</ele>
        <time>2012-06-27T00:34:21Z</time>
      </trkpt>
      <trkpt lat="48.69841" lon="-2.89627">
        <ele>68.7</ele>
        <time>2012-06-27T00:34:41Z</time>
      </trkpt>
      <trkpt lat="48.6986" lon="-2.89693">
        <ele>74</ele>
        <time>2012-06-27T00:35:01Z</time>
      </trkpt>
      <trkpt lat="48.6984" lon="-2.89756">
        <ele>73.2</ele>
        <time>2012-06-27T00:35:21Z</time>
      </trkpt>
      <trkpt lat="48.69841" lon="-2.89815">
        <ele>69.9</ele>
        <time>2012-06-27T00:35:41Z</time>
      </trkpt>
      <trkpt lat="48.69856" lon="-2.89844">
        <ele>67.6</ele>
        <time>2012-06-27T00:36:01Z</time>
      </trkpt>
      <trkpt lat="48.69847" lon="-2.89893">
        <ele>66.7</ele>
        <time>2012-06-27T00:36:21Z</time>
      </trkpt>
      <trkpt lat="48.69862" lon="-2.89966">
        <ele>67.6</ele>
        <time>2012-06-27T00:36:41Z</time>
      </trkpt>
      <trkpt lat="48.69818" lon="-2.90012">
        <ele>66.8</ele>
        <time>2012-06-27T00:37:01Z</time>
      </trkpt>
      <trkpt lat="48.69823" lon="-2.90101">
        <ele>65.7</ele>
        <time>2012-06-27T00:37:21Z</time>
      </trkpt>
      <trkpt lat="48.69814" lon="-2.90244">
        <ele>70.4</ele>
        <time>2012-06-27T00:37:41Z</time>
      </trkpt>
      <trkpt lat="48.69841" lon="-2.90414">
        <ele>71.6</ele>
        <time>2012-06-27T00:38:01Z</time>
      </trkpt>
      <trkpt lat="48.69873" lon="-2.90515">
        <ele>64.8</ele>
        <time>2012-06-27T00:38:21Z</time>
      </trkpt>
      <trkpt lat="48.69873" lon="-2.90554">
        <ele>59.4</ele>
        <time>2012-06-27T00:38:41Z</time>
      </trkpt>
      <trkpt lat="48.69975" lon="-2.90494">
        <ele>23.5</ele>
        <time>2012-06-27T00:39:01Z</time>
      </trkpt>
      <trkpt lat="48.70035" lon="-2.90507">
        <ele>6.7</ele>
        <time>2012-06-27T00:39:21Z</time>
      </trkpt>
      <trkpt lat="48.70041" lon="-2.90548">
        <ele>16.6</ele>
        <time>2012-06-27T00:39:41Z</time>
      </trkpt>
      <trkpt lat="48.70063" lon="-2.90582">
        <ele>6.4</ele>
        <time>2012-06-27T00:40:01Z</time>
      </trkpt>
      <trkpt lat="48.70049" lon="-2.90732">
        <ele>13.8</ele>
        <time>2012-06-27T00:40:21Z</time>
      </trkpt>
      <trkpt lat="48.70019" lon="-2.90838">
        <ele>25.7</ele>
        <time>2012-06-27T00:40:41Z</time>
      </trkpt>
      <trkpt lat="48.70051" lon="-2.90933">
        <ele>46</ele>
        <time>2012-06-27T00:41:01Z</time>
      </trkpt>
      <trkpt lat="48.70062" lon="-2.90991">
        <ele>56.7</ele>
        <time>2012-06-27T00:41:21Z</time>
      </trkpt>
      <trkpt lat="48.70102" lon="-2.91002">
        <ele>60.2</ele>
        <time>2012-06-27T00:41:41Z</time>
      </trkpt>
      <trkpt lat="48.70133" lon="-2.90898">
        <ele>58.6</ele>
        <time>2012-06-27T00:42:01Z</time>
      </trkpt>
      <trkpt lat="48.70157" lon="-2.90919">
        <ele>59.4</ele>
        <time>2012-06-27T00:42:21Z</time>
      </trkpt>
      <trkpt lat="48.70175" lon="-2.90994">
        <ele>60.5</ele>
        <time>2012-06-27T00:42:41Z</time>
      </trkpt>
      <trkpt lat="48.70209" lon="-2.91033">
        <ele>51.6</ele>
        <time>2012-06-27T00:43:01Z</time>
      </trkpt>
      <trkpt lat="48.7026" lon="-2.91127">
        <ele>50.8</ele>
        <time>2012-06-27T00:43:21Z</time>
      </trkpt>
      <trkpt lat="48.70298" lon="-2.91147">
        <ele>47.4</ele>
        <time>2012-06-27T00:43:41Z</time>
      </trkpt>
      <trkpt lat="48.703" lon="-2.91177">
        <ele>45.5</ele>
        <time>2012-06-27T00:44:01Z</time>
      </trkpt>
      <trkpt lat="48.70276" lon="-2.91228">
        <ele>43</ele>
        <time>2012-06-27T00:44:21Z</time>
      </trkpt>
      <trkpt lat="48.70304" lon="-2.91249">
        <ele>42.9</ele>
        <time>2012-06-27T00:44:41Z</time>
      </trkpt>
      <trkpt lat="48.70305" lon="-2.91277">
        <ele>43.1</ele>
        <time>2012-06-27T00:45:01Z</time>
      </trkpt>
      <trkpt lat="48.70288" lon="-2.91334">
        <ele>46.7</ele>
        <time>2012-06-27T00:45:21Z</time>
      </trkpt>
      <trkpt lat="48.70321" lon="-2.91355">
        <ele>49.7</ele>
        <time>2012-06-27T00:45:41Z</time>
      </trkpt>
      <trkpt lat="48.70349" lon="-2.91394">
        <ele>53</ele>
        <time>2012-06-27T00:46:01Z</time>
      </trkpt>
      <trkpt lat="48.70379" lon="-2.91409">
        <ele>51.2</ele>
        <time>2012-06-27T00:46:21Z</time>
      </trkpt>
      <trkpt lat="48.70408" lon="-2.91475">
        <ele>54.3</ele>
        <time>2012-06-27T00:46:41Z</time>
      </trkpt>
      <trkpt lat="48.70423" lon="-2.915">
        <ele>54.7</ele>
        <time>2012-06-27T00:47:01Z</time>
      </trkpt>
      <trkpt lat="48.70402" lon="-2.9161">
        <ele>57.2</ele>
        <time>2012-06-27T00:47:21Z</time>
      </trkpt>
      <trkpt lat="48.70407" lon="-2.91639">
        <ele>58</ele>
        <time>2012-06-27T00:47:41Z</time>
      </trkpt>
      <trkpt lat="48.70306" lon="-2.91716">
        <ele>69.8</ele>
        <time>2012-06-27T00:48:01Z</time>
      </trkpt>
      <trkpt lat="48.70304" lon="-2.9183">
        <ele>71</ele>
        <time>2012-06-27T00:48:21Z</time>
      </trkpt>
      <trkpt lat="48.70315" lon="-2.91883">
        <ele>71.7</ele>
        <time>2012-06-27T00:48:41Z</time>
      </trkpt>
      <trkpt lat="48.70303" lon="-2.9194">
        <ele>70.3</ele>
        <time>2012-06-27T00:49:01Z</time>
      </trkpt>
      <trkpt lat="48.70312" lon="-2.92055">
        <ele>70.8</ele>
        <time>2012-06-27T00:49:21Z</time>
      </trkpt>
      <trkpt lat="48.70339" lon="-2.92063">
        <ele>69.4</ele>
        <time>2012-06-27T00:49:41Z</time>
      </trkpt>
      <trkpt lat="48.70341" lon="-2.92091">
        <ele>68.7</ele>
        <time>2012-06-27T00:50:01Z</time>
      </trkpt>
      <trkpt lat="48.70391" lon="-2.92139">
        <ele>65.8</ele>
        <time>2012-06-27T00:50:21Z</time>
      </trkpt>
      <trkpt lat="48.7048" lon="-2.92159">
        <ele>59.3</ele>
        <time>2012-06-27T00:50:41Z</time>
      </trkpt>
      <trkpt lat="48.70505" lon="-2.92175">
        <ele>56.6</ele>
        <time>2012-06-27T00:51:01Z</time>
      </trkpt>
      <trkpt lat="48.70553" lon="-2.92176">
        <ele>50.5</ele>
        <time>2012-06-27T00:51:21Z</time>
      </trkpt>
      <trkpt lat="48.70605" lon="-2.92231">
        <ele>51.9</ele>
        <time>2012-06-27T00:51:41Z</time>
      </trkpt>
      <trkpt lat="48.7061" lon="-2.92262">
        <ele>57.4</ele>
        <time>2012-06-27T00:52:01Z</time>
      </trkpt>
      <trkpt lat="48.70598" lon="-2.92359">
        <ele>61.8</ele>
        <time>2012-06-27T00:52:21Z</time>
      </trkpt>
      <trkpt lat="48.70612" lon="-2.92355">
        <ele>59.1</ele>
        <time>2012-06-27T00:52:41Z</time>
      </trkpt>
      <trkpt lat="48.70635" lon="-2.92278">
        <ele>45.3</ele>
        <time>2012-06-27T00:53:01Z</time>
      </trkpt>
      <trkpt lat="48.70641" lon="-2.92366">
        <ele>37.1</ele>
        <time>2012-06-27T00:53:21Z</time>
      </trkpt>
      <trkpt lat="48.70664" lon="-2.9243">
        <ele>28.8</ele>
        <time>2012-06-27T00:53:41Z</time>
      </trkpt>
      <trkpt lat="48.70684" lon="-2.92424">
        <ele>25.6</ele>
        <time>2012-06-27T00:54:01Z</time>
      </trkpt>
      <trkpt lat="48.70693" lon="-2.92461">
        <ele>28.7</ele>
        <time>2012-06-27T00:54:21Z</time>
      </trkpt>
      <trkpt lat="48.70666" lon="-2.92533">
        <ele>29.7</ele>
        <time>2012-06-27T00:54:41Z</time>
      </trkpt>
      <trkpt lat="48.70668" lon="-2.92607">
        <ele>36.5</ele>
        <time>2012-06-27T00:55:01Z</time>
      </trkpt>
      <trkpt lat="48.70698" lon="-2.92683">
        <ele>48.9</ele>
        <time>2012-06-27T00:55:21Z</time>
      </trkpt>
      <trkpt lat="48.70704" lon="-2.92661">
        <ele>52.1</ele>
        <time>2012-06-27T00:55:41Z</time>
      </trkpt>
      <trkpt lat="48.70741" lon="-2.92727">
        <ele>65.8</ele>
        <time>2012-06-27T00:56:01Z</time>
      </trkpt>
      <trkpt lat="48.70794" lon="-2.92766">
        <ele>66.7</ele>
        <time>2012-06-27T00:56:21Z</time>
      </trkpt>
      <trkpt lat="48.70812" lon="-2.92798">
        <ele>65</ele>
        <time>2012-06-27T00:56:41Z</time>
      </trkpt>
      <trkpt lat="48.70896" lon="-2.92813">
        <ele>70.8</ele>
        <time>2012-06-27T00:57:01Z</time>
      </trkpt>
      <trkpt lat="48.70909" lon="-2.92798">
        <ele>68.8</ele>
        <time>2012-06-27T00:57:21Z</time>
      </trkpt>
      <trkpt lat="48.70933" lon="-2.92792">
        <ele>65</ele>
        <time>2012-06-27T00:57:41Z</time>
      </trkpt>
      <trkpt lat="48.70969" lon="-2.92824">
        <ele>66.8</ele>
        <time>2012-06-27T00:58:01Z</time>
      </trkpt>
      <trkpt lat="48.71007" lon="-2.92879">
        <ele>69.5</ele>
        <time>2012-06-27T00:58:21Z</time>
      </trkpt>
      <trkpt lat="48.71066" lon="-2.92887">
        <ele>76.7</ele>
        <time>2012-06-27T00:58:41Z</time>
      </trkpt>
      <trkpt lat="48.71133" lon="-2.92917">
        <ele>80.4</ele>
        <time>2012-06-27T00:59:01Z</time>
      </trkpt>
      <trkpt lat="48.71152" lon="-2.92895">
        <ele>81.8</ele>
        <time>2012-06-27T00:59:21Z</time>
      </trkpt>
      <trkpt lat="48.71181" lon="-2.92899">
        <ele>81.1</ele>
        <time>2012-06-27T00:59:41Z</time>
      </trkpt>
      <trkpt lat="48.71193" lon="-2.92882">
        <ele>81.3</ele>
        <time>2012-06-27T01:00:01Z</time>
      </trkpt>
      <trkpt lat="48.71232" lon="-2.9289">
        <ele>77.6</ele>
        <time>2012-06-27T01:00:21Z</time>
      </trkpt>
      <trkpt lat="48.71257" lon="-2.92879">
        <ele>72.5</ele>
        <time>2012-06-27T01:00:41Z</time>
      </trkpt>
      <trkpt lat="48.71315" lon="-2.92935">
        <ele>67</ele>
        <time>2012-06-27T01:01:01Z</time>
      </trkpt>
      <trkpt lat="48.71437" lon="-2.93015">
        <ele>60</ele>
        <time>2012-06-27T01:01:21Z</time>
      </trkpt>
      <trkpt lat="48.71439" lon="-2.93037">
        <ele>59.7</ele>
        <time>2012-06-27T01:01:41Z</time>
      </trkpt>
      <trkpt lat="48.71426" lon="-2.93107">
        <ele>57.2</ele>
        <time>2012-06-27T01:02:01Z</time>
      </trkpt>
      <trkpt lat="48.71452" lon="-2.93078">
        <ele>51.3</ele>
        <time>2012-06-27T01:02:21Z</time>
      </trkpt>
      <trkpt lat="48.71466" lon="-2.93093">
        <ele>53.5</ele>
        <time>2012-06-27T01:02:41Z</time>
      </trkpt>
      <trkpt lat="48.71448" lon="-2.93142">
        <ele>58</ele>
        <time>2012-06-27T01:03:01Z</time>
      </trkpt>
      <trkpt lat="48.71485" lon="-2.93119">
        <ele>60.3</ele>
        <time>2012-06-27T01:03:21Z</time>
      </trkpt>
      <trkpt lat="48.71486" lon="-2.9316">
        <ele>69.6</ele>
        <time>2012-06-27T01:03:41Z</time>
      </trkpt>
      <trkpt lat="48.71498" lon="-2.93179">
        <ele>70.7</ele>
        <time>2012-06-27T01:04:01Z</time>
      </trkpt>
      <trkpt lat="48.71479" lon="-2.93213">
        <ele>76.5</ele>
        <time>2012-06-27T01:04:21Z</time>
      </trkpt>
      <trkpt lat="48.71483" lon="-2.93236">
        <ele>78.8</ele>
        <time>2012-06-27T01:04:41Z</time>
      </trkpt>
      <trkpt lat="48.71536" lon="-2.93281">
        <ele>77.1</ele>
        <time>2012-06-27T01:05:01Z</time>
      </trkpt>
      <trkpt lat="48.71645" lon="-2.93319">
        <ele>61.6</ele>
        <time>2012-06-27T01:05:21Z</time>
      </trkpt>
      <trkpt lat="48.71685" lon="-2.93314">
        <ele>54</ele>
        <time>2012-06-27T01:05:41Z</time>
      </trkpt>
      <trkpt lat="48.71723" lon="-2.93341">
        <ele>57.3</ele>
        <time>2012-06-27T01:06:01Z</time>
      </trkpt>
      <trkpt lat="48.71752" lon="-2.93331">
        <ele>59.1</ele>
        <time>2012-06-27T01:06:21Z</time>
      </trkpt>
      <trkpt lat="48.71804" lon="-2.93256">
        <ele>62.7</ele>
        <time>2012-06-27T01:06:41Z</time>
      </trkpt>
      <trkpt lat="48.71822" lon="-2.93281">
        <ele>63.2</ele>
        <time>2012-06-27T01:07:01Z</time>
      </trkpt>
      <trkpt lat="48.7182" lon="-2.93318">
        <ele>58.7</ele>
        <time>2012-06-27T01:07:21Z</time>
      </trkpt>
      <trkpt lat="48.71838" lon="-2.93347">
        <ele>50.1</ele>
        <time>2012-06-27T01:07:41Z</time>
      </trkpt>
      <trkpt lat="48.71795" lon="-2.935">
        <ele>50.5</ele>
        <time>2012-06-27T01:08:01Z</time>
      </trkpt>
      <trkpt lat="48.71797" lon="-2.93557">
        <ele>40.3</ele>
        <time>2012-06-27T01:08:21Z</time>
      </trkpt>
      <trkpt lat="48.71852" lon="-2.93641">
        <ele>18.1</ele>
        <time>2012-06-27T01:08:41Z</time>
      </trkpt>
      <trkpt lat="48.71853" lon="-2.9367">
        <ele>16.3</ele>
        <time>2012-06-27T01:09:01Z</time>
      </trkpt>
      <trkpt lat="48.71836" lon="-2.93694">
        <ele>22.8</ele>
        <time>2012-06-27T01:09:21Z</time>
      </trkpt>
      <trkpt lat="48.71872" lon="-2.93731">
        <ele>31.5</ele>
        <time>2012-06-27T01:09:41Z</time>
      </trkpt>
      <trkpt lat="48.71884" lon="-2.93796">
        <ele>36.2</ele>
        <time>2012-06-27T01:10:01Z</time>
      </trkpt>
      <trkpt lat="48.71863" lon="-2.93835">
        <ele>41.6</ele>
        <time>2012-06-27T01:10:21Z</time>
      </trkpt>
      <trkpt lat="48.71865" lon="-2.93876">
        <ele>41.3</ele>
        <time>2012-06-27T01:10:41Z</time>
      </trkpt>
      <trkpt lat="48.71829" lon="-2.93961">
        <ele>46.2</ele>
        <time>2012-06-27T01:11:01Z</time>
      </trkpt>
      <trkpt lat="48.71827" lon="-2.94096">
        <ele>28.1</ele>
        <time>2012-06-27T01:11:21Z</time>
      </trkpt>
      <trkpt lat="48.71815" lon="-2.94131">
        <ele>23.1</ele>
        <time>2012-06-27T01:11:41Z</time>
      </trkpt>
      <trkpt lat="48.71862" lon="-2.94128">
        <ele>15</ele>
        <time>2012-06-27T01:12:01Z</time>
      </trkpt>
      <trkpt lat="48.71893" lon="-2.94167">
        <ele>7.6</ele>
        <time>2012-06-27T01:12:21Z</time>
      </trkpt>
      <trkpt lat="48.719" lon="-2.94201">
        <ele>13.6</ele>
        <time>2012-06-27T01:12:41Z</time>
      </trkpt>
      <trkpt lat="48.71881" lon="-2.9423">
        <ele>20.6</ele>
        <time>2012-06-27T01:13:01Z</time>
      </trkpt>
      <trkpt lat="48.71929" lon="-2.94271">
        <ele>36.1</ele>
        <time>2012-06-27T01:13:21Z</time>
      </trkpt>
      <trkpt lat="48.71913" lon="-2.94351">
        <ele>40.5</ele>
        <time>2012-06-27T01:13:41Z</time>
      </trkpt>
      <trkpt lat="48.71868" lon="-2.94388">
        <ele>43.5</ele>
        <time>2012-06-27T01:14:01Z</time>
      </trkpt>
      <trkpt lat="48.71837" lon="-2.9454">
        <ele>49.1</ele>
        <time>2012-06-27T01:14:21Z</time>
      </trkpt>
      <trkpt lat="48.7192" lon="-2.94632">
        <ele>54</ele>
        <time>2012-06-27T01:14:41Z</time>
      </trkpt>
      <trkpt lat="48.71866" lon="-2.94744">
        <ele>61.1</ele>
        <time>2012-06-27T01:15:01Z</time>
      </trkpt>
      <trkpt lat="48.71846" lon="-2.94891">
        <ele>68.5</ele>
        <time>2012-06-27T01:15:21Z</time>
      </trkpt>
      <trkpt lat="48.71801" lon="-2.95009">
        <ele>72.8</ele>
        <time>2012-06-27T01:15:41Z</time>
      </trkpt>
      <trkpt lat="48.71792" lon="-2.95097">
        <ele>73.5</ele>
        <time>2012-06-27T01:16:01Z</time>
      </trkpt>
      <trkpt lat="48.71836" lon="-2.95058">
        <ele>75.8</ele>
        <time>2012-06-27T01:16:21Z</time>
      </trkpt>
      <trkpt lat="48.71898" lon="-2.95049">
        <ele>72.8</ele>
        <time>2012-06-27T01:16:41Z</time>
      </trkpt>
      <trkpt lat="48.71954" lon="-2.95081">
        <ele>69</ele>
        <time>2012-06-27T01:17:01Z</time>
      </trkpt>
      <trkpt lat="48.71983" lon="-2.95117">
        <ele>65.4</ele>
        <time>2012-06-27T01:17:21Z</time>
      </trkpt>
      <trkpt lat="48.71999" lon="-2.95174">
        <ele>65.6</ele>
        <time>2012-06-27T01:17:41Z</time>
      </trkpt>
      <trkpt lat="48.72103" lon="-2.95031">
        <ele>45.6</ele>
        <time>2012-06-27T01:18:01Z</time>
      </trkpt>
      <trkpt lat="48.72124" lon="-2.95058">
        <ele>46.7</ele>
        <time>2012-06-27T01:18:21Z</time>
      </trkpt>
      <trkpt lat="48.72174" lon="-2.95068">
        <ele>50.9</ele>
        <time>2012-06-27T01:18:41Z</time>
      </trkpt>
      <trkpt lat="48.72254" lon="-2.95051">
        <ele>52.7</ele>
        <time>2012-06-27T01:19:01Z</time>
      </trkpt>
      <trkpt lat="48.72405" lon="-2.94889">
        <ele>45.9</ele>
        <time>2012-06-27T01:19:21Z</time>
      </trkpt>
      <trkpt lat="48.72447" lon="-2.94868">
        <ele>47</ele>
        <time>2012-06-27T01:19:41Z</time>
      </trkpt>
      <trkpt lat="48.72505" lon="-2.9487">
        <ele>45.2</ele>
        <time>2012-06-27T01:20:01Z</time>
      </trkpt>
      <trkpt lat="48.72554" lon="-2.9491">
        <ele>41.5</ele>
        <time>2012-06-27T01:20:21Z</time>
      </trkpt>
      <trkpt lat="48.72588" lon="-2.9496">
        <ele>39.5</ele>
        <time>2012-06-27T01:20:41Z</time>
      </trkpt>
      <trkpt lat="48.72625" lon="-2.94891">
        <ele>17.8</ele>
        <time>2012-06-27T01:21:01Z</time>
      </trkpt>
      <trkpt lat="48.72661" lon="-2.94848">
        <ele>6.8</ele>
        <time>2012-06-27T01:21:21Z</time>
      </trkpt>
      <trkpt lat="48.72734" lon="-2.9483">
        <ele>8.9</ele>
        <time>2012-06-27T01:21:41Z</time>
      </trkpt>
      <trkpt lat="48.72739" lon="-2.94713">
        <ele>16.5</ele>
        <time>2012-06-27T01:22:01Z</time>
      </trkpt>
      <trkpt lat="48.72759" lon="-2.94642">
        <ele>25.8</ele>
        <time>2012-06-27T01:22:21Z</time>
      </trkpt>
      <trkpt lat="48.72806" lon="-2.94565">
        <ele>39.4</ele>
        <time>2012-06-27T01:22:41Z</time>
      </trkpt>
      <trkpt lat="48.7283" lon="-2.94494">
        <ele>40</ele>
        <time>2012-06-27T01:23:01Z</time>
      </trkpt>
      <trkpt lat="48.72884" lon="-2.94411">
        <ele>54.3</ele>
        <time>2012-06-27T01:23:21Z</time>
      </trkpt>
      <trkpt lat="48.72904" lon="-2.9435">
        <ele>56.8</ele>
        <time>2012-06-27T01:23:41Z</time>
      </trkpt>
      <trkpt lat="48.72921" lon="-2.94428">
        <ele>70.3</ele>
        <time>2012-06-27T01:24:01Z</time>
      </trkpt>
      <trkpt lat="48.7295" lon="-2.94378">
        <ele>66.7</ele>
        <time>2012-06-27T01:24:21Z</time>
      </trkpt>
      <trkpt lat="48.72983" lon="-2.94369">
        <ele>65.2</ele>
        <time>2012-06-27T01:24:41Z</time>
      </trkpt>
      <trkpt lat="48.73057" lon="-2.94391">
        <ele>64.1</ele>
        <time>2012-06-27T01:25:01Z</time>
      </trkpt>
      <trkpt lat="48.73093" lon="-2.94342">
        <ele>67.1</ele>
        <time>2012-06-27T01:25:21Z</time>
      </trkpt>
      <trkpt lat="48.73099" lon="-2.94243">
        <ele>70.4</ele>
        <time>2012-06-27T01:25:41Z</time>
      </trkpt>
      <trkpt lat="48.73178" lon="-2.94001">
        <ele>71.4</ele>
        <time>2012-06-27T01:26:01Z</time>
      </trkpt>
      <trkpt lat="48.73271" lon="-2.93968">
        <ele>67.9</ele>
        <time>2012-06-27T01:26:21Z</time>
      </trkpt>
      <trkpt lat="48.7371" lon="-2.93652">
        <ele>75.2</ele>
        <time>2012-06-27T01:26:41Z</time>
      </trkpt>
      <trkpt lat="48.73753" lon="-2.93656">
        <ele>73.5</ele>
        <time>2012-06-27T01:27:01Z</time>
      </trkpt>
      <trkpt lat="48.73784" lon="-2.93693">
        <ele>73.9</ele>
        <time>2012-06-27T01:27:21Z</time>
      </trkpt>
      <trkpt lat="48.73878" lon="-2.93901">
        <ele>72.8</ele>
        <time>2012-06-27T01:27:41Z</time>
      </trkpt>
      <trkpt lat="48.73885" lon="-2.93939">
        <ele>70.8</ele>
        <time>2012-06-27T01:28:01Z</time>
      </trkpt>
      <trkpt lat="48.73902" lon="-2.9395">
        <ele>63.1</ele>
        <time>2012-06-27T01:28:21Z</time>
      </trkpt>
      <trkpt lat="48.73916" lon="-2.94038">
        <ele>43.8</ele>
        <time>2012-06-27T01:28:41Z</time>
      </trkpt>
      <trkpt lat="48.73958" lon="-2.94055">
        <ele>22.8</ele>
        <time>2012-06-27T01:29:01Z</time>
      </trkpt>
      <trkpt lat="48.73947" lon="-2.94094">
        <ele>22.6</ele>
        <time>2012-06-27T01:29:21Z</time>
      </trkpt>
      <trkpt lat="48.73952" lon="-2.94119">
        <ele>21.9</ele>
        <time>2012-06-27T01:29:41Z</time>
      </trkpt>
      <trkpt lat="48.73978" lon="-2.94138">
        <ele>22.6</ele>
        <time>2012-06-27T01:30:01Z</time>
      </trkpt>
      <trkpt lat="48.74004" lon="-2.94178">
        <ele>19</ele>
        <time>2012-06-27T01:30:21Z</time>
      </trkpt>
      <trkpt lat="48.73993" lon="-2.94254">
        <ele>22.3</ele>
        <time>2012-06-27T01:30:41Z</time>
      </trkpt>
      <trkpt lat="48.74089" lon="-2.94149">
        <ele>29.8</ele>
        <time>2012-06-27T01:31:01Z</time>
      </trkpt>
      <trkpt lat="48.74122" lon="-2.94155">
        <ele>38.4</ele>
        <time>2012-06-27T01:31:21Z</time>
      </trkpt>
      <trkpt lat="48.74094" lon="-2.94263">
        <ele>48.7</ele>
        <time>2012-06-27T01:31:41Z</time>
      </trkpt>
      <trkpt lat="48.74171" lon="-2.94329">
        <ele>59.9</ele>
        <time>2012-06-27T01:32:01Z</time>
      </trkpt>
      <trkpt lat="48.74197" lon="-2.94384">
        <ele>63.5</ele>
        <time>2012-06-27T01:32:21Z</time>
      </trkpt>
      <trkpt lat="48.74244" lon="-2.94401">
        <ele>67</ele>
        <time>2012-06-27T01:32:41Z</time>
      </trkpt>
      <trkpt lat="48.7429" lon="-2.94367">
        <ele>63.8</ele>
        <time>2012-06-27T01:33:01Z</time>
      </trkpt>
      <trkpt lat="48.7455" lon="-2.94373">
        <ele>70.9</ele>
        <time>2012-06-27T01:33:21Z</time>
      </trkpt>
      <trkpt lat="48.7461" lon="-2.94327">
        <ele>70.7</ele>
        <time>2012-06-27T01:33:41Z</time>
      </trkpt>
      <trkpt lat="48.74744" lon="-2.94005">
        <ele>64.8</ele>
        <time>2012-06-27T01:34:01Z</time>
      </trkpt>
      <trkpt lat="48.74801" lon="-2.93956">
        <ele>63.7</ele>
        <time>2012-06-27T01:34:21Z</time>
      </trkpt>
      <trkpt lat="48.74899" lon="-2.93938">
        <ele>60.6</ele>
        <time>2012-06-27T01:34:41Z</time>
      </trkpt>
      <trkpt lat="48.75139" lon="-2.9383">
        <ele>64.9</ele>
        <time>2012-06-27T01:35:01Z</time>
      </trkpt>
      <trkpt lat="48.7516" lon="-2.93664">
        <ele>61.2</ele>
        <time>2012-06-27T01:35:21Z</time>
      </trkpt>
      <trkpt lat="48.75201" lon="-2.93566">
        <ele>59.5</ele>
        <time>2012-06-27T01:35:41Z</time>
      </trkpt>
      <trkpt lat="48.75257" lon="-2.93505">
        <ele>58.5</ele>
        <time>2012-06-27T01:36:01Z</time>
      </trkpt>
      <trkpt lat="48.75282" lon="-2.93458">
        <ele>59.9</ele>
        <time>2012-06-27T01:36:21Z</time>
      </trkpt>
      <trkpt lat="48.75381" lon="-2.93369">
        <ele>56.8</ele>
        <time>2012-06-27T01:36:41Z</time>
      </trkpt>
      <trkpt lat="48.75417" lon="-2.93346">
        <ele>54.9</ele>
        <time>2012-06-27T01:37:01Z</time>
      </trkpt>
      <trkpt lat="48.75429" lon="-2.93273">
        <ele>52.1</ele>
        <time>2012-06-27T01:37:21Z</time>
      </trkpt>
      <trkpt lat="48.75427" lon="-2.93204">
        <ele>52.5</ele>
        <time>2012-06-27T01:37:41Z</time>
      </trkpt>
      <trkpt lat="48.75449" lon="-2.9322">
        <ele>53.8</ele>
        <time>2012-06-27T01:38:01Z</time>
      </trkpt>
      <trkpt lat="48.75508" lon="-2.93304">
        <ele>57.8</ele>
        <time>2012-06-27T01:38:21Z</time>
      </trkpt>
      <trkpt lat="48.75558" lon="-2.9336">
        <ele>57.4</ele>
        <time>2012-06-27T01:38:41Z</time>
      </trkpt>
      <trkpt lat="48.75607" lon="-2.93456">
        <ele>62.1</ele>
        <time>2012-06-27T01:39:01Z</time>
      </trkpt>
      <trkpt lat="48.75644" lon="-2.93479">
        <ele>57.2</ele>
        <time>2012-06-27T01:39:21Z</time>
      </trkpt>
      <trkpt lat="48.75582" lon="-2.93668">
        <ele>60</ele>
        <time>2012-06-27T01:39:41Z</time>
      </trkpt>
      <trkpt lat="48.75596" lon="-2.93772">
        <ele>59.3</ele>
        <time>2012-06-27T01:40:01Z</time>
      </trkpt>
      <trkpt lat="48.75642" lon="-2.93819">
        <ele>53.3</ele>
        <time>2012-06-27T01:40:21Z</time>
      </trkpt>
      <trkpt lat="48.75652" lon="-2.93923">
        <ele>59.9</ele>
        <time>2012-06-27T01:40:41Z</time>
      </trkpt>
      <trkpt lat="48.75639" lon="-2.93957">
        <ele>60</ele>
        <time>2012-06-27T01:41:01Z</time>
      </trkpt>
      <trkpt lat="48.75665" lon="-2.9427">
        <ele>55.4</ele>
        <time>2012-06-27T01:41:21Z</time>
      </trkpt>
      <trkpt lat="48.75746" lon="-2.9437">
        <ele>8.2</ele>
        <time>2012-06-27T01:41:41Z</time>
      </trkpt>
      <trkpt lat="48.75739" lon="-2.94421">
        <ele>17.8</ele>
        <time>2012-06-27T01:42:01Z</time>
      </trkpt>
      <trkpt lat="48.7576" lon="-2.94488">
        <ele>44.2</ele>
        <time>2012-06-27T01:42:21Z</time>
      </trkpt>
      <trkpt lat="48.75836" lon="-2.94481">
        <ele>52.5</ele>
        <time>2012-06-27T01:42:41Z</time>
      </trkpt>
      <trkpt lat="48.75879" lon="-2.94508">
        <ele>54.2</ele>
        <time>2012-06-27T01:43:01Z</time>
      </trkpt>
      <trkpt lat="48.75893" lon="-2.94533">
        <ele>52.8</ele>
        <time>2012-06-27T01:43:21Z</time>
      </trkpt>
      <trkpt lat="48.75902" lon="-2.94572">
        <ele>55.6</ele>
        <time>2012-06-27T01:43:41Z</time>
      </trkpt>
      <trkpt lat="48.75965" lon="-2.94631">
        <ele>60.7</ele>
        <time>2012-06-27T01:44:01Z</time>
      </trkpt>
      <trkpt lat="48.75982" lon="-2.94676">
        <ele>61.8</ele>
        <time>2012-06-27T01:44:21Z</time>
      </trkpt>
      <trkpt lat="48.76095" lon="-2.94832">
        <ele>60</ele>
        <time>2012-06-27T01:44:41Z</time>
      </trkpt>
      <trkpt lat="48.7614" lon="-2.94918">
        <ele>64</ele>
        <time>2012-06-27T01:45:01Z</time>
      </trkpt>
      <trkpt lat="48.76166" lon="-2.9494">
        <ele>63.5</ele>
        <time>2012-06-27T01:45:21Z</time>
      </trkpt>
      <trkpt lat="48.76295" lon="-2.95171">
        <ele>62.5</ele>
        <time>2012-06-27T01:45:41Z</time>
      </trkpt>
      <trkpt lat="48.7636" lon="-2.9515">
        <ele>63.3</ele>
        <time>2012-06-27T01:46:01Z</time>
      </trkpt>
      <trkpt lat="48.76381" lon="-2.95176">
        <ele>61.4</ele>
        <time>2012-06-27T01:46:21Z</time>
      </trkpt>
      <trkpt lat="48.76444" lon="-2.95213">
        <ele>56.3</ele>
        <time>2012-06-27T01:46:41Z</time>
      </trkpt>
      <trkpt lat="48.76462" lon="-2.95268">
        <ele>59.5</ele>
        <time>2012-06-27T01:47:01Z</time>
      </trkpt>
      <trkpt lat="48.76526" lon="-2.95327">
        <ele>58.9</ele>
        <time>2012-06-27T01:47:21Z</time>
      </trkpt>
      <trkpt lat="48.76592" lon="-2.95327">
        <ele>54.4</ele>
        <time>2012-06-27T01:47:41Z</time>
      </trkpt>
      <trkpt lat="48.76652" lon="-2.9539">
        <ele>48.5</ele>
        <time>2012-06-27T01:48:01Z</time>
      </trkpt>
      <trkpt lat="48.76742" lon="-2.95367">
        <ele>49.3</ele>
        <time>2012-06-27T01:48:21Z</time>
      </trkpt>
      <trkpt lat="48.76719" lon="-2.9546">
        <ele>29.6</ele>
        <time>2012-06-27T01:48:41Z</time>
      </trkpt>
      <trkpt lat="48.76675" lon="-2.95465">
        <ele>29.8</ele>
        <time>2012-06-27T01:49:01Z</time>
      </trkpt>
      <trkpt lat="48.76612" lon="-2.95514">
        <ele>28.3</ele>
        <time>2012-06-27T01:49:21Z</time>
      </trkpt>
      <trkpt lat="48.76421" lon="-2.95754">
        <ele>9</ele>
        <time>2012-06-27T01:49:41Z</time>
      </trkpt>
      <trkpt lat="48.76329" lon="-2.95993">
        <ele>7.7</ele>
        <time>2012-06-27T01:50:01Z</time>
      </trkpt>
      <trkpt lat="48.76281" lon="-2.96182">
        <ele>16.1</ele>
        <time>2012-06-27T01:50:21Z</time>
      </trkpt>
      <trkpt lat="48.76244" lon="-2.96544">
        <ele>7.6</ele>
        <time>2012-06-27T01:50:41Z</time>
      </trkpt>
      <trkpt lat="48.7625" lon="-2.9698">
        <ele>7.3</ele>
        <time>2012-06-27T01:51:01Z</time>
      </trkpt>
      <trkpt lat="48.76224" lon="-2.97047">
        <ele>29.1</ele>
        <time>2012-06-27T01:51:21Z</time>
      </trkpt>
      <trkpt lat="48.76238" lon="-2.97078">
        <ele>37.5</ele>
        <time>2012-06-27T01:51:41Z</time>
      </trkpt>
      <trkpt lat="48.76215" lon="-2.97099">
        <ele>44.5</ele>
        <time>2012-06-27T01:52:01Z</time>
      </trkpt>
      <trkpt lat="48.762" lon="-2.97098">
        <ele>47.5</ele>
        <time>2012-06-27T01:52:21Z</time>
      </trkpt>
      <trkpt lat="48.76169" lon="-2.97256">
        <ele>50.6</ele>
        <time>2012-06-27T01:52:41Z</time>
      </trkpt>
      <trkpt lat="48.7618" lon="-2.97275">
        <ele>45.2</ele>
        <time>2012-06-27T01:53:01Z</time>
      </trkpt>
      <trkpt lat="48.76163" lon="-2.97343">
        <ele>49.9</ele>
        <time>2012-06-27T01:53:21Z</time>
      </trkpt>
      <trkpt lat="48.76163" lon="-2.97415">
        <ele>50.1</ele>
        <time>2012-06-27T01:53:41Z</time>
      </trkpt>
      <trkpt lat="48.76177" lon="-2.97496">
        <ele>45.2</ele>
        <time>2012-06-27T01:54:01Z</time>
      </trkpt>
      <trkpt lat="48.76174" lon="-2.97611">
        <ele>40.5</ele>
        <time>2012-06-27T01:54:21Z</time>
      </trkpt>
      <trkpt lat="48.76182" lon="-2.97647">
        <ele>36.8</ele>
        <time>2012-06-27T01:54:41Z</time>
      </trkpt>
      <trkpt lat="48.7614" lon="-2.9772">
        <ele>40.1</ele>
        <time>2012-06-27T01:55:01Z</time>
      </trkpt>
      <trkpt lat="48.7617" lon="-2.97733">
        <ele>33</ele>
        <time>2012-06-27T01:55:21Z</time>
      </trkpt>
      <trkpt lat="48.76181" lon="-2.97763">
        <ele>23</ele>
        <time>2012-06-27T01:55:41Z</time>
      </trkpt>
      <trkpt lat="48.76162" lon="-2.9786">
        <ele>24.8</ele>
        <time>2012-06-27T01:56:01Z</time>
      </trkpt>
      <trkpt lat="48.76143" lon="-2.97892">
        <ele>32.8</ele>
        <time>2012-06-27T01:56:21Z</time>
      </trkpt>
      <trkpt lat="48.76156" lon="-2.97967">
        <ele>32.6</ele>
        <time>2012-06-27T01:56:41Z</time>
      </trkpt>
      <trkpt lat="48.76138" lon="-2.98025">
        <ele>30.2</ele>
        <time>2012-06-27T01:57:01Z</time>
      </trkpt>
      <trkpt lat="48.76156" lon="-2.98077">
        <ele>27.8</ele>
        <time>2012-06-27T01:57:21Z</time>
      </trkpt>
      <trkpt lat="48.76169" lon="-2.98083">
        <ele>28.2</ele>
        <time>2012-06-27T01:57:41Z</time>
      </trkpt>
      <trkpt lat="48.76196" lon="-2.983">
        <ele>34.5</ele>
        <time>2012-06-27T01:58:01Z</time>
      </trkpt>
      <trkpt lat="48.76224" lon="-2.98377">
        <ele>30.1</ele>
        <time>2012-06-27T01:58:21Z</time>
      </trkpt>
      <trkpt lat="48.76227" lon="-2.98427">
        <ele>34.1</ele>
        <time>2012-06-27T01:58:41Z</time>
      </trkpt>
      <trkpt lat="48.76249" lon="-2.98472">
        <ele>33.5</ele>
        <time>2012-06-27T01:59:01Z</time>
      </trkpt>
      <trkpt lat="48.76278" lon="-2.98664">
        <ele>27.9</ele>
        <time>2012-06-27T01:59:21Z</time>
      </trkpt>
      <trkpt lat="48.76229" lon="-2.98889">
        <ele>31.3</ele>
        <time>2012-06-27T01:59:41Z</time>
      </trkpt>
      <trkpt lat="48.7623" lon="-2.98966">
        <ele>23.9</ele>
        <time>2012-06-27T02:00:01Z</time>
      </trkpt>
      <trkpt lat="48.76195" lon="-2.99069">
        <ele>18.5</ele>
        <time>2012-06-27T02:00:21Z</time>
      </trkpt>
      <trkpt lat="48.76217" lon="-2.99077">
        <ele>15.1</ele>
        <time>2012-06-27T02:00:41Z</time>
      </trkpt>
      <trkpt lat="48.76269" lon="-2.99125">
        <ele>14.7</ele>
        <time>2012-06-27T02:01:01Z</time>
      </trkpt>
      <trkpt lat="48.76287" lon="-2.9916">
        <ele>16.1</ele>
        <time>2012-06-27T02:01:21Z</time>
      </trkpt>
      <trkpt lat="48.76331" lon="-2.99212">
        <ele>15.1</ele>
        <time>2012-06-27T02:01:41Z</time>
      </trkpt>
      <trkpt lat="48.76331" lon="-2.9925">
        <ele>20</ele>
        <time>2012-06-27T02:02:01Z</time>
      </trkpt>
      <trkpt lat="48.76354" lon="-2.99374">
        <ele>45.2</ele>
        <time>2012-06-27T02:02:21Z</time>
      </trkpt>
      <trkpt lat="48.76403" lon="-2.99394">
        <ele>39.5</ele>
        <time>2012-06-27T02:02:41Z</time>
      </trkpt>
      <trkpt lat="48.76387" lon="-2.99499">
        <ele>39.6</ele>
        <time>2012-06-27T02:03:01Z</time>
      </trkpt>
      <trkpt lat="48.76393" lon="-2.99527">
        <ele>38.8</ele>
        <time>2012-06-27T02:03:21Z</time>
      </trkpt>
      <trkpt lat="48.76383" lon="-2.99556">
        <ele>49.9</ele>
        <time>2012-06-27T02:03:41Z</time>
      </trkpt>
      <trkpt lat="48.76438" lon="-2.997">
        <ele>47.8</ele>
        <time>2012-06-27T02:04:01Z</time>
      </trkpt>
      <trkpt lat="48.76425" lon="-2.9985">
        <ele>42.9</ele>
        <time>2012-06-27T02:04:21Z</time>
      </trkpt>
      <trkpt lat="48.76409" lon="-2.99906">
        <ele>47.1</ele>
        <time>2012-06-27T02:04:41Z</time>
      </trkpt>
      <trkpt lat="48.7641" lon="-3.00057">
        <ele>39.8</ele>
        <time>2012-06-27T02:05:01Z</time>
      </trkpt>
      <trkpt lat="48.76431" lon="-3.00086">
        <ele>33.9</ele>
        <time>2012-06-27T02:05:21Z</time>
      </trkpt>
      <trkpt lat="48.76471" lon="-3.00209">
        <ele>34.1</ele>
        <time>2012-06-27T02:05:41Z</time>
      </trkpt>
      <trkpt lat="48.76496" lon="-3.00246">
        <ele>28.4</ele>
        <time>2012-06-27T02:06:01Z</time>
      </trkpt>
      <trkpt lat="48.76509" lon="-3.0036">
        <ele>33.3</ele>
        <time>2012-06-27T02:06:21Z</time>
      </trkpt>
      <trkpt lat="48.76547" lon="-3.00455">
        <ele>25.7</ele>
        <time>2012-06-27T02:06:41Z</time>
      </trkpt>
      <trkpt lat="48.76589" lon="-3.00513">
        <ele>22.3</ele>
        <time>2012-06-27T02:07:01Z</time>
      </trkpt>
      <trkpt lat="48.76625" lon="-3.00522">
        <ele>20</ele>
        <time>2012-06-27T02:07:21Z</time>
      </trkpt>
      <trkpt lat="48.7668" lon="-3.00599">
        <ele>15.1</ele>
        <time>2012-06-27T02:07:41Z</time>
      </trkpt>
      <trkpt lat="48.76668" lon="-3.00758">
        <ele>21.2</ele>
        <time>2012-06-27T02:08:01Z</time>
      </trkpt>
      <trkpt lat="48.7669" lon="-3.0078">
        <ele>16</ele>
        <time>2012-06-27T02:08:21Z</time>
      </trkpt>
      <trkpt lat="48.76628" lon="-3.00909">
        <ele>28.9</ele>
        <time>2012-06-27T02:08:41Z</time>
      </trkpt>
      <trkpt lat="48.76625" lon="-3.00987">
        <ele>29.8</ele>
        <time>2012-06-27T02:09:01Z</time>
      </trkpt>
      <trkpt lat="48.7664" lon="-3.01046">
        <ele>22</ele>
        <time>2012-06-27T02:09:21Z</time>
      </trkpt>
      <trkpt lat="48.76612" lon="-3.01155">
        <ele>26.7</ele>
        <time>2012-06-27T02:09:41Z</time>
      </trkpt>
      <trkpt lat="48.76617" lon="-3.01403">
        <ele>22</ele>
        <time>2012-06-27T02:10:01Z</time>
      </trkpt>
      <trkpt lat="48.76597" lon="-3.01518">
        <ele>18.2</ele>
        <time>2012-06-27T02:10:21Z</time>
      </trkpt>
      <trkpt lat="48.76592" lon="-3.01594">
        <ele>13.8</ele>
        <time>2012-06-27T02:10:41Z</time>
      </trkpt>
      <trkpt lat="48.76519" lon="-3.01743">
        <ele>10.9</ele>
        <time>2012-06-27T02:11:01Z</time>
      </trkpt>
      <trkpt lat="48.76491" lon="-3.01758">
        <ele>11.4</ele>
        <time>2012-06-27T02:11:21Z</time>
      </trkpt>
      <trkpt lat="48.76516" lon="-3.01789">
        <ele>9.9</ele>
        <time>2012-06-27T02:11:41Z</time>
      </trkpt>
      <trkpt lat="48.76533" lon="-3.01768">
        <ele>6.9</ele>
        <time>2012-06-27T02:12:01Z</time>
      </trkpt>
      <trkpt lat="48.76549" lon="-3.01761">
        <ele>7.2</ele>
        <time>2012-06-27T02:12:21Z</time>
      </trkpt>
      <trkpt lat="48.76552" lon="-3.01747">
        <ele>7.7</ele>
        <time>2012-06-27T02:12:41Z</time>
      </trkpt>
      <trkpt lat="48.76717" lon="-3.0173">
        <ele>6.1</ele>
        <time>2012-06-27T02:13:01Z</time>
      </trkpt>
      <trkpt lat="48.76739" lon="-3.01706">
        <ele>5.4</ele>
        <time>2012-06-27T02:13:21Z</time>
      </trkpt>
      <trkpt lat="48.76825" lon="-3.01705">
        <ele>5.3</ele>
        <time>2012-06-27T02:13:41Z</time>
      </trkpt>
      <trkpt lat="48.76898" lon="-3.01788">
        <ele>5.9</ele>
        <time>2012-06-27T02:14:01Z</time>
      </trkpt>
      <trkpt lat="48.76908" lon="-3.01823">
        <ele>6.2</ele>
        <time>2012-06-27T02:14:21Z</time>
      </trkpt>
      <trkpt lat="48.77101" lon="-3.0219">
        <ele>6.9</ele>
        <time>2012-06-27T02:14:41Z</time>
      </trkpt>
      <trkpt lat="48.77154" lon="-3.02346">
        <ele>7.2</ele>
        <time>2012-06-27T02:15:01Z</time>
      </trkpt>
      <trkpt lat="48.77174" lon="-3.02289">
        <ele>6.6</ele>
        <time>2012-06-27T02:15:21Z</time>
      </trkpt>
      <trkpt lat="48.77233" lon="-3.0233">
        <ele>5.6</ele>
        <time>2012-06-27T02:15:41Z</time>
      </trkpt>
      <trkpt lat="48.77257" lon="-3.02412">
        <ele>7.2</ele>
        <time>2012-06-27T02:16:01Z</time>
      </trkpt>
      <trkpt lat="48.77419" lon="-3.026">
        <ele>6.4</ele>
        <time>2012-06-27T02:16:21Z</time>
      </trkpt>
      <trkpt lat="48.77473" lon="-3.02684">
        <ele>6</ele>
        <time>2012-06-27T02:16:41Z</time>
      </trkpt>
      <trkpt lat="48.77516" lon="-3.02721">
        <ele>5.6</ele>
        <time>2012-06-27T02:17:01Z</time>
      </trkpt>
      <trkpt lat="48.77527" lon="-3.02777">
        <ele>6</ele>
        <time>2012-06-27T02:17:21Z</time>
      </trkpt>
      <trkpt lat="48.77519" lon="-3.02805">
        <ele>5.4</ele>
        <time>2012-06-27T02:17:41Z</time>
      </trkpt>
      <trkpt lat="48.77492" lon="-3.02794">
        <ele>4.6</ele>
        <time>2012-06-27T02:18:01Z</time>
      </trkpt>
      <trkpt lat="48.77424" lon="-3.02862">
        <ele>6.5</ele>
        <time>2012-06-27T02:18:21Z</time>
      </trkpt>
      <trkpt lat="48.77478" lon="-3.02977">
        <ele>7.1</ele>
        <time>2012-06-27T02:18:41Z</time>
      </trkpt>
      <trkpt lat="48.77515" lon="-3.03017">
        <ele>7.1</ele>
        <time>2012-06-27T02:19:01Z</time>
      </trkpt>
      <trkpt lat="48.77574" lon="-3.03012">
        <ele>6.1</ele>
        <time>2012-06-27T02:19:21Z</time>
      </trkpt>
      <trkpt lat="48.776" lon="-3.02959">
        <ele>5.5</ele>
        <time>2012-06-27T02:19:41Z</time>
      </trkpt>
      <trkpt lat="48.7764" lon="-3.02914">
        <ele>4.9</ele>
        <time>2012-06-27T02:20:01Z</time>
      </trkpt>
      <trkpt lat="48.7779" lon="-3.02878">
        <ele>6</ele>
        <time>2012-06-27T02:20:21Z</time>
      </trkpt>
      <trkpt lat="48.77799" lon="-3.02985">
        <ele>6.5</ele>
        <time>2012-06-27T02:20:41Z</time>
      </trkpt>
      <trkpt lat="48.77825" lon="-3.02997">
        <ele>8.3</ele>
        <time>2012-06-27T02:21:01Z</time>
      </trkpt>
      <trkpt lat="48.77868" lon="-3.02845">
        <ele>8.1</ele>
        <time>2012-06-27T02:21:21Z</time>
      </trkpt>
      <trkpt lat="48.77905" lon="-3.02799">
        <ele>8.7</ele>
        <time>2012-06-27T02:21:41Z</time>
      </trkpt>
      <trkpt lat="48.77924" lon="-3.02718">
        <ele>11.2</ele>
        <time>2012-06-27T02:22:01Z</time>
      </trkpt>
      <trkpt lat="48.77917" lon="-3.02661">
        <ele>7.5</ele>
        <time>2012-06-27T02:22:21Z</time>
      </trkpt>
      <trkpt lat="48.77959" lon="-3.02506">
        <ele>10.2</ele>
        <time>2012-06-27T02:22:41Z</time>
      </trkpt>
      <trkpt lat="48.77948" lon="-3.02477">
        <ele>11.1</ele>
        <time>2012-06-27T02:23:01Z</time>
      </trkpt>
      <trkpt lat="48.77948" lon="-3.02353">
        <ele>7.8</ele>
        <time>2012-06-27T02:23:21Z</time>
      </trkpt>
      <trkpt lat="48.77979" lon="-3.02265">
        <ele>11.8</ele>
        <time>2012-06-27T02:23:41Z</time>
      </trkpt>
      <trkpt lat="48.77962" lon="-3.02213">
        <ele>9.6</ele>
        <time>2012-06-27T02:24:01Z</time>
      </trkpt>
      <trkpt lat="48.7796" lon="-3.02187">
        <ele>9.8</ele>
        <time>2012-06-27T02:24:21Z</time>
      </trkpt>
      <trkpt lat="48.77938" lon="-3.02109">
        <ele>9.5</ele>
        <time>2012-06-27T02:24:41Z</time>
      </trkpt>
      <trkpt lat="48.77893" lon="-3.02019">
        <ele>6.2</ele>
        <time>2012-06-27T02:25:01Z</time>
      </trkpt>
      <trkpt lat="48.77894" lon="-3.01981">
        <ele>6.6</ele>
        <time>2012-06-27T02:25:21Z</time>
      </trkpt>
      <trkpt lat="48.77925" lon="-3.01908">
        <ele>8.1</ele>
        <time>2012-06-27T02:25:41Z</time>
      </trkpt>
      <trkpt lat="48.77928" lon="-3.0187">
        <ele>8</ele>
        <time>2012-06-27T02:26:01Z</time>
      </trkpt>
      <trkpt lat="48.77909" lon="-3.01767">
        <ele>10.2</ele>
        <time>2012-06-27T02:26:21Z</time>
      </trkpt>
      <trkpt lat="48.7787" lon="-3.01753">
        <ele>5.8</ele>
        <time>2012-06-27T02:26:41Z</time>
      </trkpt>
      <trkpt lat="48.7787" lon="-3.01673">
        <ele>7.8</ele>
        <time>2012-06-27T02:27:01Z</time>
      </trkpt>
      <trkpt lat="48.77962" lon="-3.01466">
        <ele>12.2</ele>
        <time>2012-06-27T02:27:21Z</time>
      </trkpt>
      <trkpt lat="48.77981" lon="-3.0145">
        <ele>12.1</ele>
        <time>2012-06-27T02:27:41Z</time>
      </trkpt>
      <trkpt lat="48.78038" lon="-3.01455">
        <ele>22</ele>
        <time>2012-06-27T02:28:01Z</time>
      </trkpt>
      <trkpt lat="48.78098" lon="-3.01284">
        <ele>6.5</ele>
        <time>2012-06-27T02:28:21Z</time>
      </trkpt>
      <trkpt lat="48.78093" lon="-3.01239">
        <ele>6.4</ele>
        <time>2012-06-27T02:28:41Z</time>
      </trkpt>
      <trkpt lat="48.78027" lon="-3.01125">
        <ele>9.3</ele>
        <time>2012-06-27T02:29:01Z</time>
      </trkpt>
      <trkpt lat="48.78042" lon="-3.01081">
        <ele>10.8</ele>
        <time>2012-06-27T02:29:21Z</time>
      </trkpt>
      <trkpt lat="48.78049" lon="-3.01018">
        <ele>8.6</ele>
        <time>2012-06-27T02:29:41Z</time>
      </trkpt>
      <trkpt lat="48.78099" lon="-3.00984">
        <ele>13</ele>
        <time>2012-06-27T02:30:01Z</time>
      </trkpt>
      <trkpt lat="48.78106" lon="-3.00956">
        <ele>9.9</ele>
        <time>2012-06-27T02:30:21Z</time>
      </trkpt>
      <trkpt lat="48.78151" lon="-3.00944">
        <ele>8.3</ele>
        <time>2012-06-27T02:30:41Z</time>
      </trkpt>
      <trkpt lat="48.78153" lon="-3.01022">
        <ele>19</ele>
        <time>2012-06-27T02:31:01Z</time>
      </trkpt>
      <trkpt lat="48.78137" lon="-3.011">
        <ele>13.4</ele>
        <time>2012-06-27T02:31:21Z</time>
      </trkpt>
      <trkpt lat="48.781" lon="-3.01144">
        <ele>11.2</ele>
        <time>2012-06-27T02:31:41Z</time>
      </trkpt>
      <trkpt lat="48.78101" lon="-3.01213">
        <ele>7</ele>
        <time>2012-06-27T02:32:01Z</time>
      </trkpt>
      <trkpt lat="48.78157" lon="-3.01374">
        <ele>6.5</ele>
        <time>2012-06-27T02:32:21Z</time>
      </trkpt>
      <trkpt lat="48.78145" lon="-3.0142">
        <ele>17.5</ele>
        <time>2012-06-27T02:32:41Z</time>
      </trkpt>
      <trkpt lat="48.78175" lon="-3.01456">
        <ele>9.3</ele>
        <time>2012-06-27T02:33:01Z</time>
      </trkpt>
      <trkpt lat="48.78173" lon="-3.01527">
        <ele>8.1</ele>
        <time>2012-06-27T02:33:21Z</time>
      </trkpt>
      <trkpt lat="48.7821" lon="-3.01767">
        <ele>15.3</ele>
        <time>2012-06-27T02:33:41Z</time>
      </trkpt>
      <trkpt lat="48.78204" lon="-3.01797">
        <ele>23</ele>
        <time>2012-06-27T02:34:01Z</time>
      </trkpt>
      <trkpt lat="48.78232" lon="-3.01855">
        <ele>16.2</ele>
        <time>2012-06-27T02:34:21Z</time>
      </trkpt>
      <trkpt lat="48.78236" lon="-3.01956">
        <ele>19.1</ele>
        <time>2012-06-27T02:34:41Z</time>
      </trkpt>
      <trkpt lat="48.78281" lon="-3.02042">
        <ele>11.5</ele>
        <time>2012-06-27T02:35:01Z</time>
      </trkpt>
      <trkpt lat="48.78225" lon="-3.02116">
        <ele>24.6</ele>
        <time>2012-06-27T02:35:21Z</time>
      </trkpt>
      <trkpt lat="48.78233" lon="-3.02198">
        <ele>18.2</ele>
        <time>2012-06-27T02:35:41Z</time>
      </trkpt>
      <trkpt lat="48.7822" lon="-3.02252">
        <ele>27.2</ele>
        <time>2012-06-27T02:36:01Z</time>
      </trkpt>
      <trkpt lat="48.7822" lon="-3.02309">
        <ele>19.9</ele>
        <time>2012-06-27T02:36:21Z</time>
      </trkpt>
      <trkpt lat="48.78201" lon="-3.02452">
        <ele>21.1</ele>
        <time>2012-06-27T02:36:41Z</time>
      </trkpt>
      <trkpt lat="48.78168" lon="-3.02569">
        <ele>23</ele>
        <time>2012-06-27T02:37:01Z</time>
      </trkpt>
      <trkpt lat="48.7821" lon="-3.02631">
        <ele>9.9</ele>
        <time>2012-06-27T02:37:21Z</time>
      </trkpt>
      <trkpt lat="48.78302" lon="-3.02723">
        <ele>11.1</ele>
        <time>2012-06-27T02:37:41Z</time>
      </trkpt>
      <trkpt lat="48.78322" lon="-3.0272">
        <ele>5.1</ele>
        <time>2012-06-27T02:38:01Z</time>
      </trkpt>
      <trkpt lat="48.78393" lon="-3.0292">
        <ele>2</ele>
        <time>2012-06-27T02:38:21Z</time>
      </trkpt>
      <trkpt lat="48.78355" lon="-3.0299">
        <ele>6.8</ele>
        <time>2012-06-27T02:38:41Z</time>
      </trkpt>
      <trkpt lat="48.78374" lon="-3.03069">
        <ele>7</ele>
        <time>2012-06-27T02:39:01Z</time>
      </trkpt>
      <trkpt lat="48.78339" lon="-3.0329">
        <ele>7.2</ele>
        <time>2012-06-27T02:39:21Z</time>
      </trkpt>
      <trkpt lat="48.78342" lon="-3.03344">
        <ele>5.6</ele>
        <time>2012-06-27T02:39:41Z</time>
      </trkpt>
      <trkpt lat="48.78313" lon="-3.03397">
        <ele>9.6</ele>
        <time>2012-06-27T02:40:01Z</time>
      </trkpt>
      <trkpt lat="48.78298" lon="-3.03524">
        <ele>7.3</ele>
        <time>2012-06-27T02:40:21Z</time>
      </trkpt>
      <trkpt lat="48.78319" lon="-3.03589">
        <ele>6.7</ele>
        <time>2012-06-27T02:40:41Z</time>
      </trkpt>
      <trkpt lat="48.78307" lon="-3.03624">
        <ele>7.2</ele>
        <time>2012-06-27T02:41:01Z</time>
      </trkpt>
      <trkpt lat="48.78303" lon="-3.03862">
        <ele>7.2</ele>
        <time>2012-06-27T02:41:21Z</time>
      </trkpt>
      <trkpt lat="48.78265" lon="-3.04081">
        <ele>5.9</ele>
        <time>2012-06-27T02:41:41Z</time>
      </trkpt>
      <trkpt lat="48.78236" lon="-3.04146">
        <ele>7</ele>
        <time>2012-06-27T02:42:01Z</time>
      </trkpt>
      <trkpt lat="48.78212" lon="-3.04174">
        <ele>7</ele>
        <time>2012-06-27T02:42:21Z</time>
      </trkpt>
      <trkpt lat="48.78201" lon="-3.04199">
        <ele>6.9</ele>
        <time>2012-06-27T02:42:41Z</time>
      </trkpt>
      <trkpt lat="48.78138" lon="-3.04236">
        <ele>6.5</ele>
        <time>2012-06-27T02:43:01Z</time>
      </trkpt>
      <trkpt lat="48.78024" lon="-3.0428">
        <ele>6.5</ele>
        <time>2012-06-27T02:43:21Z</time>
      </trkpt>
      <trkpt lat="48.77941" lon="-3.04283">
        <ele>6.7</ele>
        <time>2012-06-27T02:43:41Z</time>
      </trkpt>
      <trkpt lat="48.7793" lon="-3.04291">
        <ele>6.5</ele>
        <time>2012-06-27T02:44:01Z</time>
      </trkpt>
      <trkpt lat="48.77937" lon="-3.04304">
        <ele>5.6</ele>
        <time>2012-06-27T02:44:21Z</time>
      </trkpt>
      <trkpt lat="48.77939" lon="-3.04454">
        <ele>6.5</ele>
        <time>2012-06-27T02:44:41Z</time>
      </trkpt>
      <trkpt lat="48.77957" lon="-3.04448">
        <ele>4.9</ele>
        <time>2012-06-27T02:45:01Z</time>
      </trkpt>
      <trkpt lat="48.78024" lon="-3.04448">
        <ele>6</ele>
        <time>2012-06-27T02:45:21Z</time>
      </trkpt>
    </trkseg>
  </trk>
</gpx>